Time,TemperatureF,DewpointF,PressureIn,WindDirection,WindDirectionDegrees,WindSpeedMPH,WindSpeedGustMPH,Humidity,HourlyPrecipIn,Conditions,Clouds,dailyrainin,SoftwareType,DateUTC
2013-02-28 00:00:00,33.4,32.2,29.23,NE,44,10.7,10.7,95,0.00,,,0.12,VWS V14.01,2013-02-28 05:00:00,
2013-02-28 00:01:00,33.4,32.2,29.23,ENE,67,7.2,7.2,95,0.00,,,0.00,VWS V14.01,2013-02-28 05:01:00,
2013-02-28 00:02:00,33.4,32.2,29.23,SE,129,12.5,12.5,95,0.00,,,0.00,VWS V14.01,2013-02-28 05:02:00,
2013-02-28 00:03:00,33.4,32.2,29.24,ENE,78,6.3,6.3,95,0.00,,,0.00,VWS V14.01,2013-02-28 05:03:00,
2013-02-28 00:04:00,33.4,32.2,29.24,ENE,70,7.2,7.2,95,0.00,,,0.00,VWS V14.01,2013-02-28 05:04:00,
2013-02-28 00:05:00,33.4,32.2,29.24,NE,36,7.2,7.2,95,0.00,,,0.00,VWS V14.01,2013-02-28 05:05:00,
2013-02-28 00:06:00,33.4,32.2,29.24,ENE,77,9.8,9.8,95,0.00,,,0.00,VWS V14.01,2013-02-28 05:06:00,
2013-02-28 00:07:00,33.4,32.2,29.23,ENE,77,8.1,8.1,95,0.00,,,0.00,VWS V14.01,2013-02-28 05:07:00,
2013-02-28 00:08:00,33.4,32.2,29.24,NE,42,13.4,13.4,95,0.00,,,0.00,VWS V14.01,2013-02-28 05:08:00,
2013-02-28 00:09:00,33.4,32.2,29.24,ENE,74,7.2,7.2,95,0.00,,,0.00,VWS V14.01,2013-02-28 05:09:00,
2013-02-28 00:10:00,33.4,32.2,29.24,East,81,9.8,9.8,95,0.00,,,0.00,VWS V14.01,2013-02-28 05:10:00,
2013-02-28 00:11:00,33.4,32.2,29.24,ENE,75,7.2,7.2,95,0.00,,,0.00,VWS V14.01,2013-02-28 05:11:00,
2013-02-28 00:12:00,33.4,32.2,29.23,ENE,65,12.5,12.5,95,0.00,,,0.00,VWS V14.01,2013-02-28 05:12:00,
2013-02-28 00:13:00,33.4,32.2,29.24,ESE,104,8.1,8.1,95,0.00,,,0.00,VWS V14.01,2013-02-28 05:13:00,
2013-02-28 00:14:00,33.4,32.2,29.24,East,83,10.7,10.7,95,0.00,,,0.00,VWS V14.01,2013-02-28 05:14:00,
2013-02-28 00:15:00,33.6,32.3,29.24,ENE,66,10.7,10.7,95,0.00,,,0.00,VWS V14.01,2013-02-28 05:15:00,
2013-02-28 00:16:00,33.6,32.3,29.24,ENE,62,8.1,8.1,95,0.00,,,0.00,VWS V14.01,2013-02-28 05:16:00,
2013-02-28 00:17:00,33.6,32.3,29.23,ENE,66,6.3,6.3,95,0.00,,,0.00,VWS V14.01,2013-02-28 05:17:00,
2013-02-28 00:18:00,33.6,32.3,29.24,East,90,8.1,8.1,95,0.00,,,0.00,VWS V14.01,2013-02-28 05:18:00,
2013-02-28 00:19:00,33.6,32.3,29.24,East,87,8.1,8.1,95,0.00,,,0.00,VWS V14.01,2013-02-28 05:19:00,
2013-02-28 00:20:00,33.6,32.3,29.24,East,87,6.3,6.3,95,0.00,,,0.00,VWS V14.01,2013-02-28 05:20:00,
2013-02-28 00:21:00,33.6,32.3,29.24,East,90,11.6,11.6,95,0.00,,,0.00,VWS V14.01,2013-02-28 05:21:00,
2013-02-28 00:22:00,33.6,32.6,29.23,NE,38,16.1,16.1,96,0.00,,,0.00,VWS V14.01,2013-02-28 05:22:00,
2013-02-28 00:23:00,33.6,32.6,29.24,ENE,58,7.2,8.1,96,0.00,,,0.00,VWS V14.01,2013-02-28 05:23:00,
2013-02-28 00:24:00,33.6,32.6,29.24,ENE,72,7.2,9.6,96,0.00,,,0.00,VWS V14.01,2013-02-28 05:24:00,
2013-02-28 00:25:00,33.6,32.6,29.24,East,82,8.1,8.1,96,0.00,,,0.00,VWS V14.01,2013-02-28 05:25:00,
2013-02-28 00:26:00,33.6,32.6,29.24,East,79,6.3,6.3,96,0.00,,,0.00,VWS V14.01,2013-02-28 05:26:00,
2013-02-28 00:27:00,33.6,32.6,29.23,NE,53,4.5,5.4,96,0.00,,,0.00,VWS V14.01,2013-02-28 05:27:00,
2013-02-28 00:28:00,33.6,32.6,29.24,NE,49,10.7,10.7,96,0.00,,,0.00,VWS V14.01,2013-02-28 05:28:00,
2013-02-28 00:29:00,33.6,32.6,29.24,ENE,72,11.6,11.6,96,0.00,,,0.00,VWS V14.01,2013-02-28 05:29:00,
2013-02-28 00:30:00,33.6,32.6,29.24,ENE,71,7.2,7.2,96,0.00,,,0.00,VWS V14.01,2013-02-28 05:30:00,
2013-02-28 00:31:00,33.6,32.6,29.24,ENE,60,15.2,15.2,96,0.00,,,0.00,VWS V14.01,2013-02-28 05:31:00,
2013-02-28 00:32:00,33.8,32.5,29.23,NE,48,12.5,12.5,95,0.00,,-RA,0.00,VWS V14.01,2013-02-28 05:32:00,
2013-02-28 00:33:00,33.8,32.5,29.20,NE,38,10.7,10.7,95,0.00,,,0.00,VWS V14.01,2013-02-28 05:33:00,
2013-02-28 00:34:00,33.8,32.5,29.20,East,98,11.6,11.6,95,0.00,,,0.00,VWS V14.01,2013-02-28 05:34:00,
2013-02-28 00:35:00,33.8,32.5,29.20,NE,51,12.5,12.5,95,0.00,,,0.00,VWS V14.01,2013-02-28 05:35:00,
2013-02-28 00:36:00,33.8,32.5,29.20,East,98,8.1,8.1,95,0.00,,,0.00,VWS V14.01,2013-02-28 05:36:00,
2013-02-28 00:37:00,33.8,32.5,29.21,NE,55,15.2,15.2,95,0.00,,-RA,0.00,VWS V14.01,2013-02-28 05:37:00,
2013-02-28 00:38:00,33.8,32.5,29.20,ENE,76,8.1,8.1,95,0.00,,,0.00,VWS V14.01,2013-02-28 05:38:00,
2013-02-28 00:39:00,33.8,32.5,29.20,ENE,70,9.8,9.8,95,0.00,,,0.00,VWS V14.01,2013-02-28 05:39:00,
2013-02-28 00:40:00,33.8,32.5,29.20,NNE,32,15.2,15.2,95,0.00,,,0.00,VWS V14.01,2013-02-28 05:40:00,
2013-02-28 00:41:00,34.0,32.7,29.20,East,89,7.2,7.6,95,0.00,,,0.00,VWS V14.01,2013-02-28 05:41:00,
2013-02-28 00:42:00,34.0,32.7,29.21,ENE,64,11.6,11.6,95,0.00,,-RA,0.00,VWS V14.01,2013-02-28 05:42:00,
2013-02-28 00:43:00,34.0,32.7,29.20,ENE,71,11.6,11.6,95,0.00,,,0.00,VWS V14.01,2013-02-28 05:43:00,
2013-02-28 00:44:00,34.0,33.0,29.20,ESE,113,0.0,6.3,96,0.00,,,0.00,VWS V14.01,2013-02-28 05:44:00,
2013-02-28 00:45:00,34.0,33.0,29.20,NE,43,7.2,7.2,96,0.00,,,0.00,VWS V14.01,2013-02-28 05:45:00,
2013-02-28 00:46:00,34.0,33.0,29.20,East,84,10.7,10.7,96,0.00,,,0.00,VWS V14.01,2013-02-28 05:46:00,
2013-02-28 00:47:00,34.0,33.0,29.20,NE,46,12.5,12.5,96,0.00,,,0.00,VWS V14.01,2013-02-28 05:47:00,
2013-02-28 00:48:00,34.0,33.0,29.21,NNE,32,9.8,9.8,96,0.00,,-RA,0.00,VWS V14.01,2013-02-28 05:48:00,
2013-02-28 00:49:00,34.2,33.1,29.20,ENE,63,11.6,11.6,96,0.00,,,0.00,VWS V14.01,2013-02-28 05:49:00,
2013-02-28 00:50:00,34.2,33.1,29.20,NNE,32,14.3,14.3,96,0.00,,,0.00,VWS V14.01,2013-02-28 05:50:00,
2013-02-28 00:51:00,34.2,33.1,29.20,ENE,59,16.1,16.1,96,0.00,,,0.00,VWS V14.01,2013-02-28 05:51:00,
2013-02-28 00:52:00,34.3,33.3,29.20,East,91,10.7,10.7,96,0.00,,,0.00,VWS V14.01,2013-02-28 05:52:00,
2013-02-28 00:53:00,34.3,33.3,29.21,NE,49,10.7,10.7,96,0.00,,-RA,0.00,VWS V14.01,2013-02-28 05:53:00,
2013-02-28 00:54:00,34.3,33.3,29.20,East,88,10.7,10.7,96,0.00,,,0.00,VWS V14.01,2013-02-28 05:54:00,
2013-02-28 00:55:00,34.3,33.3,29.20,East,87,6.3,6.3,96,0.00,,,0.00,VWS V14.01,2013-02-28 05:55:00,
2013-02-28 00:56:00,34.3,33.3,29.20,NE,39,13.4,13.4,96,0.00,,,0.00,VWS V14.01,2013-02-28 05:56:00,
2013-02-28 00:57:00,34.3,33.3,29.20,East,90,11.6,11.6,96,0.00,,,0.00,VWS V14.01,2013-02-28 05:57:00,
2013-02-28 00:58:00,34.3,33.3,29.21,NNE,33,11.6,11.6,96,0.00,,-RA,0.00,VWS V14.01,2013-02-28 05:58:00,
2013-02-28 00:59:00,34.3,33.3,29.20,ENE,78,10.7,10.7,96,0.00,,,0.00,VWS V14.01,2013-02-28 05:59:00,
2013-02-28 01:00:00,34.5,33.5,29.20,NE,55,10.7,10.7,96,0.00,,,0.00,VWS V14.01,2013-02-28 06:00:00,
2013-02-28 01:01:00,34.5,33.5,29.20,East,101,11.6,11.6,96,0.00,,,0.00,VWS V14.01,2013-02-28 06:01:00,
2013-02-28 01:02:00,34.5,33.5,29.20,East,90,6.3,6.3,96,0.00,,,0.00,VWS V14.01,2013-02-28 06:02:00,
2013-02-28 01:03:00,34.5,33.5,29.21,East,100,10.7,10.7,96,0.00,,,0.00,VWS V14.01,2013-02-28 06:03:00,
2013-02-28 01:04:00,34.5,33.5,29.20,ENE,71,12.5,12.5,96,0.00,,,0.00,VWS V14.01,2013-02-28 06:04:00,
2013-02-28 01:05:00,34.5,33.5,29.20,NE,56,12.5,12.5,96,0.00,,,0.00,VWS V14.01,2013-02-28 06:05:00,
2013-02-28 01:06:00,34.5,33.5,29.20,ENE,78,7.2,7.2,96,0.00,,,0.00,VWS V14.01,2013-02-28 06:06:00,
2013-02-28 01:07:00,34.7,33.7,29.20,East,97,10.7,10.7,96,0.00,,,0.00,VWS V14.01,2013-02-28 06:07:00,
2013-02-28 01:08:00,34.7,33.7,29.21,ENE,63,11.6,11.6,96,0.00,,,0.00,VWS V14.01,2013-02-28 06:08:00,
2013-02-28 01:09:00,34.7,33.7,29.20,East,98,12.5,12.5,96,0.00,,,0.00,VWS V14.01,2013-02-28 06:09:00,
2013-02-28 01:10:00,34.7,33.7,29.20,ENE,62,11.6,11.6,96,0.00,,,0.00,VWS V14.01,2013-02-28 06:10:00,
2013-02-28 01:11:00,34.7,33.7,29.20,East,94,11.6,11.6,96,0.00,,,0.00,VWS V14.01,2013-02-28 06:11:00,
2013-02-28 01:12:00,34.9,34.1,29.20,East,97,10.7,10.7,97,0.00,,,0.00,VWS V14.01,2013-02-28 06:12:00,
2013-02-28 01:13:00,34.9,34.1,29.21,ENE,72,13.4,13.4,97,0.00,,,0.00,VWS V14.01,2013-02-28 06:13:00,
2013-02-28 01:14:00,34.9,34.1,29.20,East,89,14.3,14.3,97,0.00,,,0.00,VWS V14.01,2013-02-28 06:14:00,
2013-02-28 01:15:00,34.9,34.1,29.20,NE,49,10.7,10.7,97,0.00,,,0.00,VWS V14.01,2013-02-28 06:15:00,
2013-02-28 01:16:00,34.9,34.1,29.20,ENE,68,10.7,10.7,97,0.00,,,0.00,VWS V14.01,2013-02-28 06:16:00,
2013-02-28 01:17:00,34.9,34.1,29.20,East,93,12.5,12.5,97,0.00,,,0.00,VWS V14.01,2013-02-28 06:17:00,
2013-02-28 01:18:00,34.9,34.1,29.18,East,92,10.7,10.7,97,0.00,,,0.00,VWS V14.01,2013-02-28 06:18:00,
2013-02-28 01:19:00,34.9,34.1,29.18,NE,54,16.1,16.1,97,0.00,,,0.00,VWS V14.01,2013-02-28 06:19:00,
2013-02-28 01:20:00,34.9,34.1,29.18,ENE,65,15.2,15.2,97,0.00,,,0.00,VWS V14.01,2013-02-28 06:20:00,
2013-02-28 01:21:00,34.9,34.1,29.18,NNE,19,10.7,10.7,97,0.00,,,0.00,VWS V14.01,2013-02-28 06:21:00,
2013-02-28 01:22:00,35.1,34.3,29.18,East,87,15.2,15.2,97,0.00,,,0.00,VWS V14.01,2013-02-28 06:22:00,
2013-02-28 01:23:00,35.1,34.3,29.18,NE,43,12.5,12.5,97,0.00,,,0.00,VWS V14.01,2013-02-28 06:23:00,
2013-02-28 01:24:00,35.1,34.3,29.18,ENE,57,11.6,11.6,97,0.00,,,0.00,VWS V14.01,2013-02-28 06:24:00,
2013-02-28 01:25:00,35.1,34.3,29.18,SE,133,14.3,14.3,97,0.00,,,0.00,VWS V14.01,2013-02-28 06:25:00,
2013-02-28 01:26:00,35.1,34.3,29.18,ENE,77,10.7,10.7,97,0.00,,,0.00,VWS V14.01,2013-02-28 06:26:00,
2013-02-28 01:27:00,35.2,34.5,29.18,NE,54,11.6,11.6,97,0.00,,,0.00,VWS V14.01,2013-02-28 06:27:00,
2013-02-28 01:28:00,35.2,34.5,29.18,ESE,122,16.1,16.1,97,0.00,,,0.00,VWS V14.01,2013-02-28 06:28:00,
2013-02-28 01:29:00,35.2,34.5,29.18,ENE,58,15.2,15.2,97,0.00,,,0.00,VWS V14.01,2013-02-28 06:29:00,
2013-02-28 01:30:00,35.2,34.5,29.18,ESE,113,13.4,13.4,97,0.00,,,0.00,VWS V14.01,2013-02-28 06:30:00,
2013-02-28 01:31:00,35.4,34.7,29.18,East,85,9.8,9.8,97,0.00,,,0.00,VWS V14.01,2013-02-28 06:31:00,
2013-02-28 01:32:00,35.4,34.7,29.18,ENE,71,12.5,12.5,97,0.00,,,0.00,VWS V14.01,2013-02-28 06:32:00,
2013-02-28 01:33:00,35.4,34.7,29.18,East,90,11.6,11.6,97,0.00,,,0.00,VWS V14.01,2013-02-28 06:33:00,
2013-02-28 01:34:00,35.4,34.7,29.18,ENE,75,10.7,10.7,97,0.00,,,0.00,VWS V14.01,2013-02-28 06:34:00,
2013-02-28 01:35:00,35.4,34.7,29.18,ENE,69,8.1,8.1,97,0.00,,,0.00,VWS V14.01,2013-02-28 06:35:00,
2013-02-28 01:36:00,35.6,34.8,29.18,East,83,17.4,17.4,97,0.00,,,0.00,VWS V14.01,2013-02-28 06:36:00,
2013-02-28 01:37:00,35.6,34.8,29.18,East,89,10.7,10.7,97,0.00,,,0.00,VWS V14.01,2013-02-28 06:37:00,
2013-02-28 01:38:00,35.6,34.8,29.18,East,85,12.5,12.5,97,0.00,,,0.00,VWS V14.01,2013-02-28 06:38:00,
2013-02-28 01:39:00,35.6,34.8,29.18,ENE,68,10.7,10.7,97,0.00,,,0.00,VWS V14.01,2013-02-28 06:39:00,
2013-02-28 01:40:00,35.6,34.8,29.18,ENE,73,5.4,7.6,97,0.00,,,0.00,VWS V14.01,2013-02-28 06:40:00,
2013-02-28 01:41:00,35.8,35.0,29.18,ENE,68,16.1,16.1,97,0.00,,,0.00,VWS V14.01,2013-02-28 06:41:00,
2013-02-28 01:42:00,35.8,35.0,29.18,East,87,12.5,12.5,97,0.00,,,0.00,VWS V14.01,2013-02-28 06:42:00,
2013-02-28 01:43:00,35.8,35.0,29.18,ENE,78,15.2,15.2,97,0.00,,,0.00,VWS V14.01,2013-02-28 06:43:00,
2013-02-28 01:44:00,35.8,35.0,29.18,East,98,11.6,11.6,97,0.00,,-RA,0.00,VWS V14.01,2013-02-28 06:44:00,
2013-02-28 01:45:00,35.8,35.0,29.18,East,99,9.8,10.5,97,0.00,,,0.00,VWS V14.01,2013-02-28 06:45:00,
2013-02-28 01:46:00,36.0,35.2,29.18,ENE,67,15.2,15.2,97,0.00,,,0.00,VWS V14.01,2013-02-28 06:46:00,
2013-02-28 01:47:00,36.0,35.5,29.18,ENE,61,17.4,17.4,98,0.00,,,0.00,VWS V14.01,2013-02-28 06:47:00,
2013-02-28 01:48:00,36.0,35.5,29.18,ENE,72,10.7,10.7,98,0.00,,,0.00,VWS V14.01,2013-02-28 06:48:00,
2013-02-28 01:49:00,36.0,35.5,29.18,ENE,75,12.5,12.5,98,0.00,,-RA,0.00,VWS V14.01,2013-02-28 06:49:00,
2013-02-28 01:50:00,36.0,35.5,29.18,East,96,16.6,16.6,98,0.00,,,0.00,VWS V14.01,2013-02-28 06:50:00,
2013-02-28 01:51:00,36.1,35.6,29.18,East,83,10.7,10.7,98,0.00,,,0.00,VWS V14.01,2013-02-28 06:51:00,
2013-02-28 01:52:00,36.1,35.6,29.18,East,101,14.3,14.3,98,0.00,,,0.00,VWS V14.01,2013-02-28 06:52:00,
2013-02-28 01:53:00,36.1,35.6,29.18,East,82,16.1,16.1,98,0.00,,,0.00,VWS V14.01,2013-02-28 06:53:00,
2013-02-28 01:54:00,36.1,35.6,29.18,East,92,13.4,13.4,98,0.00,,-RA,0.00,VWS V14.01,2013-02-28 06:54:00,
2013-02-28 01:55:00,36.1,35.6,29.18,ENE,63,16.6,16.6,98,0.00,,,0.00,VWS V14.01,2013-02-28 06:55:00,
2013-02-28 01:56:00,36.1,35.6,29.18,East,92,15.2,15.2,98,0.00,,,0.00,VWS V14.01,2013-02-28 06:56:00,
2013-02-28 01:57:00,36.1,35.6,29.18,ENE,73,10.7,10.7,98,0.00,,,0.00,VWS V14.01,2013-02-28 06:57:00,
2013-02-28 01:58:00,36.1,35.6,29.18,East,91,16.6,16.6,98,0.00,,,0.00,VWS V14.01,2013-02-28 06:58:00,
2013-02-28 01:59:00,36.3,35.8,29.18,East,81,22.8,22.8,98,0.00,,-RA,0.00,VWS V14.01,2013-02-28 06:59:00,
2013-02-28 02:00:00,36.3,35.8,29.18,ENE,71,12.5,12.5,98,0.00,,,0.00,VWS V14.01,2013-02-28 07:00:00,
2013-02-28 02:01:00,36.3,35.8,29.18,ENE,78,11.6,11.6,98,0.00,,,0.00,VWS V14.01,2013-02-28 07:01:00,
2013-02-28 02:02:00,36.3,35.8,29.18,ENE,70,10.7,12.8,98,0.00,,,0.00,VWS V14.01,2013-02-28 07:02:00,
2013-02-28 02:03:00,36.3,35.8,29.15,NE,49,12.5,12.5,98,0.00,,,0.00,VWS V14.01,2013-02-28 07:03:00,
2013-02-28 02:04:00,36.3,35.8,29.15,ENE,78,8.1,8.1,98,0.00,,-RA,0.00,VWS V14.01,2013-02-28 07:04:00,
2013-02-28 02:05:00,36.3,35.8,29.15,ENE,69,11.6,11.6,98,0.00,,,0.00,VWS V14.01,2013-02-28 07:05:00,
2013-02-28 02:06:00,36.3,35.8,29.15,NE,52,16.1,16.1,98,0.00,,,0.00,VWS V14.01,2013-02-28 07:06:00,
2013-02-28 02:07:00,36.3,35.8,29.15,NE,53,13.4,13.4,98,0.00,,,0.00,VWS V14.01,2013-02-28 07:07:00,
2013-02-28 02:08:00,36.3,35.8,29.15,NNW,333,12.5,12.5,98,0.00,,,0.00,VWS V14.01,2013-02-28 07:08:00,
2013-02-28 02:09:00,36.3,35.8,29.15,ENE,70,15.2,15.2,98,0.00,,-RA,0.00,VWS V14.01,2013-02-28 07:09:00,
2013-02-28 02:10:00,36.3,35.8,29.15,East,88,15.2,15.2,98,0.00,,,0.00,VWS V14.01,2013-02-28 07:10:00,
2013-02-28 02:11:00,36.3,35.8,29.15,East,79,15.2,15.2,98,0.00,,,0.00,VWS V14.01,2013-02-28 07:11:00,
2013-02-28 02:12:00,36.3,35.8,29.15,East,94,11.6,11.6,98,0.00,,,0.00,VWS V14.01,2013-02-28 07:12:00,
2013-02-28 02:13:00,36.3,35.8,29.15,SE,127,7.2,7.2,98,0.00,,,0.00,VWS V14.01,2013-02-28 07:13:00,
2013-02-28 02:14:00,36.5,36.0,29.15,ENE,58,8.1,8.1,98,0.00,,-RA,0.00,VWS V14.01,2013-02-28 07:14:00,
2013-02-28 02:15:00,36.5,36.0,29.15,ENE,60,11.6,11.6,98,0.04,,,0.04,VWS V14.01,2013-02-28 07:15:00,
2013-02-28 02:16:00,36.5,36.0,29.15,East,79,10.7,10.7,98,0.04,,,0.04,VWS V14.01,2013-02-28 07:16:00,
2013-02-28 02:17:00,36.5,36.0,29.15,East,96,10.7,10.7,98,0.04,,,0.04,VWS V14.01,2013-02-28 07:17:00,
2013-02-28 02:18:00,36.5,36.0,29.15,ENE,62,12.5,12.5,98,0.04,,,0.04,VWS V14.01,2013-02-28 07:18:00,
2013-02-28 02:19:00,36.5,36.0,29.15,NNE,20,9.8,9.8,98,0.04,,-RA,0.04,VWS V14.01,2013-02-28 07:19:00,
2013-02-28 02:20:00,36.5,36.0,29.15,ENE,75,9.8,9.8,98,0.04,,,0.04,VWS V14.01,2013-02-28 07:20:00,
2013-02-28 02:21:00,36.5,36.0,29.15,ENE,61,11.6,11.6,98,0.04,,,0.04,VWS V14.01,2013-02-28 07:21:00,
2013-02-28 02:22:00,36.5,36.0,29.15,ENE,58,11.6,11.6,98,0.04,,,0.04,VWS V14.01,2013-02-28 07:22:00,
2013-02-28 02:23:00,36.5,36.0,29.15,East,84,12.5,12.5,98,0.04,,,0.04,VWS V14.01,2013-02-28 07:23:00,
2013-02-28 02:24:00,36.5,36.0,29.15,ENE,58,12.5,12.5,98,0.04,,-RA,0.04,VWS V14.01,2013-02-28 07:24:00,
2013-02-28 02:25:00,36.7,36.2,29.15,East,92,12.5,12.5,98,0.04,,,0.04,VWS V14.01,2013-02-28 07:25:00,
2013-02-28 02:26:00,36.7,36.2,29.15,ESE,104,12.5,12.5,98,0.04,,,0.04,VWS V14.01,2013-02-28 07:26:00,
2013-02-28 02:27:00,36.7,36.2,29.15,ENE,73,11.6,11.6,98,0.04,,,0.04,VWS V14.01,2013-02-28 07:27:00,
2013-02-28 02:28:00,36.7,36.2,29.15,NNE,32,8.1,8.1,98,0.04,,,0.04,VWS V14.01,2013-02-28 07:28:00,
2013-02-28 02:29:00,36.7,36.2,29.15,East,88,12.5,12.5,98,0.04,,-RA,0.04,VWS V14.01,2013-02-28 07:29:00,
2013-02-28 02:30:00,36.7,36.2,29.15,ENE,72,12.5,12.5,98,0.04,,,0.04,VWS V14.01,2013-02-28 07:30:00,
2013-02-28 02:31:00,36.7,36.2,29.15,East,79,12.5,12.5,98,0.04,,,0.04,VWS V14.01,2013-02-28 07:31:00,
2013-02-28 02:32:00,36.9,36.3,29.15,ENE,73,9.8,9.8,98,0.04,,,0.04,VWS V14.01,2013-02-28 07:32:00,
2013-02-28 02:33:00,36.9,36.3,29.15,ENE,76,11.6,11.6,98,0.04,,,0.04,VWS V14.01,2013-02-28 07:33:00,
2013-02-28 02:34:00,36.7,36.2,29.15,ENE,71,8.1,8.1,98,0.04,,-RA,0.04,VWS V14.01,2013-02-28 07:34:00,
2013-02-28 02:35:00,36.7,36.2,29.15,NE,37,12.5,12.5,98,0.04,,,0.04,VWS V14.01,2013-02-28 07:35:00,
2013-02-28 02:36:00,36.9,36.3,29.15,East,88,9.8,9.8,98,0.04,,,0.04,VWS V14.01,2013-02-28 07:36:00,
2013-02-28 02:37:00,36.9,36.3,29.15,East,81,11.6,11.6,98,0.04,,,0.04,VWS V14.01,2013-02-28 07:37:00,
2013-02-28 02:38:00,36.9,36.3,29.15,ENE,78,10.7,10.7,98,0.08,,,0.08,VWS V14.01,2013-02-28 07:38:00,
2013-02-28 02:39:00,36.9,36.3,29.15,ESE,103,10.7,10.7,98,0.08,,-RA,0.08,VWS V14.01,2013-02-28 07:39:00,
2013-02-28 02:40:00,36.9,36.3,29.15,East,93,10.7,10.7,98,0.08,,,0.08,VWS V14.01,2013-02-28 07:40:00,
2013-02-28 02:41:00,36.9,36.3,29.15,ESE,121,16.1,16.1,98,0.08,,,0.08,VWS V14.01,2013-02-28 07:41:00,
2013-02-28 02:42:00,36.9,36.3,29.15,East,89,10.7,10.7,98,0.08,,,0.08,VWS V14.01,2013-02-28 07:42:00,
2013-02-28 02:43:00,37.0,36.5,29.15,East,95,16.1,16.1,98,0.08,,,0.08,VWS V14.01,2013-02-28 07:43:00,
2013-02-28 02:44:00,37.0,36.5,29.15,East,82,16.1,16.1,98,0.08,,-RA,0.08,VWS V14.01,2013-02-28 07:44:00,
2013-02-28 02:45:00,37.0,36.5,29.15,ENE,69,12.5,12.5,98,0.08,,,0.08,VWS V14.01,2013-02-28 07:45:00,
2013-02-28 02:46:00,37.0,36.5,29.15,ENE,64,10.7,10.7,98,0.08,,,0.08,VWS V14.01,2013-02-28 07:46:00,
2013-02-28 02:47:00,37.0,36.5,29.15,ENE,70,7.2,7.2,98,0.08,,,0.08,VWS V14.01,2013-02-28 07:47:00,
2013-02-28 02:48:00,37.0,36.5,29.15,ENE,68,11.6,11.6,98,0.08,,,0.08,VWS V14.01,2013-02-28 07:48:00,
2013-02-28 02:49:00,37.0,36.5,29.15,ENE,71,13.4,13.4,98,0.08,,,0.08,VWS V14.01,2013-02-28 07:49:00,
2013-02-28 02:50:00,37.0,36.5,29.15,ESE,103,10.7,10.7,98,0.08,,-RA,0.08,VWS V14.01,2013-02-28 07:50:00,
2013-02-28 02:51:00,37.0,36.5,29.15,NE,50,16.6,16.6,98,0.08,,,0.08,VWS V14.01,2013-02-28 07:51:00,
2013-02-28 02:52:00,37.2,36.7,29.15,East,83,12.5,12.5,98,0.08,,,0.08,VWS V14.01,2013-02-28 07:52:00,
2013-02-28 02:53:00,37.2,36.7,29.15,NE,55,9.8,9.8,98,0.08,,,0.08,VWS V14.01,2013-02-28 07:53:00,
2013-02-28 02:54:00,37.2,36.7,29.15,ENE,64,15.2,15.2,98,0.08,,,0.08,VWS V14.01,2013-02-28 07:54:00,
2013-02-28 02:55:00,37.2,36.7,29.15,East,90,9.8,9.8,98,0.08,,-RA,0.08,VWS V14.01,2013-02-28 07:55:00,
2013-02-28 02:56:00,37.2,36.7,29.15,NE,41,16.6,16.6,98,0.08,,,0.08,VWS V14.01,2013-02-28 07:56:00,
2013-02-28 02:57:00,37.2,36.7,29.15,East,80,17.4,17.4,98,0.08,,,0.08,VWS V14.01,2013-02-28 07:57:00,
2013-02-28 02:58:00,37.2,36.7,29.15,ENE,62,12.5,12.5,98,0.08,,,0.08,VWS V14.01,2013-02-28 07:58:00,
2013-02-28 02:59:00,37.2,36.7,29.15,East,92,10.7,10.7,98,0.08,,,0.08,VWS V14.01,2013-02-28 07:59:00,
2013-02-28 03:00:00,37.2,36.7,29.15,East,81,8.1,8.1,98,0.08,,-RA,0.08,VWS V14.01,2013-02-28 08:00:00,
2013-02-28 03:01:00,37.2,36.7,29.15,NNE,33,8.1,8.1,98,0.08,,,0.08,VWS V14.01,2013-02-28 08:01:00,
2013-02-28 03:02:00,37.4,36.9,29.15,ENE,63,10.7,10.7,98,0.08,,,0.08,VWS V14.01,2013-02-28 08:02:00,
2013-02-28 03:03:00,37.4,36.9,29.15,ENE,58,14.3,14.3,98,0.16,,,0.16,VWS V14.01,2013-02-28 08:03:00,
2013-02-28 03:04:00,37.2,36.7,29.15,ENE,58,12.5,12.5,98,0.16,,,0.16,VWS V14.01,2013-02-28 08:04:00,
2013-02-28 03:05:00,37.4,36.9,29.15,ENE,72,14.3,14.3,98,0.16,,-RA,0.16,VWS V14.01,2013-02-28 08:05:00,
2013-02-28 03:06:00,37.2,36.7,29.15,ENE,78,7.2,7.2,98,0.16,,,0.16,VWS V14.01,2013-02-28 08:06:00,
2013-02-28 03:07:00,37.4,36.9,29.15,ENE,74,11.6,11.6,98,0.16,,,0.16,VWS V14.01,2013-02-28 08:07:00,
2013-02-28 03:08:00,37.4,36.9,29.15,NE,36,15.2,15.2,98,0.16,,,0.16,VWS V14.01,2013-02-28 08:08:00,
2013-02-28 03:09:00,37.4,36.9,29.15,ENE,70,17.4,17.4,98,0.16,,,0.16,VWS V14.01,2013-02-28 08:09:00,
2013-02-28 03:10:00,37.4,36.9,29.15,ENE,63,11.6,11.6,98,0.16,,-RA,0.16,VWS V14.01,2013-02-28 08:10:00,
2013-02-28 03:11:00,37.4,36.9,29.15,ENE,65,11.6,11.6,98,0.16,,,0.16,VWS V14.01,2013-02-28 08:11:00,
2013-02-28 03:12:00,37.4,36.9,29.15,East,89,10.7,10.7,98,0.16,,,0.16,VWS V14.01,2013-02-28 08:12:00,
2013-02-28 03:13:00,37.4,36.9,29.15,East,88,11.6,11.6,98,0.16,,,0.16,VWS V14.01,2013-02-28 08:13:00,
2013-02-28 03:14:00,37.4,36.9,29.15,ENE,61,11.6,11.6,98,0.16,,,0.16,VWS V14.01,2013-02-28 08:14:00,
2013-02-28 03:15:00,37.4,36.9,29.15,ENE,61,11.6,11.6,98,0.12,,-RA,0.16,VWS V14.01,2013-02-28 08:15:00,
2013-02-28 03:16:00,37.4,36.9,29.15,East,87,12.5,12.5,98,0.12,,,0.16,VWS V14.01,2013-02-28 08:16:00,
2013-02-28 03:17:00,37.6,37.1,29.15,ENE,73,14.3,14.3,98,0.12,,,0.16,VWS V14.01,2013-02-28 08:17:00,
2013-02-28 03:18:00,37.6,37.1,29.12,ESE,120,7.2,7.2,98,0.12,,,0.16,VWS V14.01,2013-02-28 08:18:00,
2013-02-28 03:19:00,37.4,36.9,29.12,ENE,57,9.8,9.8,98,0.16,,,0.20,VWS V14.01,2013-02-28 08:19:00,
2013-02-28 03:20:00,37.4,36.9,29.12,East,85,8.1,8.1,98,0.16,,-RA,0.20,VWS V14.01,2013-02-28 08:20:00,
2013-02-28 03:21:00,37.6,37.1,29.12,ENE,73,7.2,8.1,98,0.16,,,0.20,VWS V14.01,2013-02-28 08:21:00,
2013-02-28 03:22:00,37.6,37.1,29.12,East,84,12.5,12.5,98,0.16,,,0.20,VWS V14.01,2013-02-28 08:22:00,
2013-02-28 03:23:00,37.6,37.1,29.12,NE,54,10.7,10.7,98,0.16,,,0.20,VWS V14.01,2013-02-28 08:23:00,
2013-02-28 03:24:00,37.6,37.1,29.12,East,81,8.1,8.1,98,0.16,,,0.20,VWS V14.01,2013-02-28 08:24:00,
2013-02-28 03:25:00,37.6,37.1,29.12,NNE,30,11.6,11.6,98,0.16,,,0.20,VWS V14.01,2013-02-28 08:25:00,
2013-02-28 03:26:00,37.6,37.1,29.12,East,84,15.2,15.2,98,0.16,,-RA,0.20,VWS V14.01,2013-02-28 08:26:00,
2013-02-28 03:27:00,37.6,37.1,29.12,East,92,6.3,6.3,98,0.16,,,0.20,VWS V14.01,2013-02-28 08:27:00,
2013-02-28 03:28:00,37.6,37.1,29.12,East,89,9.8,9.8,98,0.16,,,0.20,VWS V14.01,2013-02-28 08:28:00,
2013-02-28 03:29:00,37.6,37.1,29.12,East,86,8.1,8.1,98,0.16,,,0.20,VWS V14.01,2013-02-28 08:29:00,
2013-02-28 03:30:00,37.6,37.1,29.12,NE,43,11.6,11.6,98,0.16,,,0.20,VWS V14.01,2013-02-28 08:30:00,
2013-02-28 03:31:00,37.8,37.2,29.12,NE,55,16.1,16.1,98,0.16,,-RA,0.20,VWS V14.01,2013-02-28 08:31:00,
2013-02-28 03:32:00,37.8,37.2,29.12,ENE,68,9.8,9.8,98,0.16,,,0.20,VWS V14.01,2013-02-28 08:32:00,
2013-02-28 03:33:00,37.8,37.2,29.15,ENE,73,11.6,11.6,98,0.16,,,0.20,VWS V14.01,2013-02-28 08:33:00,
2013-02-28 03:34:00,37.9,37.4,29.15,ENE,76,12.5,12.5,98,0.16,,,0.20,VWS V14.01,2013-02-28 08:34:00,
2013-02-28 03:35:00,37.9,37.4,29.15,East,85,9.8,9.8,98,0.16,,,0.20,VWS V14.01,2013-02-28 08:35:00,
2013-02-28 03:36:00,37.9,37.4,29.15,ENE,60,11.6,11.6,98,0.16,,-RA,0.20,VWS V14.01,2013-02-28 08:36:00,
2013-02-28 03:37:00,37.9,37.4,29.15,East,101,11.6,11.6,98,0.16,,,0.20,VWS V14.01,2013-02-28 08:37:00,
2013-02-28 03:38:00,37.9,37.4,29.15,ENE,74,12.5,12.5,98,0.16,,,0.20,VWS V14.01,2013-02-28 08:38:00,
2013-02-28 03:39:00,37.9,37.4,29.15,ENE,69,10.7,10.7,98,0.12,,,0.20,VWS V14.01,2013-02-28 08:39:00,
2013-02-28 03:40:00,37.8,37.2,29.15,East,89,10.7,10.7,98,0.12,,,0.20,VWS V14.01,2013-02-28 08:40:00,
2013-02-28 03:41:00,37.8,37.2,29.15,ENE,72,8.1,8.1,98,0.12,,-RA,0.20,VWS V14.01,2013-02-28 08:41:00,
2013-02-28 03:42:00,37.8,37.2,29.15,ESE,104,11.6,11.6,98,0.12,,,0.20,VWS V14.01,2013-02-28 08:42:00,
2013-02-28 03:43:00,37.9,37.4,29.15,ENE,61,10.7,10.7,98,0.16,,,0.24,VWS V14.01,2013-02-28 08:43:00,
2013-02-28 03:44:00,37.9,37.4,29.15,ENE,66,10.7,10.7,98,0.16,,,0.24,VWS V14.01,2013-02-28 08:44:00,
2013-02-28 03:45:00,37.9,37.4,29.15,NE,41,8.1,8.1,98,0.16,,,0.24,VWS V14.01,2013-02-28 08:45:00,
2013-02-28 03:46:00,37.9,37.4,29.15,NE,43,9.8,9.8,98,0.16,,-RA,0.24,VWS V14.01,2013-02-28 08:46:00,
2013-02-28 03:47:00,37.9,37.4,29.15,ENE,72,8.1,8.1,98,0.16,,,0.24,VWS V14.01,2013-02-28 08:47:00,
2013-02-28 03:48:00,37.9,37.4,29.12,ESE,122,11.6,11.6,98,0.16,,,0.24,VWS V14.01,2013-02-28 08:48:00,
2013-02-28 03:49:00,38.1,37.6,29.12,East,95,10.7,10.7,98,0.16,,,0.24,VWS V14.01,2013-02-28 08:49:00,
2013-02-28 03:50:00,38.1,37.6,29.12,ENE,61,12.5,12.5,98,0.16,,,0.24,VWS V14.01,2013-02-28 08:50:00,
2013-02-28 03:51:00,38.1,37.6,29.12,ENE,78,10.7,10.7,98,0.16,,-RA,0.24,VWS V14.01,2013-02-28 08:51:00,
2013-02-28 03:52:00,38.1,37.6,29.12,SE,127,8.1,8.1,98,0.16,,,0.24,VWS V14.01,2013-02-28 08:52:00,
2013-02-28 03:53:00,38.1,37.6,29.12,ESE,111,12.5,12.5,98,0.16,,,0.24,VWS V14.01,2013-02-28 08:53:00,
2013-02-28 03:54:00,38.1,37.6,29.12,NE,55,12.5,12.5,98,0.16,,,0.24,VWS V14.01,2013-02-28 08:54:00,
2013-02-28 03:55:00,38.1,37.6,29.12,East,95,11.6,11.6,98,0.16,,,0.24,VWS V14.01,2013-02-28 08:55:00,
2013-02-28 03:56:00,38.1,37.6,29.12,East,81,12.5,12.5,98,0.16,,-RA,0.24,VWS V14.01,2013-02-28 08:56:00,
2013-02-28 03:57:00,38.1,37.6,29.12,East,89,6.3,8.7,98,0.16,,,0.24,VWS V14.01,2013-02-28 08:57:00,
2013-02-28 03:58:00,38.1,37.6,29.12,NE,48,11.6,11.6,98,0.16,,,0.24,VWS V14.01,2013-02-28 08:58:00,
2013-02-28 03:59:00,38.3,37.8,29.12,NE,37,9.8,9.8,98,0.16,,,0.24,VWS V14.01,2013-02-28 08:59:00,
2013-02-28 04:00:00,38.3,37.8,29.12,East,95,8.1,8.1,98,0.20,,,0.28,VWS V14.01,2013-02-28 09:00:00,
2013-02-28 04:01:00,38.3,37.8,29.12,East,88,8.1,8.1,98,0.20,,,0.28,VWS V14.01,2013-02-28 09:01:00,
2013-02-28 04:02:00,38.3,37.8,29.12,NNE,21,12.5,12.5,98,0.20,,,0.28,VWS V14.01,2013-02-28 09:02:00,
2013-02-28 04:03:00,38.3,37.8,29.15,ENE,76,12.5,12.5,98,0.20,,,0.28,VWS V14.01,2013-02-28 09:03:00,
2013-02-28 04:04:00,38.3,37.8,29.15,SE,124,7.2,7.2,98,0.12,,,0.28,VWS V14.01,2013-02-28 09:04:00,
2013-02-28 04:05:00,38.3,37.8,29.15,NNE,30,8.1,8.1,98,0.12,,,0.28,VWS V14.01,2013-02-28 09:05:00,
2013-02-28 04:06:00,38.3,37.8,29.15,ESE,119,6.3,6.3,98,0.12,,,0.28,VWS V14.01,2013-02-28 09:06:00,
2013-02-28 04:07:00,38.3,37.8,29.15,East,96,5.4,5.4,98,0.12,,,0.28,VWS V14.01,2013-02-28 09:07:00,
2013-02-28 04:08:00,38.3,37.8,29.15,East,100,8.1,8.1,98,0.12,,,0.28,VWS V14.01,2013-02-28 09:08:00,
2013-02-28 04:09:00,38.3,37.8,29.15,ENE,68,8.1,8.1,98,0.12,,,0.28,VWS V14.01,2013-02-28 09:09:00,
2013-02-28 04:10:00,38.3,37.8,29.15,ENE,75,7.2,7.2,98,0.12,,,0.28,VWS V14.01,2013-02-28 09:10:00,
2013-02-28 04:11:00,38.3,37.8,29.15,ENE,72,7.2,7.2,98,0.12,,,0.28,VWS V14.01,2013-02-28 09:11:00,
2013-02-28 04:12:00,38.3,37.8,29.15,East,80,7.2,7.2,98,0.12,,,0.28,VWS V14.01,2013-02-28 09:12:00,
2013-02-28 04:13:00,38.3,37.8,29.15,ENE,67,9.8,9.8,98,0.12,,,0.28,VWS V14.01,2013-02-28 09:13:00,
2013-02-28 04:14:00,38.3,37.8,29.15,East,84,6.3,6.3,98,0.12,,,0.28,VWS V14.01,2013-02-28 09:14:00,
2013-02-28 04:15:00,38.3,37.8,29.15,ESE,123,6.3,6.7,98,0.12,,,0.28,VWS V14.01,2013-02-28 09:15:00,
2013-02-28 04:16:00,38.5,38.0,29.15,East,85,6.3,6.3,98,0.12,,,0.28,VWS V14.01,2013-02-28 09:16:00,
2013-02-28 04:17:00,38.5,38.0,29.15,NE,39,9.8,9.8,98,0.12,,,0.28,VWS V14.01,2013-02-28 09:17:00,
2013-02-28 04:18:00,38.5,38.0,29.15,ENE,73,11.6,11.6,98,0.12,,,0.28,VWS V14.01,2013-02-28 09:18:00,
2013-02-28 04:19:00,38.5,38.0,29.15,ENE,65,7.2,7.2,98,0.12,,,0.28,VWS V14.01,2013-02-28 09:19:00,
2013-02-28 04:20:00,38.5,38.0,29.15,ENE,71,8.9,8.9,98,0.08,,,0.28,VWS V14.01,2013-02-28 09:20:00,
2013-02-28 04:21:00,38.5,38.0,29.15,East,81,9.8,9.8,98,0.08,,,0.28,VWS V14.01,2013-02-28 09:21:00,
2013-02-28 04:22:00,38.5,38.0,29.15,ENE,78,5.4,5.4,98,0.08,,,0.28,VWS V14.01,2013-02-28 09:22:00,
2013-02-28 04:23:00,38.5,38.0,29.15,ESE,104,0.0,4.0,98,0.08,,,0.28,VWS V14.01,2013-02-28 09:23:00,
2013-02-28 04:24:00,38.5,38.0,29.15,East,83,0.0,0.0,98,0.08,,,0.28,VWS V14.01,2013-02-28 09:24:00,
2013-02-28 04:25:00,38.5,38.0,29.15,NE,56,5.4,5.4,98,0.08,,,0.28,VWS V14.01,2013-02-28 09:25:00,
2013-02-28 04:26:00,38.5,38.0,29.15,ENE,70,8.1,8.1,98,0.08,,,0.28,VWS V14.01,2013-02-28 09:26:00,
2013-02-28 04:27:00,38.5,38.0,29.15,ENE,70,5.4,5.4,98,0.08,,,0.28,VWS V14.01,2013-02-28 09:27:00,
2013-02-28 04:28:00,38.5,38.0,29.15,ESE,115,9.8,9.8,98,0.08,,,0.28,VWS V14.01,2013-02-28 09:28:00,
2013-02-28 04:29:00,38.5,38.0,29.15,ENE,65,11.6,11.6,98,0.12,,,0.31,VWS V14.01,2013-02-28 09:29:00,
2013-02-28 04:30:00,38.5,38.0,29.15,SW,227,8.1,8.1,98,0.12,,,0.31,VWS V14.01,2013-02-28 09:30:00,
2013-02-28 04:31:00,38.5,38.0,29.15,ENE,77,9.8,9.8,98,0.12,,,0.31,VWS V14.01,2013-02-28 09:31:00,
2013-02-28 04:32:00,38.5,38.0,29.15,ENE,74,10.7,10.7,98,0.12,,,0.31,VWS V14.01,2013-02-28 09:32:00,
2013-02-28 04:33:00,38.5,38.0,29.15,East,83,10.7,10.7,98,0.12,,,0.31,VWS V14.01,2013-02-28 09:33:00,
2013-02-28 04:34:00,38.5,38.0,29.15,ENE,70,5.4,5.4,98,0.12,,,0.31,VWS V14.01,2013-02-28 09:34:00,
2013-02-28 04:35:00,38.5,38.0,29.15,East,100,8.1,8.1,98,0.12,,,0.31,VWS V14.01,2013-02-28 09:35:00,
2013-02-28 04:36:00,38.5,38.0,29.15,East,95,7.2,7.2,98,0.12,,,0.31,VWS V14.01,2013-02-28 09:36:00,
2013-02-28 04:37:00,38.5,38.0,29.15,ENE,74,8.1,8.1,98,0.12,,,0.31,VWS V14.01,2013-02-28 09:37:00,
2013-02-28 04:38:00,38.5,38.0,29.15,East,83,9.8,9.8,98,0.12,,,0.31,VWS V14.01,2013-02-28 09:38:00,
2013-02-28 04:39:00,38.7,38.2,29.15,ENE,58,8.1,8.1,98,0.12,,,0.31,VWS V14.01,2013-02-28 09:39:00,
2013-02-28 04:40:00,38.7,38.2,29.15,East,82,12.5,12.5,98,0.12,,,0.31,VWS V14.01,2013-02-28 09:40:00,
2013-02-28 04:41:00,38.7,38.2,29.15,East,91,10.7,10.7,98,0.12,,,0.31,VWS V14.01,2013-02-28 09:41:00,
2013-02-28 04:42:00,38.7,38.2,29.15,East,100,6.3,6.3,98,0.12,,,0.31,VWS V14.01,2013-02-28 09:42:00,
2013-02-28 04:43:00,38.7,38.2,29.15,NNE,29,7.2,7.2,98,0.12,,,0.31,VWS V14.01,2013-02-28 09:43:00,
2013-02-28 04:44:00,38.7,38.2,29.15,ENE,78,7.2,7.2,98,0.08,,,0.31,VWS V14.01,2013-02-28 09:44:00,
2013-02-28 04:45:00,38.8,38.3,29.15,ESE,107,6.3,6.3,98,0.08,,,0.31,VWS V14.01,2013-02-28 09:45:00,
2013-02-28 04:46:00,38.7,38.2,29.15,East,91,10.7,10.7,98,0.08,,,0.31,VWS V14.01,2013-02-28 09:46:00,
2013-02-28 04:47:00,38.7,38.2,29.15,ENE,58,9.8,9.8,98,0.08,,,0.31,VWS V14.01,2013-02-28 09:47:00,
2013-02-28 04:48:00,38.7,38.2,29.15,NE,47,8.1,8.1,98,0.08,,,0.31,VWS V14.01,2013-02-28 09:48:00,
2013-02-28 04:49:00,38.7,38.2,29.15,East,81,6.3,6.3,98,0.08,,,0.31,VWS V14.01,2013-02-28 09:49:00,
2013-02-28 04:50:00,38.7,38.2,29.15,ENE,73,6.3,6.3,98,0.12,,,0.35,VWS V14.01,2013-02-28 09:50:00,
2013-02-28 04:51:00,38.7,38.2,29.15,ENE,67,7.2,7.2,98,0.12,,,0.35,VWS V14.01,2013-02-28 09:51:00,
2013-02-28 04:52:00,38.5,38.0,29.15,NE,40,5.4,5.4,98,0.12,,,0.35,VWS V14.01,2013-02-28 09:52:00,
2013-02-28 04:53:00,38.5,38.0,29.15,SE,126,7.2,7.2,98,0.12,,,0.35,VWS V14.01,2013-02-28 09:53:00,
2013-02-28 04:54:00,38.7,38.2,29.15,East,94,4.5,4.5,98,0.12,,,0.35,VWS V14.01,2013-02-28 09:54:00,
2013-02-28 04:55:00,38.7,38.2,29.15,East,82,8.1,8.1,98,0.12,,,0.35,VWS V14.01,2013-02-28 09:55:00,
2013-02-28 04:56:00,38.7,38.2,29.15,ENE,68,12.5,12.5,98,0.12,,,0.35,VWS V14.01,2013-02-28 09:56:00,
2013-02-28 04:57:00,38.7,38.2,29.15,NE,53,6.3,6.3,98,0.12,,,0.35,VWS V14.01,2013-02-28 09:57:00,
2013-02-28 04:58:00,38.7,38.2,29.15,East,90,7.2,7.2,98,0.12,,,0.35,VWS V14.01,2013-02-28 09:58:00,
2013-02-28 04:59:00,38.7,38.2,29.15,NE,54,0.0,6.3,98,0.12,,,0.35,VWS V14.01,2013-02-28 09:59:00,
2013-02-28 05:00:00,38.7,38.2,29.15,ENE,70,9.8,9.8,98,0.12,,,0.35,VWS V14.01,2013-02-28 10:00:00,
2013-02-28 05:01:00,38.7,38.2,29.15,ENE,71,10.7,10.7,98,0.08,,,0.35,VWS V14.01,2013-02-28 10:01:00,
2013-02-28 05:02:00,38.7,38.2,29.15,ENE,76,0.0,5.4,98,0.08,,,0.35,VWS V14.01,2013-02-28 10:02:00,
2013-02-28 05:03:00,38.5,38.0,29.15,ENE,65,10.7,10.7,98,0.08,,,0.35,VWS V14.01,2013-02-28 10:03:00,
2013-02-28 05:04:00,38.5,38.0,29.15,NE,54,5.4,6.3,98,0.08,,,0.35,VWS V14.01,2013-02-28 10:04:00,
2013-02-28 05:05:00,38.5,38.0,29.15,NE,48,7.2,7.2,98,0.08,,,0.35,VWS V14.01,2013-02-28 10:05:00,
2013-02-28 05:06:00,38.5,38.0,29.15,East,98,6.3,6.3,98,0.08,,,0.35,VWS V14.01,2013-02-28 10:06:00,
2013-02-28 05:07:00,38.5,38.0,29.15,ENE,69,7.2,7.2,98,0.08,,,0.35,VWS V14.01,2013-02-28 10:07:00,
2013-02-28 05:08:00,38.7,38.2,29.15,East,94,7.2,7.2,98,0.08,,,0.35,VWS V14.01,2013-02-28 10:08:00,
2013-02-28 05:09:00,38.7,38.2,29.15,NE,44,8.1,8.1,98,0.08,,,0.35,VWS V14.01,2013-02-28 10:09:00,
2013-02-28 05:10:00,38.7,38.2,29.15,ENE,72,7.2,7.2,98,0.08,,,0.35,VWS V14.01,2013-02-28 10:10:00,
2013-02-28 05:11:00,38.7,38.2,29.15,ESE,111,8.1,8.1,98,0.08,,,0.35,VWS V14.01,2013-02-28 10:11:00,
2013-02-28 05:12:00,38.7,38.2,29.15,ENE,71,0.0,4.0,98,0.08,,,0.35,VWS V14.01,2013-02-28 10:12:00,
2013-02-28 05:13:00,38.7,38.2,29.15,East,81,0.0,0.0,98,0.08,,,0.35,VWS V14.01,2013-02-28 10:13:00,
2013-02-28 05:14:00,38.7,38.2,29.15,ENE,63,11.6,11.6,98,0.08,,,0.35,VWS V14.01,2013-02-28 10:14:00,
2013-02-28 05:15:00,38.7,38.2,29.15,ENE,61,8.1,8.1,98,0.08,,,0.35,VWS V14.01,2013-02-28 10:15:00,
2013-02-28 05:16:00,38.5,38.0,29.15,East,100,0.0,5.4,98,0.08,,,0.35,VWS V14.01,2013-02-28 10:16:00,
2013-02-28 05:17:00,38.7,38.2,29.15,ENE,76,6.3,6.3,98,0.08,,,0.35,VWS V14.01,2013-02-28 10:17:00,
2013-02-28 05:18:00,38.7,38.2,29.15,NE,56,0.0,3.6,98,0.08,,,0.35,VWS V14.01,2013-02-28 10:18:00,
2013-02-28 05:19:00,38.7,38.2,29.15,ENE,59,8.1,8.1,98,0.08,,,0.35,VWS V14.01,2013-02-28 10:19:00,
2013-02-28 05:20:00,38.7,38.2,29.15,East,86,9.8,9.8,98,0.08,,,0.35,VWS V14.01,2013-02-28 10:20:00,
2013-02-28 05:21:00,38.7,38.2,29.15,NE,38,4.5,5.4,98,0.08,,,0.35,VWS V14.01,2013-02-28 10:21:00,
2013-02-28 05:22:00,38.7,38.2,29.15,NE,46,5.4,5.4,98,0.08,,,0.35,VWS V14.01,2013-02-28 10:22:00,
2013-02-28 05:23:00,38.7,38.2,29.15,East,86,7.2,7.2,98,0.08,,,0.35,VWS V14.01,2013-02-28 10:23:00,
2013-02-28 05:24:00,38.7,38.2,29.15,ENE,74,11.6,11.6,98,0.08,,,0.35,VWS V14.01,2013-02-28 10:24:00,
2013-02-28 05:25:00,38.7,38.2,29.15,NE,54,9.8,9.8,98,0.12,,,0.39,VWS V14.01,2013-02-28 10:25:00,
2013-02-28 05:26:00,38.7,38.2,29.15,East,86,7.2,7.2,98,0.12,,,0.39,VWS V14.01,2013-02-28 10:26:00,
2013-02-28 05:27:00,38.7,38.2,29.15,East,97,0.0,3.6,98,0.12,,,0.39,VWS V14.01,2013-02-28 10:27:00,
2013-02-28 05:28:00,38.7,38.2,29.15,NE,49,6.3,6.3,98,0.12,,,0.39,VWS V14.01,2013-02-28 10:28:00,
2013-02-28 05:29:00,38.7,38.2,29.15,East,96,6.3,6.3,98,0.12,,,0.39,VWS V14.01,2013-02-28 10:29:00,
2013-02-28 05:30:00,38.7,38.2,29.15,ESE,106,4.5,4.5,98,0.08,,,0.39,VWS V14.01,2013-02-28 10:30:00,
2013-02-28 05:31:00,38.7,38.2,29.15,East,88,7.2,7.2,98,0.08,,,0.39,VWS V14.01,2013-02-28 10:31:00,
2013-02-28 05:32:00,38.8,38.3,29.15,East,91,10.7,10.7,98,0.08,,,0.39,VWS V14.01,2013-02-28 10:32:00,
2013-02-28 05:33:00,38.8,38.3,29.15,ENE,76,10.7,10.7,98,0.08,,,0.39,VWS V14.01,2013-02-28 10:33:00,
2013-02-28 05:34:00,38.8,38.3,29.15,ENE,71,5.4,5.4,98,0.08,,,0.39,VWS V14.01,2013-02-28 10:34:00,
2013-02-28 05:35:00,38.8,38.3,29.15,SSW,198,5.4,5.4,98,0.08,,,0.39,VWS V14.01,2013-02-28 10:35:00,
2013-02-28 05:36:00,38.8,38.3,29.15,East,89,4.5,4.5,98,0.08,,,0.39,VWS V14.01,2013-02-28 10:36:00,
2013-02-28 05:37:00,38.8,38.3,29.15,ESE,117,0.0,5.4,98,0.08,,,0.39,VWS V14.01,2013-02-28 10:37:00,
2013-02-28 05:38:00,38.8,38.3,29.15,SSE,164,10.7,10.7,98,0.08,,,0.39,VWS V14.01,2013-02-28 10:38:00,
2013-02-28 05:39:00,38.8,38.3,29.15,East,87,11.6,11.6,98,0.08,,,0.39,VWS V14.01,2013-02-28 10:39:00,
2013-02-28 05:40:00,39.0,38.5,29.15,East,84,7.2,7.2,98,0.08,,,0.39,VWS V14.01,2013-02-28 10:40:00,
2013-02-28 05:41:00,39.0,38.5,29.15,East,86,8.1,8.1,98,0.08,,,0.39,VWS V14.01,2013-02-28 10:41:00,
2013-02-28 05:42:00,39.0,38.5,29.15,ESE,110,6.3,6.3,98,0.08,,,0.39,VWS V14.01,2013-02-28 10:42:00,
2013-02-28 05:43:00,39.0,38.5,29.15,ENE,78,8.1,8.1,98,0.08,,,0.39,VWS V14.01,2013-02-28 10:43:00,
2013-02-28 05:44:00,39.0,38.5,29.15,SE,138,10.7,10.7,98,0.08,,,0.39,VWS V14.01,2013-02-28 10:44:00,
2013-02-28 05:45:00,39.0,38.5,29.15,ENE,75,15.2,15.2,98,0.08,,,0.39,VWS V14.01,2013-02-28 10:45:00,
2013-02-28 05:46:00,39.2,38.7,29.15,South,178,10.7,10.7,98,0.08,,,0.39,VWS V14.01,2013-02-28 10:46:00,
2013-02-28 05:47:00,39.2,38.7,29.15,ENE,60,8.1,8.1,98,0.12,,,0.43,VWS V14.01,2013-02-28 10:47:00,
2013-02-28 05:48:00,39.2,38.7,29.15,ENE,70,6.3,6.3,98,0.12,,,0.43,VWS V14.01,2013-02-28 10:48:00,
2013-02-28 05:49:00,39.2,38.7,29.15,East,88,8.1,8.1,98,0.12,,,0.43,VWS V14.01,2013-02-28 10:49:00,
2013-02-28 05:50:00,39.2,38.7,29.15,ESE,109,6.3,6.3,98,0.12,,,0.43,VWS V14.01,2013-02-28 10:50:00,
2013-02-28 05:51:00,39.4,38.9,29.15,East,85,8.1,8.1,98,0.08,,,0.43,VWS V14.01,2013-02-28 10:51:00,
2013-02-28 05:52:00,39.4,38.9,29.15,ENE,75,6.3,6.3,98,0.08,,,0.43,VWS V14.01,2013-02-28 10:52:00,
2013-02-28 05:53:00,39.4,38.9,29.15,ESE,103,8.1,8.1,98,0.08,,,0.43,VWS V14.01,2013-02-28 10:53:00,
2013-02-28 05:54:00,39.2,38.7,29.15,SE,141,8.1,8.1,98,0.08,,,0.43,VWS V14.01,2013-02-28 10:54:00,
2013-02-28 05:55:00,39.2,38.7,29.15,ENE,67,0.0,4.0,98,0.08,,,0.43,VWS V14.01,2013-02-28 10:55:00,
2013-02-28 05:56:00,39.2,38.7,29.15,East,79,7.2,7.2,98,0.08,,,0.43,VWS V14.01,2013-02-28 10:56:00,
2013-02-28 05:57:00,39.2,38.7,29.15,ENE,62,10.7,10.7,98,0.08,,,0.43,VWS V14.01,2013-02-28 10:57:00,
2013-02-28 05:58:00,39.2,38.7,29.15,ENE,68,9.8,9.8,98,0.08,,,0.43,VWS V14.01,2013-02-28 10:58:00,
2013-02-28 05:59:00,39.2,38.7,29.15,ENE,57,6.3,6.3,98,0.08,,,0.43,VWS V14.01,2013-02-28 10:59:00,
2013-02-28 06:00:00,39.2,38.7,29.15,ENE,60,7.2,7.2,98,0.08,,,0.43,VWS V14.01,2013-02-28 11:00:00,
2013-02-28 06:01:00,39.2,38.7,29.15,South,174,12.5,12.5,98,0.08,,,0.43,VWS V14.01,2013-02-28 11:01:00,
2013-02-28 06:02:00,39.2,38.7,29.15,ESE,112,8.1,8.1,98,0.08,,,0.43,VWS V14.01,2013-02-28 11:02:00,
2013-02-28 06:03:00,39.2,38.7,29.15,ESE,103,5.4,5.4,98,0.08,,,0.43,VWS V14.01,2013-02-28 11:03:00,
2013-02-28 06:04:00,39.2,38.7,29.15,ESE,104,0.0,2.7,98,0.08,,,0.43,VWS V14.01,2013-02-28 11:04:00,
2013-02-28 06:05:00,39.2,38.7,29.15,ENE,72,7.2,7.2,98,0.08,,,0.43,VWS V14.01,2013-02-28 11:05:00,
2013-02-28 06:06:00,39.2,38.7,29.15,ENE,62,10.7,10.7,98,0.08,,,0.43,VWS V14.01,2013-02-28 11:06:00,
2013-02-28 06:07:00,39.2,38.7,29.15,East,97,10.7,10.7,98,0.08,,,0.43,VWS V14.01,2013-02-28 11:07:00,
2013-02-28 06:08:00,39.2,38.7,29.15,East,82,7.2,7.2,98,0.08,,,0.43,VWS V14.01,2013-02-28 11:08:00,
2013-02-28 06:09:00,39.2,38.7,29.15,East,100,5.4,5.4,98,0.08,,,0.43,VWS V14.01,2013-02-28 11:09:00,
2013-02-28 06:10:00,39.2,38.7,29.15,ENE,69,8.1,8.1,98,0.08,,,0.43,VWS V14.01,2013-02-28 11:10:00,
2013-02-28 06:11:00,39.2,38.7,29.15,ENE,70,9.8,9.8,98,0.08,,,0.43,VWS V14.01,2013-02-28 11:11:00,
2013-02-28 06:12:00,39.2,38.7,29.15,East,82,5.4,5.4,98,0.08,,,0.43,VWS V14.01,2013-02-28 11:12:00,
2013-02-28 06:13:00,39.2,38.7,29.15,NNE,31,11.6,11.6,98,0.08,,,0.43,VWS V14.01,2013-02-28 11:13:00,
2013-02-28 06:14:00,39.2,38.7,29.15,ESE,106,7.2,7.2,98,0.08,,,0.43,VWS V14.01,2013-02-28 11:14:00,
2013-02-28 06:15:00,39.2,38.7,29.15,East,94,5.4,5.4,98,0.08,,,0.43,VWS V14.01,2013-02-28 11:15:00,
2013-02-28 06:16:00,39.2,38.7,29.15,ENE,61,8.1,8.1,98,0.08,,,0.43,VWS V14.01,2013-02-28 11:16:00,
2013-02-28 06:17:00,39.2,38.7,29.15,SE,132,5.4,5.4,98,0.08,,,0.43,VWS V14.01,2013-02-28 11:17:00,
2013-02-28 06:18:00,39.2,38.7,29.15,East,87,0.0,2.7,98,0.08,,,0.43,VWS V14.01,2013-02-28 11:18:00,
2013-02-28 06:19:00,39.2,38.7,29.15,East,84,6.3,6.3,98,0.08,,,0.43,VWS V14.01,2013-02-28 11:19:00,
2013-02-28 06:20:00,39.0,38.5,29.15,East,83,7.2,7.2,98,0.08,,,0.43,VWS V14.01,2013-02-28 11:20:00,
2013-02-28 06:21:00,39.2,38.7,29.15,East,90,5.4,5.4,98,0.08,,,0.43,VWS V14.01,2013-02-28 11:21:00,
2013-02-28 06:22:00,39.2,38.7,29.15,East,84,0.0,3.1,98,0.08,,,0.43,VWS V14.01,2013-02-28 11:22:00,
2013-02-28 06:23:00,39.0,38.5,29.15,NE,35,6.3,6.3,98,0.08,,,0.43,VWS V14.01,2013-02-28 11:23:00,
2013-02-28 06:24:00,39.0,38.5,29.15,ESE,112,6.3,6.3,98,0.08,,,0.43,VWS V14.01,2013-02-28 11:24:00,
2013-02-28 06:25:00,38.8,38.3,29.15,ENE,64,0.0,0.0,98,0.04,,,0.43,VWS V14.01,2013-02-28 11:25:00,
2013-02-28 06:26:00,38.8,38.3,29.15,ENE,57,6.3,6.3,98,0.04,,,0.43,VWS V14.01,2013-02-28 11:26:00,
2013-02-28 06:27:00,39.0,38.5,29.15,East,82,5.4,5.4,98,0.04,,,0.43,VWS V14.01,2013-02-28 11:27:00,
2013-02-28 06:28:00,39.0,38.5,29.15,ENE,71,0.0,3.1,98,0.04,,,0.43,VWS V14.01,2013-02-28 11:28:00,
2013-02-28 06:29:00,39.0,38.5,29.15,ENE,64,4.5,4.5,98,0.04,,,0.43,VWS V14.01,2013-02-28 11:29:00,
2013-02-28 06:30:00,39.0,38.5,29.15,East,97,5.4,5.4,98,0.04,,,0.43,VWS V14.01,2013-02-28 11:30:00,
2013-02-28 06:31:00,39.0,38.5,29.15,East,84,9.8,9.8,98,0.04,,,0.43,VWS V14.01,2013-02-28 11:31:00,
2013-02-28 06:32:00,39.0,38.5,29.15,East,91,5.4,5.4,98,0.04,,,0.43,VWS V14.01,2013-02-28 11:32:00,
2013-02-28 06:33:00,39.0,38.5,29.15,East,85,0.0,2.7,98,0.04,,,0.43,VWS V14.01,2013-02-28 11:33:00,
2013-02-28 06:34:00,39.0,38.5,29.15,NE,53,5.4,5.4,98,0.04,,,0.43,VWS V14.01,2013-02-28 11:34:00,
2013-02-28 06:35:00,38.8,38.3,29.15,ESE,113,0.0,3.1,98,0.04,,,0.43,VWS V14.01,2013-02-28 11:35:00,
2013-02-28 06:36:00,38.8,38.3,29.15,East,90,0.0,3.1,98,0.04,,,0.43,VWS V14.01,2013-02-28 11:36:00,
2013-02-28 06:37:00,38.8,38.3,29.15,NE,45,0.0,3.6,98,0.04,,,0.43,VWS V14.01,2013-02-28 11:37:00,
2013-02-28 06:38:00,38.8,38.3,29.15,ESE,121,0.0,0.0,98,0.08,,,0.47,VWS V14.01,2013-02-28 11:38:00,
2013-02-28 06:39:00,38.8,38.3,29.15,East,79,0.0,0.0,98,0.08,,,0.47,VWS V14.01,2013-02-28 11:39:00,
2013-02-28 06:40:00,38.8,38.3,29.15,ENE,78,8.1,8.1,98,0.08,,,0.47,VWS V14.01,2013-02-28 11:40:00,
2013-02-28 06:41:00,38.8,38.3,29.15,NE,34,8.1,8.1,98,0.08,,,0.47,VWS V14.01,2013-02-28 11:41:00,
2013-02-28 06:42:00,38.8,38.3,29.15,East,95,0.0,4.0,98,0.08,,,0.47,VWS V14.01,2013-02-28 11:42:00,
2013-02-28 06:43:00,38.8,38.3,29.15,East,88,0.0,2.2,98,0.08,,,0.47,VWS V14.01,2013-02-28 11:43:00,
2013-02-28 06:44:00,38.8,38.3,29.15,East,95,7.2,7.2,98,0.08,,,0.47,VWS V14.01,2013-02-28 11:44:00,
2013-02-28 06:45:00,38.8,38.3,29.15,ENE,68,5.4,5.4,98,0.08,,,0.47,VWS V14.01,2013-02-28 11:45:00,
2013-02-28 06:46:00,38.8,38.3,29.15,ENE,77,0.0,4.0,98,0.08,,,0.47,VWS V14.01,2013-02-28 11:46:00,
2013-02-28 06:47:00,38.8,38.3,29.15,East,97,0.0,0.0,98,0.08,,,0.47,VWS V14.01,2013-02-28 11:47:00,
2013-02-28 06:48:00,38.8,38.3,29.15,East,94,0.0,3.1,98,0.04,,,0.47,VWS V14.01,2013-02-28 11:48:00,
2013-02-28 06:49:00,39.0,38.5,29.15,East,87,0.0,0.0,98,0.04,,,0.47,VWS V14.01,2013-02-28 11:49:00,
2013-02-28 06:50:00,39.2,38.7,29.15,East,91,0.0,2.7,98,0.04,,,0.47,VWS V14.01,2013-02-28 11:50:00,
2013-02-28 06:51:00,39.2,38.7,29.15,East,82,0.0,2.7,98,0.04,,,0.47,VWS V14.01,2013-02-28 11:51:00,
2013-02-28 06:52:00,39.2,38.7,29.15,East,79,0.0,0.0,98,0.04,,,0.47,VWS V14.01,2013-02-28 11:52:00,
2013-02-28 06:53:00,39.2,38.7,29.15,NE,45,0.0,0.0,98,0.04,,,0.47,VWS V14.01,2013-02-28 11:53:00,
2013-02-28 06:54:00,39.2,38.7,29.15,East,80,0.0,3.1,98,0.04,,,0.47,VWS V14.01,2013-02-28 11:54:00,
2013-02-28 06:55:00,39.2,38.7,29.15,East,91,0.0,0.0,98,0.04,,,0.47,VWS V14.01,2013-02-28 11:55:00,
2013-02-28 06:56:00,39.2,38.7,29.15,ESE,110,7.2,7.2,98,0.04,,,0.47,VWS V14.01,2013-02-28 11:56:00,
2013-02-28 06:57:00,39.2,38.7,29.15,East,79,4.5,4.5,98,0.04,,,0.47,VWS V14.01,2013-02-28 11:57:00,
2013-02-28 06:58:00,39.2,38.7,29.15,ESE,122,0.0,2.2,98,0.04,,,0.47,VWS V14.01,2013-02-28 11:58:00,
2013-02-28 06:59:00,39.2,38.7,29.15,ENE,75,0.0,2.7,98,0.04,,,0.47,VWS V14.01,2013-02-28 11:59:00,
2013-02-28 07:00:00,39.4,38.9,29.15,East,93,5.4,5.4,98,0.04,,,0.47,VWS V14.01,2013-02-28 12:00:00,
2013-02-28 07:01:00,39.4,38.9,29.15,ENE,61,7.2,8.1,98,0.04,,,0.47,VWS V14.01,2013-02-28 12:01:00,
2013-02-28 07:02:00,39.4,38.9,29.15,East,82,0.0,3.6,98,0.04,,,0.47,VWS V14.01,2013-02-28 12:02:00,
2013-02-28 07:03:00,39.4,38.9,29.15,East,83,0.0,3.6,98,0.04,,,0.47,VWS V14.01,2013-02-28 12:03:00,
2013-02-28 07:04:00,39.4,38.9,29.15,East,82,0.0,4.0,98,0.04,,,0.47,VWS V14.01,2013-02-28 12:04:00,
2013-02-28 07:05:00,39.4,38.9,29.15,East,91,0.0,0.0,98,0.04,,,0.47,VWS V14.01,2013-02-28 12:05:00,
2013-02-28 07:06:00,39.4,38.9,29.15,ENE,74,4.5,4.5,98,0.04,,,0.47,VWS V14.01,2013-02-28 12:06:00,
2013-02-28 07:07:00,39.4,38.9,29.15,ENE,78,7.2,7.2,98,0.04,,,0.47,VWS V14.01,2013-02-28 12:07:00,
2013-02-28 07:08:00,39.4,38.9,29.15,ENE,73,0.0,3.6,98,0.04,,,0.47,VWS V14.01,2013-02-28 12:08:00,
2013-02-28 07:09:00,39.4,38.9,29.15,East,88,5.4,5.4,98,0.04,,,0.47,VWS V14.01,2013-02-28 12:09:00,
2013-02-28 07:10:00,39.4,38.9,29.15,SE,139,0.0,2.7,98,0.04,,,0.47,VWS V14.01,2013-02-28 12:10:00,
2013-02-28 07:11:00,39.4,38.9,29.15,East,100,0.0,0.0,98,0.04,,,0.47,VWS V14.01,2013-02-28 12:11:00,
2013-02-28 07:12:00,39.4,38.9,29.15,East,99,0.0,0.0,98,0.04,,,0.47,VWS V14.01,2013-02-28 12:12:00,
2013-02-28 07:13:00,39.4,38.9,29.15,SE,124,0.0,0.0,98,0.04,,,0.47,VWS V14.01,2013-02-28 12:13:00,
2013-02-28 07:14:00,39.4,38.9,29.15,ENE,68,0.0,0.0,98,0.04,,,0.47,VWS V14.01,2013-02-28 12:14:00,
2013-02-28 07:15:00,39.2,38.7,29.15,ENE,68,0.0,0.0,98,0.04,,,0.47,VWS V14.01,2013-02-28 12:15:00,
2013-02-28 07:16:00,39.2,38.7,29.15,East,97,0.0,0.0,98,0.04,,,0.47,VWS V14.01,2013-02-28 12:16:00,
2013-02-28 07:17:00,39.2,38.7,29.15,East,97,0.0,0.0,98,0.04,,,0.47,VWS V14.01,2013-02-28 12:17:00,
2013-02-28 07:18:00,39.2,38.7,29.15,East,97,0.0,0.0,98,0.04,,,0.47,VWS V14.01,2013-02-28 12:18:00,
2013-02-28 07:19:00,39.2,38.7,29.15,South,174,0.0,0.0,98,0.04,,,0.47,VWS V14.01,2013-02-28 12:19:00,
2013-02-28 07:20:00,39.2,38.7,29.15,East,101,0.0,2.7,98,0.04,,,0.47,VWS V14.01,2013-02-28 12:20:00,
2013-02-28 07:21:00,39.2,38.7,29.15,East,98,0.0,0.0,98,0.04,,,0.47,VWS V14.01,2013-02-28 12:21:00,
2013-02-28 07:22:00,39.2,38.7,29.15,ESE,103,0.0,0.0,98,0.04,,,0.47,VWS V14.01,2013-02-28 12:22:00,
2013-02-28 07:23:00,39.2,38.7,29.15,ENE,69,0.0,0.0,98,0.04,,,0.47,VWS V14.01,2013-02-28 12:23:00,
2013-02-28 07:24:00,39.2,38.7,29.15,ESE,115,5.4,5.4,98,0.04,,,0.47,VWS V14.01,2013-02-28 12:24:00,
2013-02-28 07:25:00,39.4,38.9,29.15,East,81,0.0,2.7,98,0.04,,,0.47,VWS V14.01,2013-02-28 12:25:00,
2013-02-28 07:26:00,39.4,38.9,29.15,East,81,0.0,0.0,98,0.04,,,0.47,VWS V14.01,2013-02-28 12:26:00,
2013-02-28 07:27:00,39.4,38.9,29.15,East,89,0.0,0.0,98,0.04,,,0.47,VWS V14.01,2013-02-28 12:27:00,
2013-02-28 07:28:00,39.4,38.9,29.15,ENE,65,6.3,6.3,98,0.04,,,0.47,VWS V14.01,2013-02-28 12:28:00,
2013-02-28 07:29:00,39.4,38.9,29.15,ENE,63,9.8,9.8,98,0.04,,,0.47,VWS V14.01,2013-02-28 12:29:00,
2013-02-28 07:30:00,39.4,38.9,29.15,East,81,8.1,8.1,98,0.04,,,0.47,VWS V14.01,2013-02-28 12:30:00,
2013-02-28 07:31:00,39.4,38.9,29.15,ENE,75,0.0,2.7,98,0.04,,,0.47,VWS V14.01,2013-02-28 12:31:00,
2013-02-28 07:32:00,39.4,38.9,29.15,ENE,78,0.0,2.7,98,0.04,,,0.47,VWS V14.01,2013-02-28 12:32:00,
2013-02-28 07:33:00,39.4,38.9,29.15,East,91,0.0,0.0,98,0.04,,,0.47,VWS V14.01,2013-02-28 12:33:00,
2013-02-28 07:34:00,39.4,38.9,29.15,ENE,73,5.4,5.4,98,0.04,,,0.47,VWS V14.01,2013-02-28 12:34:00,
2013-02-28 07:35:00,39.6,39.0,29.15,East,91,0.0,2.7,98,0.04,,,0.47,VWS V14.01,2013-02-28 12:35:00,
2013-02-28 07:36:00,39.4,38.9,29.15,ESE,113,0.0,0.0,98,0.04,,,0.47,VWS V14.01,2013-02-28 12:36:00,
2013-02-28 07:37:00,39.4,38.9,29.15,SE,125,0.0,0.0,98,0.04,,,0.47,VWS V14.01,2013-02-28 12:37:00,
2013-02-28 07:38:00,39.4,38.9,29.15,East,100,4.5,4.5,98,0.04,,,0.47,VWS V14.01,2013-02-28 12:38:00,
2013-02-28 07:39:00,39.4,38.9,29.15,East,86,0.0,2.2,98,0.00,,,0.47,VWS V14.01,2013-02-28 12:39:00,
2013-02-28 07:40:00,39.4,38.9,29.15,East,95,0.0,0.0,98,0.00,,,0.47,VWS V14.01,2013-02-28 12:40:00,
2013-02-28 07:41:00,39.4,38.9,29.15,ESE,105,0.0,0.0,98,0.00,,,0.47,VWS V14.01,2013-02-28 12:41:00,
2013-02-28 07:42:00,39.4,38.9,29.15,East,99,0.0,0.0,98,0.00,,,0.47,VWS V14.01,2013-02-28 12:42:00,
2013-02-28 07:43:00,39.4,38.9,29.15,SE,130,0.0,4.9,98,0.00,,,0.47,VWS V14.01,2013-02-28 12:43:00,
2013-02-28 07:44:00,39.4,38.9,29.15,SE,130,0.0,0.0,98,0.00,,,0.47,VWS V14.01,2013-02-28 12:44:00,
2013-02-28 07:45:00,39.6,39.0,29.15,SE,132,0.0,0.0,98,0.00,,,0.47,VWS V14.01,2013-02-28 12:45:00,
2013-02-28 07:46:00,39.6,39.0,29.15,East,98,0.0,0.0,98,0.00,,,0.47,VWS V14.01,2013-02-28 12:46:00,
2013-02-28 07:47:00,39.6,39.0,29.15,East,98,0.0,0.0,98,0.00,,,0.47,VWS V14.01,2013-02-28 12:47:00,
2013-02-28 07:48:00,39.6,39.0,29.15,East,98,0.0,0.0,98,0.00,,,0.47,VWS V14.01,2013-02-28 12:48:00,
2013-02-28 07:49:00,39.6,39.0,29.15,ESE,109,0.0,0.0,98,0.00,,,0.47,VWS V14.01,2013-02-28 12:49:00,
2013-02-28 07:50:00,39.6,39.0,29.15,SE,125,7.2,7.2,98,0.00,,,0.47,VWS V14.01,2013-02-28 12:50:00,
2013-02-28 07:51:00,39.7,39.2,29.15,East,95,0.0,3.6,98,0.00,,,0.47,VWS V14.01,2013-02-28 12:51:00,
2013-02-28 07:52:00,39.7,39.2,29.15,ESE,109,0.0,0.0,98,0.00,,,0.47,VWS V14.01,2013-02-28 12:52:00,
2013-02-28 07:53:00,39.7,39.2,29.15,ESE,117,0.0,0.0,98,0.00,,,0.47,VWS V14.01,2013-02-28 12:53:00,
2013-02-28 07:54:00,39.7,39.2,29.15,ESE,117,0.0,0.0,98,0.00,,,0.47,VWS V14.01,2013-02-28 12:54:00,
2013-02-28 07:55:00,39.9,39.4,29.15,ESE,117,0.0,0.0,98,0.00,,,0.47,VWS V14.01,2013-02-28 12:55:00,
2013-02-28 07:56:00,39.9,39.4,29.15,ESE,117,0.0,0.0,98,0.00,,,0.47,VWS V14.01,2013-02-28 12:56:00,
2013-02-28 07:57:00,39.7,39.2,29.15,ESE,117,0.0,0.0,98,0.00,,,0.47,VWS V14.01,2013-02-28 12:57:00,
2013-02-28 07:58:00,39.7,39.2,29.15,ESE,117,0.0,0.0,98,0.00,,,0.47,VWS V14.01,2013-02-28 12:58:00,
2013-02-28 07:59:00,39.7,39.2,29.15,SSE,157,0.0,0.0,98,0.00,,,0.47,VWS V14.01,2013-02-28 12:59:00,
2013-02-28 08:00:00,39.7,39.2,29.15,ESE,115,0.0,0.0,98,0.00,,,0.47,VWS V14.01,2013-02-28 13:00:00,
2013-02-28 08:01:00,39.7,39.2,29.15,SE,143,4.5,4.5,98,0.00,,,0.47,VWS V14.01,2013-02-28 13:01:00,
2013-02-28 08:02:00,39.9,39.4,29.15,SE,143,0.0,2.2,98,0.00,,,0.47,VWS V14.01,2013-02-28 13:02:00,
2013-02-28 08:03:00,39.9,39.4,29.15,SE,143,0.0,0.0,98,0.00,,,0.47,VWS V14.01,2013-02-28 13:03:00,
2013-02-28 08:04:00,39.9,39.4,29.15,SE,143,0.0,0.0,98,0.00,,,0.47,VWS V14.01,2013-02-28 13:04:00,
2013-02-28 08:05:00,39.9,39.4,29.15,SE,143,0.0,0.0,98,0.00,,,0.47,VWS V14.01,2013-02-28 13:05:00,
2013-02-28 08:06:00,39.7,39.2,29.15,ENE,65,0.0,0.0,98,0.00,,,0.47,VWS V14.01,2013-02-28 13:06:00,
2013-02-28 08:07:00,39.7,39.2,29.15,SE,126,0.0,0.0,98,0.00,,,0.47,VWS V14.01,2013-02-28 13:07:00,
2013-02-28 08:08:00,39.7,39.2,29.15,East,92,0.0,0.0,98,0.00,,,0.47,VWS V14.01,2013-02-28 13:08:00,
2013-02-28 08:09:00,39.7,39.2,29.15,South,183,0.0,0.0,98,0.00,,,0.47,VWS V14.01,2013-02-28 13:09:00,
2013-02-28 08:10:00,39.7,39.2,29.15,NE,34,4.5,4.5,98,0.04,,,0.51,VWS V14.01,2013-02-28 13:10:00,
2013-02-28 08:11:00,39.7,39.2,29.15,East,101,0.0,3.1,98,0.04,,,0.51,VWS V14.01,2013-02-28 13:11:00,
2013-02-28 08:12:00,39.7,39.2,29.15,ESE,107,0.0,0.0,98,0.04,,,0.51,VWS V14.01,2013-02-28 13:12:00,
2013-02-28 08:13:00,39.7,39.2,29.15,East,82,0.0,0.0,98,0.04,,,0.51,VWS V14.01,2013-02-28 13:13:00,
2013-02-28 08:14:00,39.7,39.2,29.15,East,82,0.0,0.0,98,0.04,,,0.51,VWS V14.01,2013-02-28 13:14:00,
2013-02-28 08:15:00,39.7,39.2,29.15,East,97,0.0,0.0,98,0.04,,,0.51,VWS V14.01,2013-02-28 13:15:00,
2013-02-28 08:16:00,39.7,39.2,29.15,SSE,156,0.0,0.0,98,0.04,,,0.51,VWS V14.01,2013-02-28 13:16:00,
2013-02-28 08:17:00,39.7,39.2,29.15,East,81,0.0,0.0,98,0.04,,,0.51,VWS V14.01,2013-02-28 13:17:00,
2013-02-28 08:18:00,39.7,39.2,29.15,SSW,212,0.0,0.0,98,0.04,,,0.51,VWS V14.01,2013-02-28 13:18:00,
2013-02-28 08:19:00,39.7,39.2,29.15,ENE,74,0.0,0.0,98,0.04,,,0.51,VWS V14.01,2013-02-28 13:19:00,
2013-02-28 08:20:00,39.7,39.2,29.15,ESE,102,0.0,0.0,98,0.04,,,0.51,VWS V14.01,2013-02-28 13:20:00,
2013-02-28 08:21:00,39.7,39.2,29.15,ESE,102,0.0,0.0,98,0.04,,,0.51,VWS V14.01,2013-02-28 13:21:00,
2013-02-28 08:22:00,39.6,39.0,29.15,NE,50,0.0,0.0,98,0.04,,,0.51,VWS V14.01,2013-02-28 13:22:00,
2013-02-28 08:23:00,39.6,39.0,29.15,NE,50,0.0,0.0,98,0.04,,,0.51,VWS V14.01,2013-02-28 13:23:00,
2013-02-28 08:24:00,39.6,39.0,29.15,ESE,102,0.0,0.0,98,0.04,,,0.51,VWS V14.01,2013-02-28 13:24:00,
2013-02-28 08:25:00,39.4,38.9,29.15,East,82,0.0,0.0,98,0.04,,,0.51,VWS V14.01,2013-02-28 13:25:00,
2013-02-28 08:26:00,39.4,38.9,29.15,ENE,61,0.0,0.0,98,0.04,,,0.51,VWS V14.01,2013-02-28 13:26:00,
2013-02-28 08:27:00,39.4,38.9,29.15,South,179,0.0,0.0,98,0.04,,,0.51,VWS V14.01,2013-02-28 13:27:00,
2013-02-28 08:28:00,39.4,38.9,29.15,ESE,103,0.0,0.0,98,0.04,,,0.51,VWS V14.01,2013-02-28 13:28:00,
2013-02-28 08:29:00,39.4,38.9,29.15,SE,136,0.0,0.0,98,0.04,,,0.51,VWS V14.01,2013-02-28 13:29:00,
2013-02-28 08:30:00,39.4,38.9,29.15,East,93,0.0,0.0,98,0.04,,,0.51,VWS V14.01,2013-02-28 13:30:00,
2013-02-28 08:31:00,39.4,38.9,29.15,East,93,0.0,0.0,98,0.04,,,0.51,VWS V14.01,2013-02-28 13:31:00,
2013-02-28 08:32:00,39.4,38.9,29.15,ESE,116,0.0,0.0,98,0.04,,,0.51,VWS V14.01,2013-02-28 13:32:00,
2013-02-28 08:33:00,39.4,38.9,29.15,ESE,116,0.0,0.0,98,0.04,,,0.51,VWS V14.01,2013-02-28 13:33:00,
2013-02-28 08:34:00,39.4,38.9,29.15,ESE,114,0.0,0.0,98,0.04,,,0.51,VWS V14.01,2013-02-28 13:34:00,
2013-02-28 08:35:00,39.4,38.9,29.15,ESE,114,0.0,0.0,98,0.04,,,0.51,VWS V14.01,2013-02-28 13:35:00,
2013-02-28 08:36:00,39.4,38.9,29.15,ENE,65,0.0,3.6,98,0.04,,,0.51,VWS V14.01,2013-02-28 13:36:00,
2013-02-28 08:37:00,39.4,38.9,29.15,ENE,63,0.0,0.0,98,0.04,,,0.51,VWS V14.01,2013-02-28 13:37:00,
2013-02-28 08:38:00,39.4,38.9,29.15,ENE,63,0.0,0.0,98,0.04,,,0.51,VWS V14.01,2013-02-28 13:38:00,
2013-02-28 08:39:00,39.4,38.9,29.15,South,175,0.0,0.0,98,0.04,,,0.51,VWS V14.01,2013-02-28 13:39:00,
2013-02-28 08:40:00,39.4,38.9,29.15,ESE,103,0.0,0.0,98,0.04,,,0.51,VWS V14.01,2013-02-28 13:40:00,
2013-02-28 08:41:00,39.4,38.9,29.15,East,83,0.0,0.0,98,0.04,,,0.51,VWS V14.01,2013-02-28 13:41:00,
2013-02-28 08:42:00,39.4,38.9,29.15,East,100,0.0,0.0,98,0.04,,,0.51,VWS V14.01,2013-02-28 13:42:00,
2013-02-28 08:43:00,39.4,38.9,29.15,ESE,103,0.0,0.0,98,0.04,,,0.51,VWS V14.01,2013-02-28 13:43:00,
2013-02-28 08:44:00,39.4,38.9,29.15,ESE,103,0.0,0.0,98,0.04,,,0.51,VWS V14.01,2013-02-28 13:44:00,
2013-02-28 08:45:00,39.4,38.9,29.15,East,93,0.0,0.0,98,0.04,,,0.51,VWS V14.01,2013-02-28 13:45:00,
2013-02-28 08:46:00,39.4,38.9,29.15,East,84,0.0,0.0,98,0.04,,,0.51,VWS V14.01,2013-02-28 13:46:00,
2013-02-28 08:47:00,39.6,39.0,29.15,ESE,110,0.0,0.0,98,0.04,,,0.51,VWS V14.01,2013-02-28 13:47:00,
2013-02-28 08:48:00,39.6,39.0,29.15,East,84,0.0,0.0,98,0.04,,,0.51,VWS V14.01,2013-02-28 13:48:00,
2013-02-28 08:49:00,39.6,39.0,29.15,East,87,0.0,0.0,98,0.04,,,0.51,VWS V14.01,2013-02-28 13:49:00,
2013-02-28 08:50:00,39.4,38.9,29.15,East,87,0.0,0.0,98,0.04,,,0.51,VWS V14.01,2013-02-28 13:50:00,
2013-02-28 08:51:00,39.4,38.9,29.15,East,84,0.0,0.0,98,0.04,,,0.51,VWS V14.01,2013-02-28 13:51:00,
2013-02-28 08:52:00,39.4,38.9,29.15,East,84,0.0,0.0,98,0.04,,,0.51,VWS V14.01,2013-02-28 13:52:00,
2013-02-28 08:53:00,39.4,38.9,29.15,East,84,0.0,0.0,98,0.04,,,0.51,VWS V14.01,2013-02-28 13:53:00,
2013-02-28 08:54:00,39.4,38.9,29.15,East,84,0.0,0.0,98,0.04,,,0.51,VWS V14.01,2013-02-28 13:54:00,
2013-02-28 08:55:00,39.4,38.9,29.15,East,84,0.0,0.0,98,0.04,,,0.51,VWS V14.01,2013-02-28 13:55:00,
2013-02-28 08:56:00,39.4,38.9,29.15,East,96,0.0,0.0,98,0.04,,,0.51,VWS V14.01,2013-02-28 13:56:00,
2013-02-28 08:57:00,39.4,38.9,29.15,ESE,119,0.0,0.0,98,0.04,,,0.51,VWS V14.01,2013-02-28 13:57:00,
2013-02-28 08:58:00,39.4,38.9,29.15,ESE,119,0.0,0.0,98,0.04,,,0.51,VWS V14.01,2013-02-28 13:58:00,
2013-02-28 08:59:00,39.4,38.9,29.15,ESE,119,0.0,0.0,98,0.04,,,0.51,VWS V14.01,2013-02-28 13:59:00,
2013-02-28 09:00:00,39.4,38.9,29.15,ESE,119,0.0,0.0,98,0.04,,,0.51,VWS V14.01,2013-02-28 14:00:00,
2013-02-28 09:01:00,39.4,38.9,29.15,ESE,119,0.0,0.0,98,0.04,,,0.51,VWS V14.01,2013-02-28 14:01:00,
2013-02-28 09:02:00,39.4,38.9,29.15,ESE,119,0.0,0.0,98,0.04,,,0.51,VWS V14.01,2013-02-28 14:02:00,
2013-02-28 09:03:00,39.4,38.9,29.15,NE,56,0.0,0.0,98,0.04,,,0.51,VWS V14.01,2013-02-28 14:03:00,
2013-02-28 09:04:00,39.4,38.9,29.15,NE,56,0.0,0.0,98,0.04,,,0.51,VWS V14.01,2013-02-28 14:04:00,
2013-02-28 09:05:00,39.4,38.9,29.15,East,89,0.0,0.0,98,0.04,,,0.51,VWS V14.01,2013-02-28 14:05:00,
2013-02-28 09:06:00,39.4,38.9,29.15,East,89,0.0,0.0,98,0.04,,,0.51,VWS V14.01,2013-02-28 14:06:00,
2013-02-28 09:07:00,39.4,38.9,29.15,East,85,0.0,0.0,98,0.04,,,0.51,VWS V14.01,2013-02-28 14:07:00,
2013-02-28 09:08:00,39.4,38.9,29.15,East,85,0.0,0.0,98,0.04,,,0.51,VWS V14.01,2013-02-28 14:08:00,
2013-02-28 09:09:00,39.4,38.9,29.15,East,85,0.0,0.0,98,0.04,,,0.51,VWS V14.01,2013-02-28 14:09:00,
2013-02-28 09:10:00,39.6,39.0,29.15,East,85,0.0,0.0,98,0.04,,,0.51,VWS V14.01,2013-02-28 14:10:00,
2013-02-28 09:11:00,39.6,39.0,29.15,East,85,0.0,0.0,98,0.00,,,0.51,VWS V14.01,2013-02-28 14:11:00,
2013-02-28 09:12:00,39.7,39.2,29.15,East,85,0.0,0.0,98,0.00,,,0.51,VWS V14.01,2013-02-28 14:12:00,
2013-02-28 09:13:00,39.7,39.2,29.15,East,85,0.0,0.0,98,0.00,,,0.51,VWS V14.01,2013-02-28 14:13:00,
2013-02-28 09:14:00,39.7,39.2,29.15,East,85,0.0,0.0,98,0.00,,,0.51,VWS V14.01,2013-02-28 14:14:00,
2013-02-28 09:15:00,39.7,39.2,29.15,East,85,0.0,0.0,98,0.00,,,0.51,VWS V14.01,2013-02-28 14:15:00,
2013-02-28 09:16:00,39.7,39.2,29.15,ESE,109,0.0,0.0,98,0.00,,,0.51,VWS V14.01,2013-02-28 14:16:00,
2013-02-28 09:17:00,39.7,39.2,29.15,ESE,109,0.0,0.0,98,0.00,,,0.51,VWS V14.01,2013-02-28 14:17:00,
2013-02-28 09:18:00,39.7,39.2,29.15,ESE,109,0.0,0.0,98,0.00,,,0.51,VWS V14.01,2013-02-28 14:18:00,
2013-02-28 09:19:00,39.7,39.2,29.15,ESE,109,0.0,0.0,98,0.00,,,0.51,VWS V14.01,2013-02-28 14:19:00,
2013-02-28 09:20:00,39.7,39.2,29.15,ESE,109,0.0,0.0,98,0.00,,,0.51,VWS V14.01,2013-02-28 14:20:00,
2013-02-28 09:21:00,39.7,39.2,29.15,ESE,109,0.0,0.0,98,0.00,,,0.51,VWS V14.01,2013-02-28 14:21:00,
2013-02-28 09:22:00,39.7,39.2,29.15,East,83,0.0,0.0,98,0.00,,,0.51,VWS V14.01,2013-02-28 14:22:00,
2013-02-28 09:23:00,39.6,39.0,29.15,East,89,0.0,0.0,98,0.00,,,0.51,VWS V14.01,2013-02-28 14:23:00,
2013-02-28 09:24:00,39.6,39.0,29.15,NE,50,0.0,0.0,98,0.00,,,0.51,VWS V14.01,2013-02-28 14:24:00,
2013-02-28 09:25:00,39.7,39.2,29.15,NE,50,0.0,0.0,98,0.00,,,0.51,VWS V14.01,2013-02-28 14:25:00,
2013-02-28 09:26:00,39.7,39.2,29.15,NE,50,0.0,0.0,98,0.00,,,0.51,VWS V14.01,2013-02-28 14:26:00,
2013-02-28 09:27:00,39.7,39.2,29.15,East,92,0.0,0.0,98,0.00,,,0.51,VWS V14.01,2013-02-28 14:27:00,
2013-02-28 09:28:00,39.9,39.4,29.15,ESE,108,0.0,4.0,98,0.00,,,0.51,VWS V14.01,2013-02-28 14:28:00,
2013-02-28 09:29:00,39.9,39.4,29.15,ESE,108,0.0,0.0,98,0.00,,,0.51,VWS V14.01,2013-02-28 14:29:00,
2013-02-28 09:30:00,39.9,39.4,29.15,East,89,0.0,0.0,98,0.00,,,0.51,VWS V14.01,2013-02-28 14:30:00,
2013-02-28 09:31:00,39.9,39.4,29.15,East,87,0.0,0.0,98,0.00,,,0.51,VWS V14.01,2013-02-28 14:31:00,
2013-02-28 09:32:00,39.9,39.4,29.15,East,80,0.0,0.0,98,0.00,,,0.51,VWS V14.01,2013-02-28 14:32:00,
2013-02-28 09:33:00,39.9,39.4,29.15,East,97,0.0,0.0,98,0.00,,,0.51,VWS V14.01,2013-02-28 14:33:00,
2013-02-28 09:34:00,39.9,39.4,29.15,ESE,104,0.0,0.0,98,0.00,,,0.51,VWS V14.01,2013-02-28 14:34:00,
2013-02-28 09:35:00,39.9,39.4,29.15,ENE,71,0.0,0.0,98,0.00,,,0.51,VWS V14.01,2013-02-28 14:35:00,
2013-02-28 09:36:00,39.9,39.4,29.15,ENE,71,0.0,0.0,98,0.00,,,0.51,VWS V14.01,2013-02-28 14:36:00,
2013-02-28 09:37:00,39.9,39.4,29.15,East,95,0.0,2.2,98,0.00,,,0.51,VWS V14.01,2013-02-28 14:37:00,
2013-02-28 09:38:00,39.9,39.4,29.15,East,95,0.0,0.0,98,0.00,,,0.51,VWS V14.01,2013-02-28 14:38:00,
2013-02-28 09:39:00,39.9,39.4,29.15,East,95,0.0,0.0,98,0.00,,,0.51,VWS V14.01,2013-02-28 14:39:00,
2013-02-28 09:40:00,39.9,39.4,29.15,East,95,0.0,0.0,98,0.00,,,0.51,VWS V14.01,2013-02-28 14:40:00,
2013-02-28 09:41:00,39.9,39.4,29.15,East,98,0.0,0.0,98,0.00,,,0.51,VWS V14.01,2013-02-28 14:41:00,
2013-02-28 09:42:00,39.9,39.4,29.15,East,97,0.0,0.0,98,0.00,,,0.51,VWS V14.01,2013-02-28 14:42:00,
2013-02-28 09:43:00,39.9,39.4,29.15,ENE,68,0.0,0.0,98,0.00,,,0.51,VWS V14.01,2013-02-28 14:43:00,
2013-02-28 09:44:00,39.9,39.4,29.15,ENE,71,0.0,0.0,98,0.00,,,0.51,VWS V14.01,2013-02-28 14:44:00,
2013-02-28 09:45:00,39.9,39.4,29.15,ENE,77,0.0,0.0,98,0.00,,,0.51,VWS V14.01,2013-02-28 14:45:00,
2013-02-28 09:46:00,40.1,39.6,29.15,ENE,77,0.0,0.0,98,0.00,,,0.51,VWS V14.01,2013-02-28 14:46:00,
2013-02-28 09:47:00,40.1,39.6,29.15,ENE,77,0.0,0.0,98,0.00,,,0.51,VWS V14.01,2013-02-28 14:47:00,
2013-02-28 09:48:00,40.1,39.6,29.15,ESE,108,0.0,0.0,98,0.00,,,0.51,VWS V14.01,2013-02-28 14:48:00,
2013-02-28 09:49:00,40.3,39.8,29.15,ESE,107,0.0,0.0,98,0.00,,,0.51,VWS V14.01,2013-02-28 14:49:00,
2013-02-28 09:50:00,40.3,39.8,29.15,ENE,68,0.0,0.0,98,0.00,,,0.51,VWS V14.01,2013-02-28 14:50:00,
2013-02-28 09:51:00,40.3,39.8,29.15,ENE,68,0.0,0.0,98,0.00,,,0.51,VWS V14.01,2013-02-28 14:51:00,
2013-02-28 09:52:00,40.3,39.8,29.15,East,89,0.0,0.0,98,0.00,,,0.51,VWS V14.01,2013-02-28 14:52:00,
2013-02-28 09:53:00,40.5,39.9,29.15,East,89,0.0,0.0,98,0.00,,,0.51,VWS V14.01,2013-02-28 14:53:00,
2013-02-28 09:54:00,40.5,39.9,29.15,ENE,72,0.0,0.0,98,0.00,,,0.51,VWS V14.01,2013-02-28 14:54:00,
2013-02-28 09:55:00,40.5,39.9,29.15,ESE,112,0.0,0.0,98,0.00,,,0.51,VWS V14.01,2013-02-28 14:55:00,
2013-02-28 09:56:00,40.5,39.9,29.15,ESE,112,0.0,0.0,98,0.00,,,0.51,VWS V14.01,2013-02-28 14:56:00,
2013-02-28 09:57:00,40.5,39.9,29.15,East,101,0.0,0.0,98,0.00,,,0.51,VWS V14.01,2013-02-28 14:57:00,
2013-02-28 09:58:00,40.3,39.8,29.15,ENE,75,0.0,0.0,98,0.00,,,0.51,VWS V14.01,2013-02-28 14:58:00,
2013-02-28 09:59:00,40.3,39.8,29.15,East,86,0.0,0.0,98,0.00,,,0.51,VWS V14.01,2013-02-28 14:59:00,
2013-02-28 10:00:00,40.3,39.8,29.15,East,86,0.0,0.0,98,0.00,,,0.51,VWS V14.01,2013-02-28 15:00:00,
2013-02-28 10:01:00,40.3,39.8,29.15,East,86,0.0,0.0,98,0.00,,,0.51,VWS V14.01,2013-02-28 15:01:00,
2013-02-28 10:02:00,40.3,39.8,29.15,ENE,77,0.0,0.0,98,0.00,,,0.51,VWS V14.01,2013-02-28 15:02:00,
2013-02-28 10:03:00,40.3,39.8,29.15,East,88,0.0,0.0,98,0.00,,,0.51,VWS V14.01,2013-02-28 15:03:00,
2013-02-28 10:04:00,40.1,39.6,29.15,East,88,0.0,0.0,98,0.00,,OVC004,0.51,VWS V14.01,2013-02-28 15:04:00,
2013-02-28 10:05:00,40.1,39.6,29.15,East,88,0.0,0.0,98,0.00,,,0.51,VWS V14.01,2013-02-28 15:05:00,
2013-02-28 10:06:00,40.1,39.6,29.15,East,90,0.0,0.0,98,0.00,,,0.51,VWS V14.01,2013-02-28 15:06:00,
2013-02-28 10:07:00,40.3,39.8,29.15,East,90,0.0,0.0,98,0.00,,,0.51,VWS V14.01,2013-02-28 15:07:00,
2013-02-28 10:08:00,40.3,39.8,29.15,East,90,0.0,0.0,98,0.00,,,0.51,VWS V14.01,2013-02-28 15:08:00,
2013-02-28 10:09:00,40.3,39.8,29.15,ESE,112,4.5,4.5,98,0.00,,OVC004,0.51,VWS V14.01,2013-02-28 15:09:00,
2013-02-28 10:10:00,40.3,39.8,29.15,ESE,112,0.0,2.2,98,0.00,,,0.51,VWS V14.01,2013-02-28 15:10:00,
2013-02-28 10:11:00,40.3,39.8,29.15,ESE,107,0.0,0.0,98,0.00,,,0.51,VWS V14.01,2013-02-28 15:11:00,
2013-02-28 10:12:00,40.3,39.8,29.15,East,81,5.4,5.4,98,0.00,,,0.51,VWS V14.01,2013-02-28 15:12:00,
2013-02-28 10:13:00,40.5,39.9,29.15,East,80,4.5,4.5,98,0.00,,,0.51,VWS V14.01,2013-02-28 15:13:00,
2013-02-28 10:14:00,40.5,39.9,29.15,ESE,109,0.0,2.2,98,0.00,,,0.51,VWS V14.01,2013-02-28 15:14:00,
2013-02-28 10:15:00,40.5,39.9,29.15,ESE,109,0.0,0.0,98,0.00,,OVC004,0.51,VWS V14.01,2013-02-28 15:15:00,
2013-02-28 10:16:00,40.5,39.9,29.15,East,93,6.3,6.3,98,0.00,,,0.51,VWS V14.01,2013-02-28 15:16:00,
2013-02-28 10:17:00,40.5,39.9,29.15,East,93,4.5,4.5,98,0.00,,,0.51,VWS V14.01,2013-02-28 15:17:00,
2013-02-28 10:18:00,40.6,40.1,29.15,East,88,5.4,5.4,98,0.00,,,0.51,VWS V14.01,2013-02-28 15:18:00,
2013-02-28 10:19:00,40.6,40.1,29.15,East,87,0.0,2.7,98,0.00,,,0.51,VWS V14.01,2013-02-28 15:19:00,
2013-02-28 10:20:00,40.6,40.1,29.15,East,89,0.0,0.0,98,0.00,,OVC004,0.51,VWS V14.01,2013-02-28 15:20:00,
2013-02-28 10:21:00,40.5,39.9,29.15,East,84,0.0,0.0,98,0.00,,,0.51,VWS V14.01,2013-02-28 15:21:00,
2013-02-28 10:22:00,40.5,39.9,29.15,East,79,0.0,0.0,98,0.00,,,0.51,VWS V14.01,2013-02-28 15:22:00,
2013-02-28 10:23:00,40.5,39.9,29.15,East,96,6.3,6.3,98,0.00,,,0.51,VWS V14.01,2013-02-28 15:23:00,
2013-02-28 10:24:00,40.5,39.9,29.15,East,96,0.0,3.1,98,0.00,,,0.51,VWS V14.01,2013-02-28 15:24:00,
2013-02-28 10:25:00,40.6,40.1,29.15,East,86,5.4,5.4,98,0.00,,OVC004,0.51,VWS V14.01,2013-02-28 15:25:00,
2013-02-28 10:26:00,40.6,40.1,29.15,East,86,4.5,4.5,98,0.00,,,0.51,VWS V14.01,2013-02-28 15:26:00,
2013-02-28 10:27:00,40.6,40.1,29.15,East,100,0.0,2.7,98,0.00,,,0.51,VWS V14.01,2013-02-28 15:27:00,
2013-02-28 10:28:00,40.8,40.3,29.15,ENE,78,0.0,0.0,98,0.00,,,0.51,VWS V14.01,2013-02-28 15:28:00,
2013-02-28 10:29:00,40.8,40.3,29.15,East,99,7.2,7.2,98,0.00,,,0.51,VWS V14.01,2013-02-28 15:29:00,
2013-02-28 10:30:00,40.8,40.3,29.15,ENE,67,8.1,8.1,98,0.00,,OVC004,0.51,VWS V14.01,2013-02-28 15:30:00,
2013-02-28 10:31:00,40.8,40.3,29.15,East,85,0.0,4.0,98,0.00,,,0.51,VWS V14.01,2013-02-28 15:31:00,
2013-02-28 10:32:00,40.6,40.1,29.15,East,85,0.0,0.0,98,0.00,,,0.51,VWS V14.01,2013-02-28 15:32:00,
2013-02-28 10:33:00,40.6,40.1,29.12,East,81,0.0,0.0,98,0.00,,,0.51,VWS V14.01,2013-02-28 15:33:00,
2013-02-28 10:34:00,40.6,40.1,29.12,NNE,26,8.1,8.1,98,0.00,,,0.51,VWS V14.01,2013-02-28 15:34:00,
2013-02-28 10:35:00,40.5,39.9,29.12,SE,139,5.4,5.4,98,0.00,,OVC004,0.51,VWS V14.01,2013-02-28 15:35:00,
2013-02-28 10:36:00,40.5,39.9,29.12,ENE,75,0.0,2.7,98,0.00,,,0.51,VWS V14.01,2013-02-28 15:36:00,
2013-02-28 10:37:00,40.5,39.9,29.12,East,86,0.0,0.0,98,0.00,,,0.51,VWS V14.01,2013-02-28 15:37:00,
2013-02-28 10:38:00,40.5,39.9,29.12,East,87,0.0,0.0,98,0.00,,,0.51,VWS V14.01,2013-02-28 15:38:00,
2013-02-28 10:39:00,40.6,40.1,29.12,NE,55,0.0,0.0,98,0.00,,,0.51,VWS V14.01,2013-02-28 15:39:00,
2013-02-28 10:40:00,40.6,40.1,29.12,East,81,0.0,0.0,98,0.00,,OVC004,0.51,VWS V14.01,2013-02-28 15:40:00,
2013-02-28 10:41:00,40.6,40.1,29.12,East,81,0.0,0.0,98,0.00,,,0.51,VWS V14.01,2013-02-28 15:41:00,
2013-02-28 10:42:00,40.6,40.1,29.12,East,81,0.0,0.0,98,0.00,,,0.51,VWS V14.01,2013-02-28 15:42:00,
2013-02-28 10:43:00,40.6,40.1,29.12,SE,129,0.0,0.0,98,0.00,,,0.51,VWS V14.01,2013-02-28 15:43:00,
2013-02-28 10:44:00,40.6,40.1,29.12,East,93,0.0,2.7,98,0.00,,,0.51,VWS V14.01,2013-02-28 15:44:00,
2013-02-28 10:45:00,40.6,40.1,29.12,East,93,0.0,0.0,98,0.00,,OVC004,0.51,VWS V14.01,2013-02-28 15:45:00,
2013-02-28 10:46:00,40.8,40.3,29.12,North,349,0.0,0.0,98,0.00,,,0.51,VWS V14.01,2013-02-28 15:46:00,
2013-02-28 10:47:00,40.8,40.3,29.12,East,91,0.0,0.0,98,0.00,,,0.51,VWS V14.01,2013-02-28 15:47:00,
2013-02-28 10:48:00,40.8,40.3,29.12,ENE,67,8.1,8.1,98,0.00,,,0.51,VWS V14.01,2013-02-28 15:48:00,
2013-02-28 10:49:00,40.8,40.3,29.12,ENE,67,0.0,4.0,98,0.00,,,0.51,VWS V14.01,2013-02-28 15:49:00,
2013-02-28 10:50:00,40.8,40.3,29.12,East,98,0.0,0.0,98,0.00,,OVC004,0.51,VWS V14.01,2013-02-28 15:50:00,
2013-02-28 10:51:00,40.8,40.3,29.12,East,98,0.0,0.0,98,0.00,,,0.51,VWS V14.01,2013-02-28 15:51:00,
2013-02-28 10:52:00,40.8,40.3,29.12,East,98,0.0,0.0,98,0.00,,,0.51,VWS V14.01,2013-02-28 15:52:00,
2013-02-28 10:53:00,40.8,40.3,29.12,ENE,62,0.0,0.0,98,0.00,,,0.51,VWS V14.01,2013-02-28 15:53:00,
2013-02-28 10:54:00,40.8,40.3,29.12,ENE,59,0.0,0.0,98,0.00,,,0.51,VWS V14.01,2013-02-28 15:54:00,
2013-02-28 10:55:00,40.8,40.3,29.12,NE,38,0.0,0.0,98,0.00,,OVC004,0.51,VWS V14.01,2013-02-28 15:55:00,
2013-02-28 10:56:00,40.8,40.3,29.12,East,88,0.0,0.0,98,0.00,,,0.51,VWS V14.01,2013-02-28 15:56:00,
2013-02-28 10:57:00,40.8,40.3,29.12,ESE,120,0.0,0.0,98,0.00,,,0.51,VWS V14.01,2013-02-28 15:57:00,
2013-02-28 10:58:00,40.8,40.3,29.12,ESE,103,6.3,6.3,98,0.00,,,0.51,VWS V14.01,2013-02-28 15:58:00,
2013-02-28 10:59:00,40.8,40.3,29.12,SE,145,0.0,4.0,98,0.00,,,0.51,VWS V14.01,2013-02-28 15:59:00,
2013-02-28 11:00:00,41.0,40.5,29.12,SE,145,0.0,0.0,98,0.00,,OVC004,0.51,VWS V14.01,2013-02-28 16:00:00,
2013-02-28 11:01:00,41.0,40.5,29.12,SE,145,0.0,0.0,98,0.00,,,0.51,VWS V14.01,2013-02-28 16:01:00,
2013-02-28 11:02:00,41.0,40.5,29.12,East,80,0.0,0.0,98,0.00,,,0.51,VWS V14.01,2013-02-28 16:02:00,
2013-02-28 11:03:00,40.8,40.3,29.12,ENE,71,0.0,0.0,98,0.00,,,0.51,VWS V14.01,2013-02-28 16:03:00,
2013-02-28 11:04:00,40.8,40.3,29.12,East,88,0.0,0.0,98,0.00,,,0.51,VWS V14.01,2013-02-28 16:04:00,
2013-02-28 11:05:00,40.6,40.1,29.12,East,88,0.0,0.0,98,0.00,,,0.51,VWS V14.01,2013-02-28 16:05:00,
2013-02-28 11:06:00,40.6,40.1,29.12,East,88,0.0,0.0,98,0.00,,OVC004,0.51,VWS V14.01,2013-02-28 16:06:00,
2013-02-28 11:07:00,40.6,40.1,29.12,ESE,114,6.3,6.3,98,0.00,,,0.51,VWS V14.01,2013-02-28 16:07:00,
2013-02-28 11:08:00,40.6,40.1,29.12,ENE,60,5.4,5.4,98,0.00,,,0.51,VWS V14.01,2013-02-28 16:08:00,
2013-02-28 11:09:00,40.6,40.1,29.12,ENE,60,0.0,2.7,98,0.00,,,0.51,VWS V14.01,2013-02-28 16:09:00,
2013-02-28 11:10:00,40.6,40.1,29.12,ENE,60,0.0,0.0,98,0.00,,,0.51,VWS V14.01,2013-02-28 16:10:00,
2013-02-28 11:11:00,40.6,40.1,29.12,ENE,78,8.1,8.1,98,0.00,,OVC004,0.51,VWS V14.01,2013-02-28 16:11:00,
2013-02-28 11:12:00,40.6,40.1,29.12,East,81,0.0,4.0,98,0.00,,,0.51,VWS V14.01,2013-02-28 16:12:00,
2013-02-28 11:13:00,40.6,40.1,29.12,East,79,0.0,0.0,98,0.00,,,0.51,VWS V14.01,2013-02-28 16:13:00,
2013-02-28 11:14:00,40.6,40.1,29.12,ENE,69,0.0,0.0,98,0.00,,,0.51,VWS V14.01,2013-02-28 16:14:00,
2013-02-28 11:15:00,40.6,40.1,29.12,NNE,33,4.5,4.5,98,0.00,,,0.51,VWS V14.01,2013-02-28 16:15:00,
2013-02-28 11:16:00,40.6,40.1,29.12,NE,55,0.0,0.0,98,0.00,,OVC004,0.51,VWS V14.01,2013-02-28 16:16:00,
2013-02-28 11:17:00,40.6,40.1,29.12,NE,55,0.0,0.0,98,0.00,,,0.51,VWS V14.01,2013-02-28 16:17:00,
2013-02-28 11:18:00,39.7,39.2,29.12,SSW,195,0.0,0.0,98,0.00,,FEW110,0.51,VWS V14.01,2013-02-28 16:18:00,
2013-02-28 11:19:00,40.5,39.9,29.12,ENE,65,0.0,0.0,98,0.00,,,0.51,VWS V14.01,2013-02-28 16:19:00,
2013-02-28 11:20:00,40.6,40.1,29.12,East,90,0.0,0.0,98,0.00,,,0.51,VWS V14.01,2013-02-28 16:20:00,
2013-02-28 11:21:00,40.6,40.1,29.12,East,90,0.0,0.0,98,0.00,,OVC004,0.51,VWS V14.01,2013-02-28 16:21:00,
2013-02-28 11:22:00,40.6,40.1,29.12,East,90,0.0,0.0,98,0.00,,,0.51,VWS V14.01,2013-02-28 16:22:00,
2013-02-28 11:23:00,40.6,40.1,29.12,East,90,0.0,0.0,98,0.00,,,0.51,VWS V14.01,2013-02-28 16:23:00,
2013-02-28 11:24:00,40.6,40.1,29.12,ENE,68,0.0,0.0,98,0.00,,,0.51,VWS V14.01,2013-02-28 16:24:00,
2013-02-28 11:25:00,40.6,40.1,29.12,East,85,0.0,0.0,98,0.00,,,0.51,VWS V14.01,2013-02-28 16:25:00,
2013-02-28 11:26:00,40.6,40.1,29.12,East,88,0.0,0.0,98,0.00,,OVC004,0.51,VWS V14.01,2013-02-28 16:26:00,
2013-02-28 11:27:00,40.6,40.1,29.12,East,87,0.0,0.0,98,0.00,,,0.51,VWS V14.01,2013-02-28 16:27:00,
2013-02-28 11:28:00,40.6,40.1,29.12,East,87,0.0,0.0,98,0.00,,,0.51,VWS V14.01,2013-02-28 16:28:00,
2013-02-28 11:29:00,40.6,40.1,29.12,East,88,0.0,0.0,98,0.00,,,0.51,VWS V14.01,2013-02-28 16:29:00,
2013-02-28 11:30:00,40.6,40.1,29.12,East,88,0.0,0.0,98,0.00,,,0.51,VWS V14.01,2013-02-28 16:30:00,
2013-02-28 11:31:00,40.6,40.1,29.12,East,88,0.0,0.0,98,0.00,,OVC009,0.51,VWS V14.01,2013-02-28 16:31:00,
2013-02-28 11:32:00,40.6,40.1,29.12,East,88,0.0,0.0,98,0.00,,,0.51,VWS V14.01,2013-02-28 16:32:00,
2013-02-28 11:33:00,40.6,40.1,29.12,East,88,0.0,0.0,98,0.00,,,0.51,VWS V14.01,2013-02-28 16:33:00,
2013-02-28 11:34:00,40.6,40.1,29.12,East,88,0.0,0.0,98,0.00,,,0.51,VWS V14.01,2013-02-28 16:34:00,
2013-02-28 11:35:00,40.6,40.1,29.12,East,88,0.0,0.0,98,0.00,,,0.51,VWS V14.01,2013-02-28 16:35:00,
2013-02-28 11:36:00,40.6,40.1,29.12,SE,137,0.0,4.0,98,0.00,,OVC009,0.51,VWS V14.01,2013-02-28 16:36:00,
2013-02-28 11:37:00,40.6,40.1,29.12,SE,137,0.0,4.0,98,0.00,,,0.51,VWS V14.01,2013-02-28 16:37:00,
2013-02-28 11:38:00,40.6,40.1,29.12,SE,137,0.0,0.0,98,0.00,,,0.51,VWS V14.01,2013-02-28 16:38:00,
2013-02-28 11:39:00,40.6,40.1,29.12,SE,137,0.0,0.0,98,0.00,,,0.51,VWS V14.01,2013-02-28 16:39:00,
2013-02-28 11:40:00,40.6,40.1,29.12,SE,137,0.0,0.0,98,0.00,,,0.51,VWS V14.01,2013-02-28 16:40:00,
2013-02-28 11:41:00,40.5,39.9,29.12,SW,220,0.0,0.0,98,0.00,,OVC009,0.51,VWS V14.01,2013-02-28 16:41:00,
2013-02-28 11:42:00,40.5,39.9,29.12,SW,220,0.0,0.0,98,0.00,,,0.51,VWS V14.01,2013-02-28 16:42:00,
2013-02-28 11:43:00,40.5,39.9,29.12,SW,220,0.0,0.0,98,0.00,,,0.51,VWS V14.01,2013-02-28 16:43:00,
2013-02-28 11:44:00,40.5,39.9,29.12,SW,220,0.0,0.0,98,0.00,,,0.51,VWS V14.01,2013-02-28 16:44:00,
2013-02-28 11:45:00,40.5,39.9,29.12,SW,220,0.0,0.0,98,0.00,,,0.51,VWS V14.01,2013-02-28 16:45:00,
2013-02-28 11:46:00,40.5,39.9,29.12,ESE,121,0.0,2.7,98,0.00,,,0.51,VWS V14.01,2013-02-28 16:46:00,
2013-02-28 11:47:00,40.5,39.9,29.12,ESE,121,0.0,0.0,98,0.00,,OVC009,0.51,VWS V14.01,2013-02-28 16:47:00,
2013-02-28 11:48:00,40.5,39.9,29.12,ESE,121,0.0,0.0,98,0.00,,,0.51,VWS V14.01,2013-02-28 16:48:00,
2013-02-28 11:49:00,40.5,39.9,29.12,ESE,121,0.0,0.0,98,0.00,,,0.51,VWS V14.01,2013-02-28 16:49:00,
2013-02-28 11:50:00,40.3,39.8,29.12,ESE,121,0.0,0.0,98,0.00,,,0.51,VWS V14.01,2013-02-28 16:50:00,
2013-02-28 11:51:00,40.3,39.8,29.12,SE,145,0.0,0.0,98,0.00,,,0.51,VWS V14.01,2013-02-28 16:51:00,
2013-02-28 11:52:00,40.3,39.8,29.12,SE,145,0.0,0.0,98,0.00,,OVC009,0.51,VWS V14.01,2013-02-28 16:52:00,
2013-02-28 11:53:00,40.3,39.8,29.12,SE,145,0.0,0.0,98,0.00,,,0.51,VWS V14.01,2013-02-28 16:53:00,
2013-02-28 11:54:00,40.3,39.8,29.12,SE,145,0.0,0.0,98,0.00,,,0.51,VWS V14.01,2013-02-28 16:54:00,
2013-02-28 11:55:00,40.3,39.8,29.12,SE,145,0.0,0.0,98,0.00,,,0.51,VWS V14.01,2013-02-28 16:55:00,
2013-02-28 11:56:00,40.3,39.8,29.12,SE,145,0.0,0.0,98,0.00,,,0.51,VWS V14.01,2013-02-28 16:56:00,
2013-02-28 11:57:00,40.1,39.6,29.12,SE,145,0.0,0.0,98,0.00,,OVC009,0.51,VWS V14.01,2013-02-28 16:57:00,
2013-02-28 11:58:00,40.1,39.6,29.12,SE,145,0.0,0.0,98,0.00,,,0.51,VWS V14.01,2013-02-28 16:58:00,
2013-02-28 11:59:00,40.1,39.6,29.12,SE,130,0.0,0.0,98,0.00,,,0.51,VWS V14.01,2013-02-28 16:59:00,
2013-02-28 12:00:00,40.1,39.6,29.12,SE,130,0.0,0.0,98,0.00,,,0.51,VWS V14.01,2013-02-28 17:00:00,
2013-02-28 12:01:00,40.1,39.6,29.12,SE,130,0.0,0.0,98,0.00,,,0.51,VWS V14.01,2013-02-28 17:01:00,
2013-02-28 12:02:00,40.1,39.6,29.12,SE,130,0.0,0.0,98,0.00,,OVC004,0.51,VWS V14.01,2013-02-28 17:02:00,
2013-02-28 12:03:00,40.1,39.6,29.12,SE,130,0.0,0.0,98,0.00,,,0.51,VWS V14.01,2013-02-28 17:03:00,
2013-02-28 12:04:00,39.9,39.4,29.12,SSW,213,0.0,0.0,98,0.00,,,0.51,VWS V14.01,2013-02-28 17:04:00,
2013-02-28 12:05:00,39.9,39.4,29.12,SSW,213,0.0,0.0,98,0.00,,,0.51,VWS V14.01,2013-02-28 17:05:00,
2013-02-28 12:06:00,39.9,39.4,29.12,SSW,195,0.0,0.0,98,0.00,,,0.51,VWS V14.01,2013-02-28 17:06:00,
2013-02-28 12:07:00,39.9,39.4,29.12,SSW,195,0.0,0.0,98,0.00,,OVC004,0.51,VWS V14.01,2013-02-28 17:07:00,
2013-02-28 12:08:00,39.9,39.4,29.12,SSW,195,0.0,0.0,98,0.00,,,0.51,VWS V14.01,2013-02-28 17:08:00,
2013-02-28 12:09:00,39.9,39.4,29.12,SSW,195,0.0,0.0,98,0.00,,,0.51,VWS V14.01,2013-02-28 17:09:00,
2013-02-28 12:10:00,39.7,39.2,29.12,SSW,195,0.0,0.0,98,0.00,,,0.51,VWS V14.01,2013-02-28 17:10:00,
2013-02-28 12:11:00,39.7,39.2,29.12,SSW,195,0.0,0.0,98,0.00,,,0.51,VWS V14.01,2013-02-28 17:11:00,
2013-02-28 12:12:00,39.7,39.2,29.12,SSW,195,0.0,0.0,98,0.00,,OVC004,0.51,VWS V14.01,2013-02-28 17:12:00,
2013-02-28 12:13:00,39.7,39.2,29.12,SSW,195,0.0,0.0,98,0.00,,,0.51,VWS V14.01,2013-02-28 17:13:00,
2013-02-28 12:14:00,39.7,39.2,29.12,SSW,195,0.0,0.0,98,0.00,,,0.51,VWS V14.01,2013-02-28 17:14:00,
2013-02-28 12:15:00,39.7,39.2,29.12,SSW,195,0.0,0.0,98,0.00,,,0.51,VWS V14.01,2013-02-28 17:15:00,
2013-02-28 12:16:00,39.7,39.2,29.12,SSW,195,0.0,0.0,98,0.00,,,0.51,VWS V14.01,2013-02-28 17:16:00,
2013-02-28 12:17:00,39.7,39.2,29.12,SSW,195,0.0,0.0,98,0.00,,,0.51,VWS V14.01,2013-02-28 17:17:00,
2013-02-28 12:18:00,39.7,39.2,29.12,SSW,195,0.0,0.0,98,0.00,,OVC004,0.51,VWS V14.01,2013-02-28 17:18:00,
2013-02-28 12:19:00,39.7,39.2,29.12,SSW,195,0.0,0.0,98,0.00,,,0.51,VWS V14.01,2013-02-28 17:19:00,
2013-02-28 12:20:00,39.7,39.2,29.12,SSW,195,0.0,0.0,98,0.00,,,0.51,VWS V14.01,2013-02-28 17:20:00,
2013-02-28 12:21:00,39.7,39.2,29.12,SSW,195,0.0,0.0,98,0.00,,,0.51,VWS V14.01,2013-02-28 17:21:00,
2013-02-28 12:22:00,39.7,39.2,29.12,SSW,195,0.0,0.0,98,0.00,,,0.51,VWS V14.01,2013-02-28 17:22:00,
2013-02-28 12:23:00,39.7,39.2,29.12,SSW,195,0.0,0.0,98,0.00,,OVC004,0.51,VWS V14.01,2013-02-28 17:23:00,
2013-02-28 12:24:00,39.7,39.2,29.12,SSW,195,0.0,0.0,98,0.00,,,0.51,VWS V14.01,2013-02-28 17:24:00,
2013-02-28 12:25:00,39.9,39.4,29.12,SSW,195,0.0,0.0,98,0.00,,,0.51,VWS V14.01,2013-02-28 17:25:00,
2013-02-28 12:26:00,39.9,39.4,29.12,SSW,195,0.0,0.0,98,0.00,,,0.51,VWS V14.01,2013-02-28 17:26:00,
2013-02-28 12:27:00,39.9,39.4,29.12,SSW,195,0.0,0.0,98,0.00,,,0.51,VWS V14.01,2013-02-28 17:27:00,
2013-02-28 12:28:00,39.9,39.4,29.12,SSW,195,0.0,0.0,98,0.00,,OVC004,0.51,VWS V14.01,2013-02-28 17:28:00,
2013-02-28 12:29:00,39.7,39.2,29.12,SSW,195,0.0,0.0,98,0.00,,,0.51,VWS V14.01,2013-02-28 17:29:00,
2013-02-28 12:30:00,39.7,39.2,29.12,SSW,195,0.0,0.0,98,0.00,,,0.51,VWS V14.01,2013-02-28 17:30:00,
2013-02-28 12:31:00,39.7,39.2,29.12,SSW,195,0.0,0.0,98,0.00,,,0.51,VWS V14.01,2013-02-28 17:31:00,
2013-02-28 12:32:00,39.7,39.2,29.12,SSW,195,0.0,0.0,98,0.00,,,0.51,VWS V14.01,2013-02-28 17:32:00,
2013-02-28 12:33:00,39.7,39.2,29.12,SSW,195,0.0,0.0,98,0.00,,OVC004,0.51,VWS V14.01,2013-02-28 17:33:00,
2013-02-28 12:34:00,39.7,39.2,29.12,SSW,195,0.0,0.0,98,0.00,,,0.51,VWS V14.01,2013-02-28 17:34:00,
2013-02-28 12:35:00,39.6,39.0,29.12,SSW,195,0.0,0.0,98,0.00,,,0.51,VWS V14.01,2013-02-28 17:35:00,
2013-02-28 12:36:00,39.6,39.0,29.12,SSW,195,0.0,0.0,98,0.00,,,0.51,VWS V14.01,2013-02-28 17:36:00,
2013-02-28 12:37:00,39.6,39.0,29.12,SSW,195,0.0,0.0,98,0.00,,,0.51,VWS V14.01,2013-02-28 17:37:00,
2013-02-28 12:38:00,39.6,39.0,29.12,SSW,195,0.0,0.0,98,0.00,,OVC004,0.51,VWS V14.01,2013-02-28 17:38:00,
2013-02-28 12:39:00,39.6,39.0,29.12,SSW,195,0.0,0.0,98,0.00,,,0.51,VWS V14.01,2013-02-28 17:39:00,
2013-02-28 12:40:00,39.6,39.0,29.12,SSW,195,0.0,0.0,98,0.00,,,0.51,VWS V14.01,2013-02-28 17:40:00,
2013-02-28 12:41:00,39.6,39.0,29.12,SSW,195,0.0,0.0,98,0.00,,,0.51,VWS V14.01,2013-02-28 17:41:00,
2013-02-28 12:42:00,39.6,39.0,29.12,SSW,195,0.0,0.0,98,0.00,,,0.51,VWS V14.01,2013-02-28 17:42:00,
2013-02-28 12:43:00,39.6,39.0,29.12,SSW,195,0.0,0.0,98,0.00,,OVC004,0.51,VWS V14.01,2013-02-28 17:43:00,
2013-02-28 12:44:00,39.7,39.2,29.12,SSW,195,0.0,0.0,98,0.00,,,0.51,VWS V14.01,2013-02-28 17:44:00,
2013-02-28 12:45:00,39.7,39.2,29.12,SSW,195,0.0,0.0,98,0.00,,,0.51,VWS V14.01,2013-02-28 17:45:00,
2013-02-28 12:46:00,39.7,39.2,29.12,SSW,195,0.0,0.0,98,0.00,,,0.51,VWS V14.01,2013-02-28 17:46:00,
2013-02-28 12:47:00,39.7,39.2,29.12,SSW,195,0.0,0.0,98,0.00,,,0.51,VWS V14.01,2013-02-28 17:47:00,
2013-02-28 12:48:00,39.7,39.2,29.09,SSW,195,0.0,0.0,98,0.00,,OVC004,0.51,VWS V14.01,2013-02-28 17:48:00,
2013-02-28 12:49:00,39.7,39.2,29.09,SSW,195,0.0,0.0,98,0.00,,,0.51,VWS V14.01,2013-02-28 17:49:00,
2013-02-28 12:50:00,39.7,39.2,29.09,SSW,195,0.0,0.0,98,0.00,,,0.51,VWS V14.01,2013-02-28 17:50:00,
2013-02-28 12:51:00,39.7,39.2,29.09,SSW,195,0.0,0.0,98,0.00,,,0.51,VWS V14.01,2013-02-28 17:51:00,
2013-02-28 12:52:00,39.7,39.2,29.09,SSW,195,0.0,0.0,98,0.00,,,0.51,VWS V14.01,2013-02-28 17:52:00,
2013-02-28 12:53:00,39.7,39.2,29.09,SSW,195,0.0,0.0,98,0.00,,OVC004,0.51,VWS V14.01,2013-02-28 17:53:00,
2013-02-28 12:54:00,39.7,39.2,29.09,SSW,195,0.0,0.0,98,0.00,,,0.51,VWS V14.01,2013-02-28 17:54:00,
2013-02-28 12:55:00,39.7,39.2,29.09,SSW,195,0.0,0.0,98,0.00,,,0.51,VWS V14.01,2013-02-28 17:55:00,
2013-02-28 12:56:00,39.7,39.2,29.09,SSW,195,0.0,0.0,98,0.00,,,0.51,VWS V14.01,2013-02-28 17:56:00,
2013-02-28 12:57:00,39.7,39.2,29.09,SSW,195,0.0,0.0,98,0.00,,,0.51,VWS V14.01,2013-02-28 17:57:00,
2013-02-28 12:58:00,39.7,39.2,29.09,SSW,195,0.0,0.0,98,0.00,,OVC004,0.51,VWS V14.01,2013-02-28 17:58:00,
2013-02-28 12:59:00,39.7,39.2,29.09,SSW,195,0.0,0.0,98,0.00,,,0.51,VWS V14.01,2013-02-28 17:59:00,
2013-02-28 13:00:00,39.7,39.2,29.09,SSW,195,0.0,0.0,98,0.00,,,0.51,VWS V14.01,2013-02-28 18:00:00,
2013-02-28 13:01:00,39.7,39.2,29.09,SSW,195,0.0,0.0,98,0.00,,,0.51,VWS V14.01,2013-02-28 18:01:00,
2013-02-28 13:02:00,39.7,39.2,29.09,SSW,195,0.0,0.0,98,0.00,,,0.51,VWS V14.01,2013-02-28 18:02:00,
2013-02-28 13:03:00,39.7,39.2,29.09,SSW,195,0.0,0.0,98,0.00,,OVC006,0.51,VWS V14.01,2013-02-28 18:03:00,
2013-02-28 13:04:00,39.7,39.2,29.09,SSW,195,0.0,0.0,98,0.00,,,0.51,VWS V14.01,2013-02-28 18:04:00,
2013-02-28 13:05:00,39.7,39.2,29.09,SSW,195,0.0,0.0,98,0.00,,,0.51,VWS V14.01,2013-02-28 18:05:00,
2013-02-28 13:06:00,39.7,39.2,29.09,SSW,195,0.0,0.0,98,0.00,,,0.51,VWS V14.01,2013-02-28 18:06:00,
2013-02-28 13:07:00,39.7,39.2,29.09,SSW,195,0.0,0.0,98,0.00,,,0.51,VWS V14.01,2013-02-28 18:07:00,
2013-02-28 13:08:00,39.7,39.2,29.09,SW,218,0.0,0.0,98,0.00,,OVC006,0.51,VWS V14.01,2013-02-28 18:08:00,
2013-02-28 13:09:00,39.7,39.2,29.09,SW,218,0.0,0.0,98,0.00,,,0.51,VWS V14.01,2013-02-28 18:09:00,
2013-02-28 13:10:00,39.7,39.2,29.09,SW,218,0.0,0.0,98,0.00,,,0.51,VWS V14.01,2013-02-28 18:10:00,
2013-02-28 13:11:00,39.9,39.4,29.09,SW,218,0.0,0.0,98,0.00,,,0.51,VWS V14.01,2013-02-28 18:11:00,
2013-02-28 13:12:00,39.9,39.4,29.09,SW,218,0.0,0.0,98,0.00,,,0.51,VWS V14.01,2013-02-28 18:12:00,
2013-02-28 13:13:00,39.9,39.4,29.09,SW,218,0.0,0.0,98,0.00,,OVC006,0.51,VWS V14.01,2013-02-28 18:13:00,
2013-02-28 13:14:00,39.9,39.4,29.09,SW,218,0.0,0.0,98,0.00,,,0.51,VWS V14.01,2013-02-28 18:14:00,
2013-02-28 13:15:00,39.9,39.4,29.09,SW,218,0.0,0.0,98,0.00,,,0.51,VWS V14.01,2013-02-28 18:15:00,
2013-02-28 13:16:00,40.1,39.6,29.09,SW,218,0.0,0.0,98,0.00,,,0.51,VWS V14.01,2013-02-28 18:16:00,
2013-02-28 13:17:00,40.1,39.6,29.09,SW,218,0.0,0.0,98,0.00,,,0.51,VWS V14.01,2013-02-28 18:17:00,
2013-02-28 13:18:00,40.1,39.6,29.09,SW,218,0.0,0.0,98,0.00,,OVC006,0.51,VWS V14.01,2013-02-28 18:18:00,
2013-02-28 13:19:00,40.1,39.6,29.09,SW,218,0.0,0.0,98,0.00,,,0.51,VWS V14.01,2013-02-28 18:19:00,
2013-02-28 13:20:00,40.1,39.6,29.09,SW,218,0.0,0.0,98,0.00,,,0.51,VWS V14.01,2013-02-28 18:20:00,
2013-02-28 13:21:00,40.1,39.6,29.09,SW,218,0.0,0.0,98,0.00,,,0.51,VWS V14.01,2013-02-28 18:21:00,
2013-02-28 13:22:00,40.3,39.8,29.09,SW,218,0.0,0.0,98,0.00,,,0.51,VWS V14.01,2013-02-28 18:22:00,
2013-02-28 13:23:00,40.3,39.8,29.09,SW,218,0.0,0.0,98,0.00,,,0.51,VWS V14.01,2013-02-28 18:23:00,
2013-02-28 13:24:00,40.3,39.8,29.09,SW,218,0.0,0.0,98,0.00,,OVC006,0.51,VWS V14.01,2013-02-28 18:24:00,
2013-02-28 13:25:00,40.3,39.8,29.09,SW,218,0.0,0.0,98,0.00,,,0.51,VWS V14.01,2013-02-28 18:25:00,
2013-02-28 13:26:00,40.3,39.8,29.09,SW,218,0.0,0.0,98,0.00,,,0.51,VWS V14.01,2013-02-28 18:26:00,
2013-02-28 13:27:00,40.3,39.8,29.09,SW,218,0.0,0.0,98,0.00,,,0.51,VWS V14.01,2013-02-28 18:27:00,
2013-02-28 13:28:00,40.3,39.8,29.09,SW,218,0.0,0.0,98,0.00,,,0.51,VWS V14.01,2013-02-28 18:28:00,
2013-02-28 13:29:00,40.3,39.8,29.09,SW,218,0.0,0.0,98,0.00,,OVC006,0.51,VWS V14.01,2013-02-28 18:29:00,
2013-02-28 13:30:00,40.5,39.9,29.09,SW,218,0.0,0.0,98,0.00,,,0.51,VWS V14.01,2013-02-28 18:30:00,
2013-02-28 13:31:00,40.5,39.9,29.09,SW,218,0.0,0.0,98,0.00,,,0.51,VWS V14.01,2013-02-28 18:31:00,
2013-02-28 13:32:00,40.5,39.9,29.09,SW,218,0.0,0.0,98,0.00,,,0.51,VWS V14.01,2013-02-28 18:32:00,
2013-02-28 13:33:00,40.5,39.9,29.09,SW,218,0.0,0.0,98,0.00,,,0.51,VWS V14.01,2013-02-28 18:33:00,
2013-02-28 13:34:00,40.5,39.9,29.09,SW,218,0.0,0.0,98,0.00,,OVC006,0.51,VWS V14.01,2013-02-28 18:34:00,
2013-02-28 13:35:00,40.6,40.1,29.09,SW,218,0.0,0.0,98,0.00,,,0.51,VWS V14.01,2013-02-28 18:35:00,
2013-02-28 13:36:00,40.6,40.1,29.09,SW,218,0.0,0.0,98,0.00,,,0.51,VWS V14.01,2013-02-28 18:36:00,
2013-02-28 13:37:00,40.6,40.1,29.09,SW,218,0.0,0.0,98,0.00,,,0.51,VWS V14.01,2013-02-28 18:37:00,
2013-02-28 13:38:00,40.6,40.1,29.09,SW,218,0.0,0.0,98,0.00,,,0.51,VWS V14.01,2013-02-28 18:38:00,
2013-02-28 13:39:00,40.6,40.1,29.09,SW,218,0.0,0.0,98,0.00,,OVC006,0.51,VWS V14.01,2013-02-28 18:39:00,
2013-02-28 13:40:00,40.5,39.9,29.09,SW,218,0.0,0.0,98,0.00,,,0.51,VWS V14.01,2013-02-28 18:40:00,
2013-02-28 13:41:00,40.5,39.9,29.09,SW,218,0.0,0.0,98,0.00,,,0.51,VWS V14.01,2013-02-28 18:41:00,
2013-02-28 13:42:00,40.5,39.9,29.09,SW,218,0.0,0.0,98,0.00,,,0.51,VWS V14.01,2013-02-28 18:42:00,
2013-02-28 13:43:00,40.5,39.9,29.09,SW,218,0.0,0.0,98,0.00,,,0.51,VWS V14.01,2013-02-28 18:43:00,
2013-02-28 13:44:00,40.5,39.9,29.09,SW,218,0.0,0.0,98,0.00,,OVC006,0.51,VWS V14.01,2013-02-28 18:44:00,
2013-02-28 13:45:00,40.5,39.9,29.09,SW,218,0.0,0.0,98,0.00,,,0.51,VWS V14.01,2013-02-28 18:45:00,
2013-02-28 13:46:00,40.5,39.9,29.09,SW,218,0.0,0.0,98,0.00,,,0.51,VWS V14.01,2013-02-28 18:46:00,
2013-02-28 13:47:00,40.5,39.9,29.09,SW,218,0.0,0.0,98,0.00,,,0.51,VWS V14.01,2013-02-28 18:47:00,
2013-02-28 13:48:00,40.5,39.9,29.09,SW,218,0.0,0.0,98,0.00,,,0.51,VWS V14.01,2013-02-28 18:48:00,
2013-02-28 13:49:00,40.5,39.9,29.09,SW,218,0.0,0.0,98,0.00,,OVC006,0.51,VWS V14.01,2013-02-28 18:49:00,
2013-02-28 13:50:00,40.5,39.9,29.09,SW,218,0.0,0.0,98,0.00,,,0.51,VWS V14.01,2013-02-28 18:50:00,
2013-02-28 13:51:00,40.5,39.9,29.09,SW,218,0.0,0.0,98,0.00,,,0.51,VWS V14.01,2013-02-28 18:51:00,
2013-02-28 13:52:00,40.5,39.9,29.09,SW,218,0.0,0.0,98,0.00,,,0.51,VWS V14.01,2013-02-28 18:52:00,
2013-02-28 13:53:00,40.5,39.9,29.09,SW,218,0.0,0.0,98,0.00,,,0.51,VWS V14.01,2013-02-28 18:53:00,
2013-02-28 13:54:00,40.6,40.1,29.09,SW,218,0.0,0.0,98,0.00,,OVC006,0.51,VWS V14.01,2013-02-28 18:54:00,
2013-02-28 13:55:00,40.6,40.1,29.09,SW,218,0.0,0.0,98,0.00,,,0.51,VWS V14.01,2013-02-28 18:55:00,
2013-02-28 13:56:00,40.5,39.9,29.09,SW,218,0.0,0.0,98,0.00,,,0.51,VWS V14.01,2013-02-28 18:56:00,
2013-02-28 13:57:00,40.5,39.9,29.09,SW,218,0.0,0.0,98,0.00,,,0.51,VWS V14.01,2013-02-28 18:57:00,
2013-02-28 13:58:00,40.5,39.9,29.09,SW,218,0.0,0.0,98,0.00,,,0.51,VWS V14.01,2013-02-28 18:58:00,
2013-02-28 13:59:00,40.5,39.9,29.09,SW,218,0.0,0.0,98,0.00,,,0.51,VWS V14.01,2013-02-28 18:59:00,
2013-02-28 14:00:00,40.5,39.9,29.09,SW,218,0.0,0.0,98,0.00,,OVC006,0.51,VWS V14.01,2013-02-28 19:00:00,
2013-02-28 14:01:00,40.5,39.9,29.09,SW,218,0.0,0.0,98,0.00,,,0.51,VWS V14.01,2013-02-28 19:01:00,
2013-02-28 14:02:00,40.3,39.8,29.09,SW,218,0.0,0.0,98,0.00,,,0.51,VWS V14.01,2013-02-28 19:02:00,
2013-02-28 14:03:00,40.3,39.8,29.09,SW,218,0.0,0.0,98,0.00,,,0.51,VWS V14.01,2013-02-28 19:03:00,
2013-02-28 14:04:00,40.1,39.6,29.09,SW,218,0.0,0.0,98,0.00,,,0.51,VWS V14.01,2013-02-28 19:04:00,
2013-02-28 14:05:00,40.1,39.6,29.09,SW,218,0.0,0.0,98,0.00,,OVC018,0.51,VWS V14.01,2013-02-28 19:05:00,
2013-02-28 14:06:00,39.9,39.4,29.09,SW,218,0.0,0.0,98,0.00,,,0.51,VWS V14.01,2013-02-28 19:06:00,
2013-02-28 14:07:00,39.9,39.4,29.09,SW,218,0.0,0.0,98,0.00,,,0.51,VWS V14.01,2013-02-28 19:07:00,
2013-02-28 14:08:00,39.9,39.4,29.09,SW,218,0.0,0.0,98,0.00,,,0.51,VWS V14.01,2013-02-28 19:08:00,
2013-02-28 14:09:00,39.9,39.4,29.09,SW,218,0.0,0.0,98,0.00,,,0.51,VWS V14.01,2013-02-28 19:09:00,
2013-02-28 14:10:00,39.9,39.4,29.09,SW,218,0.0,0.0,98,0.00,,OVC018,0.51,VWS V14.01,2013-02-28 19:10:00,
2013-02-28 14:11:00,39.9,39.4,29.09,SW,218,0.0,0.0,98,0.00,,,0.51,VWS V14.01,2013-02-28 19:11:00,
2013-02-28 14:12:00,39.9,39.4,29.09,SW,218,0.0,0.0,98,0.00,,,0.51,VWS V14.01,2013-02-28 19:12:00,
2013-02-28 14:13:00,39.9,39.4,29.09,SW,218,0.0,0.0,98,0.00,,,0.51,VWS V14.01,2013-02-28 19:13:00,
2013-02-28 14:14:00,39.9,39.4,29.09,SW,218,0.0,0.0,98,0.00,,,0.51,VWS V14.01,2013-02-28 19:14:00,
2013-02-28 14:15:00,39.9,39.4,29.09,SW,218,0.0,0.0,98,0.00,,OVC018,0.51,VWS V14.01,2013-02-28 19:15:00,
2013-02-28 14:16:00,39.9,39.4,29.09,SW,218,0.0,0.0,98,0.00,,,0.51,VWS V14.01,2013-02-28 19:16:00,
2013-02-28 14:17:00,39.7,39.2,29.09,SW,218,0.0,0.0,98,0.00,,,0.51,VWS V14.01,2013-02-28 19:17:00,
2013-02-28 14:18:00,39.7,39.2,29.09,SW,218,0.0,0.0,98,0.00,,,0.51,VWS V14.01,2013-02-28 19:18:00,
2013-02-28 14:19:00,39.7,39.2,29.09,SW,218,0.0,0.0,98,0.00,,,0.51,VWS V14.01,2013-02-28 19:19:00,
2013-02-28 14:20:00,39.7,39.2,29.09,SW,218,0.0,0.0,98,0.00,,OVC018,0.51,VWS V14.01,2013-02-28 19:20:00,
2013-02-28 14:21:00,39.7,39.2,29.09,SW,218,0.0,0.0,98,0.00,,,0.51,VWS V14.01,2013-02-28 19:21:00,
2013-02-28 14:22:00,39.7,39.2,29.09,SW,218,0.0,0.0,98,0.00,,,0.51,VWS V14.01,2013-02-28 19:22:00,
2013-02-28 14:23:00,39.7,39.2,29.09,SW,218,0.0,0.0,98,0.00,,,0.51,VWS V14.01,2013-02-28 19:23:00,
2013-02-28 14:24:00,39.7,39.2,29.09,SW,218,0.0,0.0,98,0.00,,,0.51,VWS V14.01,2013-02-28 19:24:00,
2013-02-28 14:25:00,39.7,39.2,29.09,SW,218,0.0,0.0,98,0.00,,OVC018,0.51,VWS V14.01,2013-02-28 19:25:00,
2013-02-28 14:26:00,39.7,39.2,29.09,SW,218,0.0,0.0,98,0.00,,,0.51,VWS V14.01,2013-02-28 19:26:00,
2013-02-28 14:27:00,39.7,39.2,29.09,SW,218,0.0,0.0,98,0.00,,,0.51,VWS V14.01,2013-02-28 19:27:00,
2013-02-28 14:28:00,39.7,39.2,29.09,SW,218,0.0,0.0,98,0.00,,,0.51,VWS V14.01,2013-02-28 19:28:00,
2013-02-28 14:29:00,39.7,39.2,29.09,SW,218,0.0,0.0,98,0.00,,,0.51,VWS V14.01,2013-02-28 19:29:00,
2013-02-28 14:30:00,39.7,39.2,29.09,SW,218,0.0,0.0,98,0.00,,OVC018,0.51,VWS V14.01,2013-02-28 19:30:00,
2013-02-28 14:31:00,39.7,39.2,29.09,SW,218,0.0,0.0,98,0.00,,,0.51,VWS V14.01,2013-02-28 19:31:00,
2013-02-28 14:32:00,39.7,39.2,29.09,SW,218,0.0,0.0,98,0.00,,,0.51,VWS V14.01,2013-02-28 19:32:00,
2013-02-28 14:33:00,39.7,39.2,29.09,SW,218,0.0,0.0,98,0.00,,,0.51,VWS V14.01,2013-02-28 19:33:00,
2013-02-28 14:34:00,39.7,39.2,29.09,SW,218,0.0,0.0,98,0.00,,,0.51,VWS V14.01,2013-02-28 19:34:00,
2013-02-28 14:35:00,39.7,39.2,29.09,SW,218,0.0,0.0,98,0.00,,OVC018,0.51,VWS V14.01,2013-02-28 19:35:00,
2013-02-28 14:36:00,39.7,39.2,29.09,SW,218,0.0,0.0,98,0.00,,,0.51,VWS V14.01,2013-02-28 19:36:00,
2013-02-28 14:37:00,39.9,39.4,29.09,SW,218,0.0,0.0,98,0.00,,,0.51,VWS V14.01,2013-02-28 19:37:00,
2013-02-28 14:38:00,39.9,39.4,29.09,SW,218,0.0,0.0,98,0.00,,,0.51,VWS V14.01,2013-02-28 19:38:00,
2013-02-28 14:39:00,39.9,39.4,29.09,SW,218,0.0,0.0,98,0.00,,,0.51,VWS V14.01,2013-02-28 19:39:00,
2013-02-28 14:40:00,39.9,39.4,29.09,SW,218,0.0,0.0,98,0.00,,,0.51,VWS V14.01,2013-02-28 19:40:00,
2013-02-28 14:41:00,39.9,39.4,29.09,SW,218,0.0,0.0,98,0.00,,OVC018,0.51,VWS V14.01,2013-02-28 19:41:00,
2013-02-28 14:42:00,39.9,39.4,29.09,SW,218,0.0,0.0,98,0.00,,,0.51,VWS V14.01,2013-02-28 19:42:00,
2013-02-28 14:43:00,40.1,39.6,29.09,SW,218,0.0,0.0,98,0.00,,,0.51,VWS V14.01,2013-02-28 19:43:00,
2013-02-28 14:44:00,40.1,39.6,29.09,SW,218,0.0,0.0,98,0.00,,,0.51,VWS V14.01,2013-02-28 19:44:00,
2013-02-28 14:45:00,40.1,39.6,29.09,SW,218,0.0,0.0,98,0.00,,,0.51,VWS V14.01,2013-02-28 19:45:00,
2013-02-28 14:46:00,40.1,39.6,29.09,SW,218,0.0,0.0,98,0.00,,OVC018,0.51,VWS V14.01,2013-02-28 19:46:00,
2013-02-28 14:47:00,40.1,39.6,29.09,SW,218,0.0,0.0,98,0.00,,,0.51,VWS V14.01,2013-02-28 19:47:00,
2013-02-28 14:48:00,40.1,39.6,29.09,SW,218,0.0,0.0,98,0.00,,,0.51,VWS V14.01,2013-02-28 19:48:00,
2013-02-28 14:49:00,40.1,39.6,29.09,SW,218,0.0,0.0,98,0.00,,,0.51,VWS V14.01,2013-02-28 19:49:00,
2013-02-28 14:50:00,40.1,39.6,29.09,SW,218,0.0,0.0,98,0.00,,,0.51,VWS V14.01,2013-02-28 19:50:00,
2013-02-28 14:51:00,40.1,39.6,29.09,SW,218,0.0,0.0,98,0.00,,OVC018,0.51,VWS V14.01,2013-02-28 19:51:00,
2013-02-28 14:52:00,40.1,39.6,29.09,SW,218,0.0,0.0,98,0.00,,,0.51,VWS V14.01,2013-02-28 19:52:00,
2013-02-28 14:53:00,40.1,39.6,29.09,SW,218,0.0,0.0,98,0.00,,,0.51,VWS V14.01,2013-02-28 19:53:00,
2013-02-28 14:54:00,40.1,39.6,29.09,SW,218,0.0,0.0,98,0.00,,,0.51,VWS V14.01,2013-02-28 19:54:00,
2013-02-28 14:55:00,40.1,39.6,29.09,SW,218,0.0,0.0,98,0.00,,,0.51,VWS V14.01,2013-02-28 19:55:00,
2013-02-28 14:56:00,40.1,39.6,29.09,SW,218,0.0,0.0,98,0.00,,OVC018,0.51,VWS V14.01,2013-02-28 19:56:00,
2013-02-28 14:57:00,40.1,39.6,29.09,SW,218,0.0,0.0,98,0.00,,,0.51,VWS V14.01,2013-02-28 19:57:00,
2013-02-28 14:58:00,40.1,39.6,29.09,SW,218,0.0,0.0,98,0.00,,,0.51,VWS V14.01,2013-02-28 19:58:00,
2013-02-28 14:59:00,40.1,39.6,29.09,SW,218,0.0,0.0,98,0.00,,,0.51,VWS V14.01,2013-02-28 19:59:00,
2013-02-28 15:00:00,40.1,39.6,29.09,SW,218,0.0,0.0,98,0.00,,,0.51,VWS V14.01,2013-02-28 20:00:00,
2013-02-28 15:01:00,40.1,39.6,29.09,SW,218,0.0,0.0,98,0.00,,OVC012,0.51,VWS V14.01,2013-02-28 20:01:00,
2013-02-28 15:02:00,40.1,39.6,29.09,SW,218,0.0,0.0,98,0.00,,,0.51,VWS V14.01,2013-02-28 20:02:00,
2013-02-28 15:03:00,40.1,39.6,29.09,SW,218,0.0,0.0,98,0.00,,,0.51,VWS V14.01,2013-02-28 20:03:00,
2013-02-28 15:04:00,40.1,39.6,29.09,SW,218,0.0,0.0,98,0.00,,,0.51,VWS V14.01,2013-02-28 20:04:00,
2013-02-28 15:05:00,40.1,39.6,29.09,SW,218,0.0,0.0,98,0.00,,,0.51,VWS V14.01,2013-02-28 20:05:00,
2013-02-28 15:06:00,39.9,39.4,29.09,SW,218,0.0,0.0,98,0.00,,OVC012,0.51,VWS V14.01,2013-02-28 20:06:00,
2013-02-28 15:07:00,39.9,39.4,29.09,SW,218,0.0,0.0,98,0.00,,,0.51,VWS V14.01,2013-02-28 20:07:00,
2013-02-28 15:08:00,39.9,39.4,29.09,SW,218,0.0,0.0,98,0.00,,,0.51,VWS V14.01,2013-02-28 20:08:00,
2013-02-28 15:09:00,39.9,39.4,29.09,SW,218,0.0,0.0,98,0.00,,,0.51,VWS V14.01,2013-02-28 20:09:00,
2013-02-28 15:10:00,39.9,39.4,29.09,SW,218,0.0,0.0,98,0.00,,,0.51,VWS V14.01,2013-02-28 20:10:00,
2013-02-28 15:11:00,39.9,39.4,29.09,SW,218,0.0,0.0,98,0.00,,OVC012,0.51,VWS V14.01,2013-02-28 20:11:00,
2013-02-28 15:12:00,39.9,39.4,29.09,SW,218,0.0,0.0,98,0.00,,,0.51,VWS V14.01,2013-02-28 20:12:00,
2013-02-28 15:13:00,39.9,39.4,29.09,SW,218,0.0,0.0,98,0.00,,,0.51,VWS V14.01,2013-02-28 20:13:00,
2013-02-28 15:14:00,39.9,39.4,29.09,SW,218,0.0,0.0,98,0.00,,,0.51,VWS V14.01,2013-02-28 20:14:00,
2013-02-28 15:15:00,39.9,39.4,29.09,SW,218,0.0,0.0,98,0.00,,,0.51,VWS V14.01,2013-02-28 20:15:00,
2013-02-28 15:16:00,39.9,39.4,29.09,SW,218,0.0,0.0,98,0.00,,OVC012,0.51,VWS V14.01,2013-02-28 20:16:00,
2013-02-28 15:17:00,39.9,39.4,29.09,SW,218,0.0,0.0,98,0.00,,,0.51,VWS V14.01,2013-02-28 20:17:00,
2013-02-28 15:18:00,39.9,39.4,29.09,SW,218,0.0,0.0,98,0.00,,,0.51,VWS V14.01,2013-02-28 20:18:00,
2013-02-28 15:19:00,40.1,39.6,29.09,SW,218,0.0,0.0,98,0.00,,,0.51,VWS V14.01,2013-02-28 20:19:00,
2013-02-28 15:20:00,40.1,39.6,29.09,SW,218,0.0,0.0,98,0.00,,,0.51,VWS V14.01,2013-02-28 20:20:00,
2013-02-28 15:21:00,40.1,39.6,29.09,SW,218,0.0,0.0,98,0.00,,OVC012,0.51,VWS V14.01,2013-02-28 20:21:00,
2013-02-28 15:22:00,40.1,39.6,29.09,SW,218,0.0,0.0,98,0.00,,,0.51,VWS V14.01,2013-02-28 20:22:00,
2013-02-28 15:23:00,40.1,39.6,29.09,SW,218,0.0,2.7,98,0.00,,,0.51,VWS V14.01,2013-02-28 20:23:00,
2013-02-28 15:24:00,40.1,39.6,29.09,SW,218,0.0,0.0,98,0.00,,,0.51,VWS V14.01,2013-02-28 20:24:00,
2013-02-28 15:25:00,40.1,39.6,29.09,SW,218,0.0,0.0,98,0.00,,,0.51,VWS V14.01,2013-02-28 20:25:00,
2013-02-28 15:26:00,39.9,39.4,29.09,SW,218,0.0,0.0,98,0.00,,OVC012,0.51,VWS V14.01,2013-02-28 20:26:00,
2013-02-28 15:27:00,39.9,39.4,29.09,SW,218,0.0,0.0,98,0.00,,,0.51,VWS V14.01,2013-02-28 20:27:00,
2013-02-28 15:28:00,39.9,39.4,29.09,SW,218,0.0,0.0,98,0.00,,,0.51,VWS V14.01,2013-02-28 20:28:00,
2013-02-28 15:29:00,39.9,39.4,29.09,SW,218,0.0,0.0,98,0.00,,,0.51,VWS V14.01,2013-02-28 20:29:00,
2013-02-28 15:30:00,39.9,39.4,29.09,SW,218,0.0,0.0,98,0.00,,,0.51,VWS V14.01,2013-02-28 20:30:00,
2013-02-28 15:31:00,39.7,39.2,29.09,SW,218,0.0,0.0,98,0.00,,OVC012,0.51,VWS V14.01,2013-02-28 20:31:00,
2013-02-28 15:32:00,39.7,39.2,29.09,SW,218,0.0,0.0,98,0.00,,,0.51,VWS V14.01,2013-02-28 20:32:00,
2013-02-28 15:33:00,39.7,39.2,29.09,SW,218,0.0,0.0,98,0.00,,,0.51,VWS V14.01,2013-02-28 20:33:00,
2013-02-28 15:34:00,39.7,39.2,29.09,SW,218,0.0,0.0,98,0.00,,,0.51,VWS V14.01,2013-02-28 20:34:00,
2013-02-28 15:35:00,39.7,39.2,29.09,SW,218,0.0,0.0,98,0.00,,,0.51,VWS V14.01,2013-02-28 20:35:00,
2013-02-28 15:36:00,39.7,39.2,29.09,SW,218,0.0,0.0,98,0.00,,OVC012,0.51,VWS V14.01,2013-02-28 20:36:00,
2013-02-28 15:37:00,39.7,39.2,29.09,SW,218,0.0,0.0,98,0.00,,,0.51,VWS V14.01,2013-02-28 20:37:00,
2013-02-28 15:38:00,39.7,39.2,29.09,SW,218,0.0,0.0,98,0.00,,,0.51,VWS V14.01,2013-02-28 20:38:00,
2013-02-28 15:39:00,39.7,39.2,29.09,SW,218,0.0,0.0,98,0.00,,,0.51,VWS V14.01,2013-02-28 20:39:00,
2013-02-28 15:40:00,39.6,39.0,29.09,SW,218,0.0,0.0,98,0.00,,,0.51,VWS V14.01,2013-02-28 20:40:00,
2013-02-28 15:41:00,39.6,39.0,29.09,SW,218,0.0,0.0,98,0.00,,,0.51,VWS V14.01,2013-02-28 20:41:00,
2013-02-28 15:42:00,39.6,39.0,29.09,SW,218,0.0,0.0,98,0.00,,OVC012,0.51,VWS V14.01,2013-02-28 20:42:00,
2013-02-28 15:43:00,39.4,38.9,29.09,SW,218,0.0,0.0,98,0.00,,,0.51,VWS V14.01,2013-02-28 20:43:00,
2013-02-28 15:44:00,39.4,38.9,29.09,SW,218,0.0,0.0,98,0.00,,,0.51,VWS V14.01,2013-02-28 20:44:00,
2013-02-28 15:45:00,39.2,38.7,29.09,SW,218,0.0,0.0,98,0.00,,,0.51,VWS V14.01,2013-02-28 20:45:00,
2013-02-28 15:46:00,39.2,38.7,29.09,SW,218,0.0,0.0,98,0.00,,,0.51,VWS V14.01,2013-02-28 20:46:00,
2013-02-28 15:47:00,39.2,38.7,29.09,SW,218,0.0,0.0,98,0.00,,OVC012,0.51,VWS V14.01,2013-02-28 20:47:00,
2013-02-28 15:48:00,39.0,38.5,29.09,SW,218,0.0,0.0,98,0.00,,,0.51,VWS V14.01,2013-02-28 20:48:00,
2013-02-28 15:49:00,39.0,38.5,29.09,SW,218,0.0,0.0,98,0.00,,,0.51,VWS V14.01,2013-02-28 20:49:00,
2013-02-28 15:50:00,39.0,38.5,29.09,SW,218,0.0,0.0,98,0.00,,,0.51,VWS V14.01,2013-02-28 20:50:00,
2013-02-28 15:51:00,39.0,38.5,29.09,SW,218,0.0,0.0,98,0.00,,,0.51,VWS V14.01,2013-02-28 20:51:00,
2013-02-28 15:52:00,38.8,38.3,29.09,SW,218,0.0,0.0,98,0.00,,OVC012,0.51,VWS V14.01,2013-02-28 20:52:00,
2013-02-28 15:53:00,38.8,38.3,29.09,SW,218,0.0,0.0,98,0.00,,,0.51,VWS V14.01,2013-02-28 20:53:00,
2013-02-28 15:54:00,38.8,38.3,29.09,SW,218,0.0,0.0,98,0.00,,,0.51,VWS V14.01,2013-02-28 20:54:00,
2013-02-28 15:55:00,38.8,38.3,29.09,SW,218,0.0,0.0,98,0.00,,,0.51,VWS V14.01,2013-02-28 20:55:00,
2013-02-28 15:56:00,38.8,38.3,29.09,SW,218,0.0,0.0,98,0.00,,,0.51,VWS V14.01,2013-02-28 20:56:00,
2013-02-28 15:57:00,38.8,38.3,29.09,SW,218,0.0,0.0,98,0.00,,OVC012,0.51,VWS V14.01,2013-02-28 20:57:00,
2013-02-28 15:58:00,38.8,38.3,29.09,SW,218,0.0,0.0,98,0.00,,,0.51,VWS V14.01,2013-02-28 20:58:00,
2013-02-28 15:59:00,38.8,38.3,29.09,SW,218,0.0,0.0,98,0.00,,,0.51,VWS V14.01,2013-02-28 20:59:00,
2013-02-28 16:00:00,38.8,38.3,29.09,SW,218,0.0,0.0,98,0.00,,,0.51,VWS V14.01,2013-02-28 21:00:00,
2013-02-28 16:01:00,38.8,38.3,29.09,SW,218,0.0,0.0,98,0.00,,,0.51,VWS V14.01,2013-02-28 21:01:00,
2013-02-28 16:02:00,38.7,38.2,29.09,SW,218,0.0,0.0,98,0.00,,,0.51,VWS V14.01,2013-02-28 21:02:00,
2013-02-28 16:03:00,38.7,38.2,29.09,SW,218,0.0,0.0,98,0.00,,,0.51,VWS V14.01,2013-02-28 21:03:00,
2013-02-28 16:04:00,38.7,38.2,29.09,SW,218,0.0,0.0,98,0.00,,,0.51,VWS V14.01,2013-02-28 21:04:00,
2013-02-28 16:05:00,38.7,38.2,29.09,SW,218,0.0,0.0,98,0.00,,,0.51,VWS V14.01,2013-02-28 21:05:00,
2013-02-28 16:06:00,38.7,38.2,29.09,SW,218,0.0,0.0,98,0.00,,,0.51,VWS V14.01,2013-02-28 21:06:00,
2013-02-28 16:07:00,38.7,38.2,29.09,SW,218,0.0,0.0,98,0.00,,,0.51,VWS V14.01,2013-02-28 21:07:00,
2013-02-28 16:08:00,38.7,38.2,29.09,SW,218,0.0,0.0,98,0.00,,,0.51,VWS V14.01,2013-02-28 21:08:00,
2013-02-28 16:09:00,38.5,38.0,29.09,SW,218,0.0,0.0,98,0.00,,,0.51,VWS V14.01,2013-02-28 21:09:00,
2013-02-28 16:10:00,38.5,38.0,29.09,SW,218,0.0,0.0,98,0.00,,,0.51,VWS V14.01,2013-02-28 21:10:00,
2013-02-28 16:11:00,38.5,38.0,29.09,SW,218,0.0,0.0,98,0.00,,,0.51,VWS V14.01,2013-02-28 21:11:00,
2013-02-28 16:12:00,38.5,38.0,29.09,SW,218,0.0,0.0,98,0.00,,OVC008,0.51,VWS V14.01,2013-02-28 21:12:00,
2013-02-28 16:13:00,38.5,38.0,29.09,SW,218,0.0,0.0,98,0.00,,,0.51,VWS V14.01,2013-02-28 21:13:00,
2013-02-28 16:14:00,38.5,38.0,29.09,SW,218,0.0,0.0,98,0.00,,,0.51,VWS V14.01,2013-02-28 21:14:00,
2013-02-28 16:15:00,38.5,38.0,29.09,SW,218,0.0,0.0,98,0.00,,,0.51,VWS V14.01,2013-02-28 21:15:00,
2013-02-28 16:16:00,38.5,38.0,29.09,SW,218,0.0,0.0,98,0.00,,,0.51,VWS V14.01,2013-02-28 21:16:00,
2013-02-28 16:17:00,38.5,38.0,29.09,SW,218,0.0,0.0,98,0.00,,OVC008,0.51,VWS V14.01,2013-02-28 21:17:00,
2013-02-28 16:18:00,38.5,38.0,29.09,SW,218,0.0,0.0,98,0.00,,,0.51,VWS V14.01,2013-02-28 21:18:00,
2013-02-28 16:19:00,38.3,37.8,29.09,SW,218,0.0,0.0,98,0.00,,,0.51,VWS V14.01,2013-02-28 21:19:00,
2013-02-28 16:20:00,38.3,37.8,29.09,SW,218,0.0,0.0,98,0.00,,,0.51,VWS V14.01,2013-02-28 21:20:00,
2013-02-28 16:21:00,38.3,37.8,29.09,SW,218,0.0,0.0,98,0.00,,,0.51,VWS V14.01,2013-02-28 21:21:00,
2013-02-28 16:22:00,38.1,37.6,29.09,SW,218,0.0,0.0,98,0.00,,-RA,0.51,VWS V14.01,2013-02-28 21:22:00,
2013-02-28 16:23:00,38.1,37.6,29.09,SW,218,0.0,0.0,98,0.00,,,0.51,VWS V14.01,2013-02-28 21:23:00,
2013-02-28 16:24:00,38.1,37.6,29.09,SW,218,0.0,0.0,98,0.00,,,0.51,VWS V14.01,2013-02-28 21:24:00,
2013-02-28 16:25:00,38.1,37.6,29.09,SW,218,0.0,0.0,98,0.00,,,0.51,VWS V14.01,2013-02-28 21:25:00,
2013-02-28 16:26:00,38.1,37.6,29.09,SW,218,0.0,0.0,98,0.00,,,0.51,VWS V14.01,2013-02-28 21:26:00,
2013-02-28 16:27:00,37.9,37.4,29.09,SW,218,0.0,0.0,98,0.00,,-RA,0.51,VWS V14.01,2013-02-28 21:27:00,
2013-02-28 16:28:00,37.9,37.4,29.09,SW,218,0.0,0.0,98,0.00,,,0.51,VWS V14.01,2013-02-28 21:28:00,
2013-02-28 16:29:00,37.9,37.4,29.09,SW,218,0.0,0.0,98,0.00,,,0.51,VWS V14.01,2013-02-28 21:29:00,
2013-02-28 16:30:00,37.9,37.4,29.09,SW,218,0.0,0.0,98,0.00,,,0.51,VWS V14.01,2013-02-28 21:30:00,
2013-02-28 16:31:00,37.9,37.4,29.09,SW,218,0.0,0.0,98,0.00,,,0.51,VWS V14.01,2013-02-28 21:31:00,
2013-02-28 16:32:00,37.9,37.4,29.09,SW,218,0.0,0.0,98,0.00,,-RA,0.51,VWS V14.01,2013-02-28 21:32:00,
2013-02-28 16:33:00,37.8,37.2,29.09,SW,218,0.0,0.0,98,0.00,,,0.51,VWS V14.01,2013-02-28 21:33:00,
2013-02-28 16:34:00,37.8,37.2,29.09,SW,218,0.0,0.0,98,0.00,,,0.51,VWS V14.01,2013-02-28 21:34:00,
2013-02-28 16:35:00,37.8,37.2,29.09,SW,218,0.0,0.0,98,0.00,,,0.51,VWS V14.01,2013-02-28 21:35:00,
2013-02-28 16:36:00,37.8,37.2,29.09,SW,218,0.0,0.0,98,0.00,,,0.51,VWS V14.01,2013-02-28 21:36:00,
2013-02-28 16:37:00,37.8,37.2,29.09,SW,218,0.0,0.0,98,0.00,,,0.51,VWS V14.01,2013-02-28 21:37:00,
2013-02-28 16:38:00,37.8,37.2,29.09,SW,218,0.0,0.0,98,0.00,,-RA,0.51,VWS V14.01,2013-02-28 21:38:00,
2013-02-28 16:39:00,37.8,37.2,29.09,SW,218,0.0,0.0,98,0.00,,,0.51,VWS V14.01,2013-02-28 21:39:00,
2013-02-28 16:40:00,37.9,37.4,29.09,SW,218,0.0,0.0,98,0.00,,,0.51,VWS V14.01,2013-02-28 21:40:00,
2013-02-28 16:41:00,37.9,37.4,29.09,SW,218,0.0,0.0,98,0.00,,,0.51,VWS V14.01,2013-02-28 21:41:00,
2013-02-28 16:42:00,37.9,37.4,29.09,SW,218,0.0,0.0,98,0.00,,,0.51,VWS V14.01,2013-02-28 21:42:00,
2013-02-28 16:43:00,37.9,37.4,29.09,SW,218,0.0,0.0,98,0.00,,,0.51,VWS V14.01,2013-02-28 21:43:00,
2013-02-28 16:44:00,37.9,37.4,29.09,SW,218,0.0,0.0,98,0.00,,,0.51,VWS V14.01,2013-02-28 21:44:00,
2013-02-28 16:45:00,37.9,37.4,29.09,SW,218,0.0,0.0,98,0.00,,,0.51,VWS V14.01,2013-02-28 21:45:00,
2013-02-28 16:46:00,37.9,37.4,29.09,SW,218,0.0,0.0,98,0.00,,,0.51,VWS V14.01,2013-02-28 21:46:00,
2013-02-28 16:47:00,35.6,35.1,29.09,NNW,332,0.0,0.0,98,0.00,,FEW110,0.51,VWS V14.01,2013-02-28 21:47:00,
2013-02-28 16:48:00,37.8,37.2,29.09,NW,313,0.0,0.0,98,0.00,,,0.51,VWS V14.01,2013-02-28 21:48:00,
2013-02-28 16:49:00,37.8,37.2,29.09,NW,313,0.0,0.0,98,0.00,,,0.51,VWS V14.01,2013-02-28 21:49:00,
2013-02-28 16:50:00,37.8,37.2,29.09,NW,313,0.0,0.0,98,0.00,,,0.51,VWS V14.01,2013-02-28 21:50:00,
2013-02-28 16:51:00,37.8,37.2,29.09,East,87,0.0,0.0,98,0.00,,,0.51,VWS V14.01,2013-02-28 21:51:00,
2013-02-28 16:52:00,37.8,37.2,29.09,East,87,0.0,0.0,98,0.00,,,0.51,VWS V14.01,2013-02-28 21:52:00,
2013-02-28 16:53:00,37.8,37.2,29.09,East,87,0.0,0.0,98,0.00,,,0.51,VWS V14.01,2013-02-28 21:53:00,
2013-02-28 16:54:00,37.6,37.1,29.09,East,87,0.0,0.0,98,0.00,,,0.51,VWS V14.01,2013-02-28 21:54:00,
2013-02-28 16:55:00,37.6,37.1,29.09,East,86,0.0,0.0,98,0.00,,,0.51,VWS V14.01,2013-02-28 21:55:00,
2013-02-28 16:56:00,37.6,37.1,29.09,East,86,0.0,0.0,98,0.00,,,0.51,VWS V14.01,2013-02-28 21:56:00,
2013-02-28 16:57:00,37.4,36.9,29.09,East,86,0.0,0.0,98,0.00,,,0.51,VWS V14.01,2013-02-28 21:57:00,
2013-02-28 16:58:00,37.4,36.9,29.09,East,81,0.0,0.0,98,0.00,,,0.51,VWS V14.01,2013-02-28 21:58:00,
2013-02-28 16:59:00,37.4,36.9,29.09,East,81,0.0,0.0,98,0.00,,,0.51,VWS V14.01,2013-02-28 21:59:00,
2013-02-28 17:00:00,37.4,36.9,29.09,East,81,0.0,0.0,98,0.00,,,0.51,VWS V14.01,2013-02-28 22:00:00,
2013-02-28 17:01:00,37.2,36.7,29.09,NNE,20,0.0,0.0,98,0.00,,,0.51,VWS V14.01,2013-02-28 22:01:00,
2013-02-28 17:02:00,37.2,36.7,29.09,NNE,20,0.0,0.0,98,0.00,,,0.51,VWS V14.01,2013-02-28 22:02:00,
2013-02-28 17:03:00,37.0,36.5,29.06,NW,312,0.0,0.0,98,0.00,,-RA,0.51,VWS V14.01,2013-02-28 22:03:00,
2013-02-28 17:04:00,37.0,36.5,29.06,West,270,5.4,5.4,98,0.00,,,0.51,VWS V14.01,2013-02-28 22:04:00,
2013-02-28 17:05:00,37.0,36.5,29.06,NNE,23,0.0,3.1,98,0.00,,,0.51,VWS V14.01,2013-02-28 22:05:00,
2013-02-28 17:06:00,37.0,36.5,29.06,NNE,27,0.0,0.0,98,0.00,,,0.51,VWS V14.01,2013-02-28 22:06:00,
2013-02-28 17:07:00,36.9,36.3,29.06,NE,38,0.0,0.0,98,0.00,,,0.51,VWS V14.01,2013-02-28 22:07:00,
2013-02-28 17:08:00,36.9,36.3,29.06,NNE,23,0.0,0.0,98,0.00,,-RA,0.51,VWS V14.01,2013-02-28 22:08:00,
2013-02-28 17:09:00,36.9,36.3,29.06,NE,46,4.5,4.5,98,0.00,,,0.51,VWS V14.01,2013-02-28 22:09:00,
2013-02-28 17:10:00,36.9,36.3,29.06,NE,46,0.0,4.0,98,0.00,,,0.51,VWS V14.01,2013-02-28 22:10:00,
2013-02-28 17:11:00,36.7,36.2,29.06,NE,46,0.0,0.0,98,0.00,,,0.51,VWS V14.01,2013-02-28 22:11:00,
2013-02-28 17:12:00,36.7,36.2,29.06,NE,46,0.0,0.0,98,0.00,,,0.51,VWS V14.01,2013-02-28 22:12:00,
2013-02-28 17:13:00,36.7,36.2,29.06,NE,46,0.0,2.2,98,0.00,,-RA,0.51,VWS V14.01,2013-02-28 22:13:00,
2013-02-28 17:14:00,36.7,36.2,29.06,NE,46,0.0,2.2,98,0.00,,,0.51,VWS V14.01,2013-02-28 22:14:00,
2013-02-28 17:15:00,36.7,36.2,29.06,NE,45,0.0,0.0,98,0.00,,,0.51,VWS V14.01,2013-02-28 22:15:00,
2013-02-28 17:16:00,36.5,36.0,29.06,North,357,0.0,0.0,98,0.00,,,0.51,VWS V14.01,2013-02-28 22:16:00,
2013-02-28 17:17:00,36.5,36.0,29.06,North,7,0.0,0.0,98,0.00,,,0.51,VWS V14.01,2013-02-28 22:17:00,
2013-02-28 17:18:00,36.5,36.0,29.06,North,7,0.0,0.0,98,0.00,,,0.51,VWS V14.01,2013-02-28 22:18:00,
2013-02-28 17:19:00,36.3,35.8,29.09,NNE,26,0.0,3.1,98,0.00,,-RA,0.51,VWS V14.01,2013-02-28 22:19:00,
2013-02-28 17:20:00,36.3,35.8,29.09,NNE,32,0.0,2.7,98,0.00,,,0.51,VWS V14.01,2013-02-28 22:20:00,
2013-02-28 17:21:00,36.3,35.8,29.09,North,350,0.0,0.0,98,0.00,,,0.51,VWS V14.01,2013-02-28 22:21:00,
2013-02-28 17:22:00,36.3,35.8,29.09,NNE,30,0.0,2.7,98,0.00,,,0.51,VWS V14.01,2013-02-28 22:22:00,
2013-02-28 17:23:00,36.3,35.8,29.09,NNE,30,0.0,0.0,98,0.00,,,0.51,VWS V14.01,2013-02-28 22:23:00,
2013-02-28 17:24:00,36.1,35.6,29.09,NNE,30,0.0,0.0,98,0.00,,-RA,0.51,VWS V14.01,2013-02-28 22:24:00,
2013-02-28 17:25:00,36.1,35.6,29.09,NNE,14,4.5,4.5,98,0.00,,,0.51,VWS V14.01,2013-02-28 22:25:00,
2013-02-28 17:26:00,36.1,35.6,29.09,NNE,16,0.0,2.2,98,0.00,,,0.51,VWS V14.01,2013-02-28 22:26:00,
2013-02-28 17:27:00,36.1,35.6,29.09,NNE,24,0.0,0.0,98,0.00,,,0.51,VWS V14.01,2013-02-28 22:27:00,
2013-02-28 17:28:00,36.0,35.5,29.09,NNE,26,0.0,0.0,98,0.00,,,0.51,VWS V14.01,2013-02-28 22:28:00,
2013-02-28 17:29:00,36.0,35.5,29.09,NNE,28,0.0,0.0,98,0.00,,-RA,0.51,VWS V14.01,2013-02-28 22:29:00,
2013-02-28 17:30:00,36.0,35.5,29.09,NNE,16,0.0,2.7,98,0.00,,,0.51,VWS V14.01,2013-02-28 22:30:00,
2013-02-28 17:31:00,36.0,35.5,29.09,NNE,20,0.0,0.0,98,0.00,,,0.51,VWS V14.01,2013-02-28 22:31:00,
2013-02-28 17:32:00,36.0,35.5,29.09,NNE,32,6.3,6.3,98,0.00,,,0.51,VWS V14.01,2013-02-28 22:32:00,
2013-02-28 17:33:00,35.8,35.3,29.09,NNE,18,0.0,3.1,98,0.00,,,0.51,VWS V14.01,2013-02-28 22:33:00,
2013-02-28 17:34:00,35.8,35.3,29.09,NNE,18,0.0,0.0,98,0.00,,-RA,0.51,VWS V14.01,2013-02-28 22:34:00,
2013-02-28 17:35:00,35.8,35.3,29.09,NNE,18,0.0,0.0,98,0.00,,,0.51,VWS V14.01,2013-02-28 22:35:00,
2013-02-28 17:36:00,35.8,35.3,29.09,NNW,336,0.0,0.0,98,0.00,,,0.51,VWS V14.01,2013-02-28 22:36:00,
2013-02-28 17:37:00,35.8,35.3,29.09,North,1,0.0,0.0,98,0.00,,,0.51,VWS V14.01,2013-02-28 22:37:00,
2013-02-28 17:38:00,35.8,35.3,29.09,North,1,0.0,0.0,98,0.00,,,0.51,VWS V14.01,2013-02-28 22:38:00,
2013-02-28 17:39:00,35.8,35.3,29.09,NNE,16,0.0,0.0,98,0.00,,-RA,0.51,VWS V14.01,2013-02-28 22:39:00,
2013-02-28 17:40:00,35.8,35.3,29.09,NE,36,0.0,0.0,98,0.00,,,0.51,VWS V14.01,2013-02-28 22:40:00,
2013-02-28 17:41:00,35.6,35.1,29.09,NNE,30,0.0,0.0,98,0.00,,,0.51,VWS V14.01,2013-02-28 22:41:00,
2013-02-28 17:42:00,35.6,35.1,29.09,NNE,27,0.0,0.0,98,0.00,,,0.51,VWS V14.01,2013-02-28 22:42:00,
2013-02-28 17:43:00,35.6,35.1,29.09,NNE,27,0.0,0.0,98,0.00,,,0.51,VWS V14.01,2013-02-28 22:43:00,
2013-02-28 17:44:00,35.6,35.1,29.09,NNE,27,0.0,0.0,98,0.00,,,0.51,VWS V14.01,2013-02-28 22:44:00,
2013-02-28 17:45:00,35.6,35.1,29.09,NNE,27,0.0,0.0,98,0.00,,,0.51,VWS V14.01,2013-02-28 22:45:00,
2013-02-28 17:46:00,35.6,35.1,29.09,NNE,25,0.0,0.0,98,0.00,,,0.51,VWS V14.01,2013-02-28 22:46:00,
2013-02-28 17:47:00,35.6,35.1,29.09,NNW,332,0.0,0.0,98,0.00,,,0.51,VWS V14.01,2013-02-28 22:47:00,
2013-02-28 17:48:00,35.6,35.1,29.09,NE,40,0.0,0.0,98,0.00,,,0.51,VWS V14.01,2013-02-28 22:48:00,
2013-02-28 17:49:00,35.6,35.1,29.09,NE,38,0.0,0.0,98,0.00,,,0.51,VWS V14.01,2013-02-28 22:49:00,
2013-02-28 17:50:00,35.6,35.1,29.09,NE,38,0.0,0.0,98,0.00,,,0.51,VWS V14.01,2013-02-28 22:50:00,
2013-02-28 17:51:00,35.6,35.1,29.09,North,11,0.0,0.0,98,0.00,,,0.51,VWS V14.01,2013-02-28 22:51:00,
2013-02-28 17:52:00,35.6,35.1,29.09,NNE,27,0.0,0.0,98,0.00,,,0.51,VWS V14.01,2013-02-28 22:52:00,
2013-02-28 17:53:00,35.4,34.9,29.09,NNE,27,0.0,0.0,98,0.00,,,0.51,VWS V14.01,2013-02-28 22:53:00,
2013-02-28 17:54:00,35.4,34.9,29.09,NNE,26,0.0,0.0,98,0.00,,,0.51,VWS V14.01,2013-02-28 22:54:00,
2013-02-28 17:55:00,35.4,34.9,29.09,NNE,26,0.0,0.0,98,0.00,,,0.51,VWS V14.01,2013-02-28 22:55:00,
2013-02-28 17:56:00,35.4,34.9,29.09,NNE,26,0.0,0.0,98,0.00,,,0.51,VWS V14.01,2013-02-28 22:56:00,
2013-02-28 17:57:00,35.4,34.9,29.09,NNE,26,0.0,0.0,98,0.00,,,0.51,VWS V14.01,2013-02-28 22:57:00,
2013-02-28 17:58:00,35.4,34.9,29.09,NNE,27,0.0,0.0,98,0.00,,,0.51,VWS V14.01,2013-02-28 22:58:00,
2013-02-28 17:59:00,35.4,34.9,29.09,NNE,27,0.0,0.0,98,0.00,,,0.51,VWS V14.01,2013-02-28 22:59:00,
2013-02-28 18:00:00,35.4,34.9,29.09,NNE,27,0.0,0.0,98,0.00,,,0.51,VWS V14.01,2013-02-28 23:00:00,
2013-02-28 18:01:00,35.4,34.9,29.09,NNE,27,0.0,0.0,98,0.00,,,0.51,VWS V14.01,2013-02-28 23:01:00,
2013-02-28 18:02:00,35.2,34.7,29.09,NNE,27,0.0,0.0,98,0.00,,,0.51,VWS V14.01,2013-02-28 23:02:00,
2013-02-28 18:03:00,35.2,34.7,29.09,NNE,27,0.0,0.0,98,0.00,,,0.51,VWS V14.01,2013-02-28 23:03:00,
2013-02-28 18:04:00,35.2,34.7,29.09,NNE,27,0.0,0.0,98,0.00,,,0.51,VWS V14.01,2013-02-28 23:04:00,
2013-02-28 18:05:00,35.2,34.7,29.09,NNE,27,0.0,0.0,98,0.00,,,0.51,VWS V14.01,2013-02-28 23:05:00,
2013-02-28 18:06:00,35.2,34.7,29.09,NNW,335,0.0,0.0,98,0.00,,,0.51,VWS V14.01,2013-02-28 23:06:00,
2013-02-28 18:07:00,35.2,34.7,29.09,NNW,335,0.0,0.0,98,0.00,,,0.51,VWS V14.01,2013-02-28 23:07:00,
2013-02-28 18:08:00,35.2,34.7,29.09,North,5,0.0,0.0,98,0.00,,,0.51,VWS V14.01,2013-02-28 23:08:00,
2013-02-28 18:09:00,35.2,34.7,29.09,North,5,0.0,0.0,98,0.00,,,0.51,VWS V14.01,2013-02-28 23:09:00,
2013-02-28 18:10:00,35.2,34.7,29.09,North,5,0.0,0.0,98,0.00,,,0.51,VWS V14.01,2013-02-28 23:10:00,
2013-02-28 18:11:00,35.2,34.7,29.09,NNE,20,0.0,0.0,98,0.00,,,0.51,VWS V14.01,2013-02-28 23:11:00,
2013-02-28 18:12:00,35.2,34.7,29.09,NNE,20,0.0,0.0,98,0.00,,,0.51,VWS V14.01,2013-02-28 23:12:00,
2013-02-28 18:13:00,35.2,34.7,29.09,NNE,20,0.0,0.0,98,0.00,,,0.51,VWS V14.01,2013-02-28 23:13:00,
2013-02-28 18:14:00,35.2,34.7,29.09,SW,222,0.0,2.7,98,0.00,,,0.51,VWS V14.01,2013-02-28 23:14:00,
2013-02-28 18:15:00,35.2,34.7,29.09,ENE,65,0.0,0.0,98,0.00,,,0.51,VWS V14.01,2013-02-28 23:15:00,
2013-02-28 18:16:00,35.4,34.9,29.09,ENE,65,0.0,0.0,98,0.00,,,0.51,VWS V14.01,2013-02-28 23:16:00,
2013-02-28 18:17:00,35.4,34.9,29.09,ENE,65,0.0,0.0,98,0.00,,,0.51,VWS V14.01,2013-02-28 23:17:00,
2013-02-28 18:18:00,35.4,34.9,29.09,NW,324,0.0,0.0,98,0.00,,,0.51,VWS V14.01,2013-02-28 23:18:00,
2013-02-28 18:19:00,35.4,34.9,29.09,NW,324,0.0,0.0,98,0.00,,,0.51,VWS V14.01,2013-02-28 23:19:00,
2013-02-28 18:20:00,35.4,34.9,29.09,NW,324,0.0,0.0,98,0.00,,,0.51,VWS V14.01,2013-02-28 23:20:00,
2013-02-28 18:21:00,35.2,34.7,29.09,NW,324,0.0,0.0,98,0.00,,,0.51,VWS V14.01,2013-02-28 23:21:00,
2013-02-28 18:22:00,35.2,34.7,29.09,NW,324,0.0,0.0,98,0.00,,,0.51,VWS V14.01,2013-02-28 23:22:00,
2013-02-28 18:23:00,35.2,34.7,29.09,NNE,12,0.0,0.0,98,0.00,,,0.51,VWS V14.01,2013-02-28 23:23:00,
2013-02-28 18:24:00,35.2,34.7,29.09,NNE,15,0.0,0.0,98,0.00,,,0.51,VWS V14.01,2013-02-28 23:24:00,
2013-02-28 18:25:00,35.2,34.7,29.09,NW,315,0.0,0.0,98,0.00,,,0.51,VWS V14.01,2013-02-28 23:25:00,
2013-02-28 18:26:00,35.2,34.7,29.09,NW,319,0.0,0.0,98,0.00,,,0.51,VWS V14.01,2013-02-28 23:26:00,
2013-02-28 18:27:00,35.1,34.5,29.09,NW,319,0.0,0.0,98,0.00,,,0.51,VWS V14.01,2013-02-28 23:27:00,
2013-02-28 18:28:00,35.1,34.5,29.09,NNE,25,0.0,0.0,98,0.00,,,0.51,VWS V14.01,2013-02-28 23:28:00,
2013-02-28 18:29:00,35.1,34.5,29.09,NNE,25,0.0,0.0,98,0.00,,,0.51,VWS V14.01,2013-02-28 23:29:00,
2013-02-28 18:30:00,35.1,34.5,29.09,NNE,25,0.0,0.0,98,0.00,,,0.51,VWS V14.01,2013-02-28 23:30:00,
2013-02-28 18:31:00,35.1,34.5,29.09,NNE,25,0.0,0.0,98,0.00,,,0.51,VWS V14.01,2013-02-28 23:31:00,
2013-02-28 18:32:00,35.1,34.5,29.09,NNE,25,0.0,0.0,98,0.00,,,0.51,VWS V14.01,2013-02-28 23:32:00,
2013-02-28 18:33:00,35.1,34.5,29.09,NNE,25,0.0,0.0,98,0.00,,,0.51,VWS V14.01,2013-02-28 23:33:00,
2013-02-28 18:34:00,35.1,34.5,29.09,NNE,25,0.0,0.0,98,0.00,,,0.51,VWS V14.01,2013-02-28 23:34:00,
2013-02-28 18:35:00,35.1,34.5,29.09,NNE,25,0.0,0.0,98,0.00,,,0.51,VWS V14.01,2013-02-28 23:35:00,
2013-02-28 18:36:00,35.1,34.5,29.09,NNE,25,0.0,0.0,98,0.00,,,0.51,VWS V14.01,2013-02-28 23:36:00,
2013-02-28 18:37:00,35.1,34.5,29.09,NNE,25,0.0,0.0,98,0.00,,,0.51,VWS V14.01,2013-02-28 23:37:00,
2013-02-28 18:38:00,35.1,34.5,29.09,NE,38,0.0,0.0,98,0.00,,,0.51,VWS V14.01,2013-02-28 23:38:00,
2013-02-28 18:39:00,35.1,34.5,29.09,NE,38,0.0,0.0,98,0.00,,,0.51,VWS V14.01,2013-02-28 23:39:00,
2013-02-28 18:40:00,34.9,34.4,29.09,NE,38,0.0,0.0,98,0.00,,,0.51,VWS V14.01,2013-02-28 23:40:00,
2013-02-28 18:41:00,34.9,34.4,29.09,NE,38,0.0,0.0,98,0.00,,,0.51,VWS V14.01,2013-02-28 23:41:00,
2013-02-28 18:42:00,34.9,34.4,29.09,NE,38,0.0,0.0,98,0.00,,,0.51,VWS V14.01,2013-02-28 23:42:00,
2013-02-28 18:43:00,34.9,34.4,29.09,NE,38,0.0,0.0,98,0.00,,,0.51,VWS V14.01,2013-02-28 23:43:00,
2013-02-28 18:44:00,34.9,34.4,29.09,NNE,14,0.0,0.0,98,0.00,,,0.51,VWS V14.01,2013-02-28 23:44:00,
2013-02-28 18:45:00,34.9,34.4,29.09,NNE,14,0.0,0.0,98,0.00,,,0.51,VWS V14.01,2013-02-28 23:45:00,
2013-02-28 18:46:00,34.9,34.4,29.09,NNE,14,0.0,0.0,98,0.00,,,0.51,VWS V14.01,2013-02-28 23:46:00,
2013-02-28 18:47:00,34.9,34.4,29.09,NE,39,0.0,0.0,98,0.00,,,0.51,VWS V14.01,2013-02-28 23:47:00,
2013-02-28 18:48:00,34.9,34.4,29.09,NE,39,0.0,0.0,98,0.00,,,0.51,VWS V14.01,2013-02-28 23:48:00,
2013-02-28 18:49:00,34.9,34.4,29.09,NE,39,0.0,0.0,98,0.00,,,0.51,VWS V14.01,2013-02-28 23:49:00,
2013-02-28 18:50:00,34.9,34.4,29.09,NE,39,0.0,0.0,98,0.00,,,0.51,VWS V14.01,2013-02-28 23:50:00,
2013-02-28 18:51:00,34.9,34.4,29.09,NE,39,0.0,0.0,98,0.00,,,0.51,VWS V14.01,2013-02-28 23:51:00,
2013-02-28 18:52:00,34.9,34.4,29.09,NE,39,0.0,0.0,98,0.00,,,0.51,VWS V14.01,2013-02-28 23:52:00,
2013-02-28 18:53:00,34.7,34.2,29.09,NE,39,0.0,0.0,98,0.00,,,0.51,VWS V14.01,2013-02-28 23:53:00,
2013-02-28 18:54:00,34.7,34.2,29.09,NE,39,0.0,0.0,98,0.00,,,0.51,VWS V14.01,2013-02-28 23:54:00,
2013-02-28 18:55:00,34.7,34.2,29.09,NE,43,0.0,0.0,98,0.00,,,0.51,VWS V14.01,2013-02-28 23:55:00,
2013-02-28 18:56:00,34.7,34.2,29.09,NE,43,0.0,0.0,98,0.00,,,0.51,VWS V14.01,2013-02-28 23:56:00,
2013-02-28 18:57:00,34.7,34.2,29.09,NE,44,0.0,0.0,98,0.00,,,0.51,VWS V14.01,2013-02-28 23:57:00,
2013-02-28 18:58:00,34.7,34.2,29.09,NE,44,0.0,0.0,98,0.00,,,0.51,VWS V14.01,2013-02-28 23:58:00,
2013-02-28 18:59:00,34.7,34.2,29.09,NE,44,0.0,0.0,98,0.00,,,0.51,VWS V14.01,2013-02-28 23:59:00,
2013-02-28 19:00:00,34.7,34.2,29.09,NNE,15,4.5,4.5,98,0.00,,,0.51,VWS V14.01,2013-03-01 00:00:00,
2013-02-28 19:01:00,34.7,34.2,29.09,NNE,15,0.0,2.2,98,0.00,,,0.51,VWS V14.01,2013-03-01 00:01:00,
2013-02-28 19:02:00,34.7,34.2,29.09,NE,40,0.0,0.0,98,0.00,,,0.51,VWS V14.01,2013-03-01 00:02:00,
2013-02-28 19:03:00,34.7,34.2,29.09,NNE,24,0.0,0.0,98,0.00,,,0.51,VWS V14.01,2013-03-01 00:03:00,
2013-02-28 19:04:00,34.7,34.2,29.09,NNE,24,0.0,0.0,98,0.00,,,0.51,VWS V14.01,2013-03-01 00:04:00,
2013-02-28 19:05:00,34.7,34.2,29.09,NNE,24,0.0,0.0,98,0.00,,,0.51,VWS V14.01,2013-03-01 00:05:00,
2013-02-28 19:06:00,34.7,34.2,29.09,NNE,24,0.0,0.0,98,0.00,,,0.51,VWS V14.01,2013-03-01 00:06:00,
2013-02-28 19:07:00,34.7,34.2,29.09,NNE,24,0.0,0.0,98,0.00,,,0.51,VWS V14.01,2013-03-01 00:07:00,
2013-02-28 19:08:00,34.7,34.2,29.09,NNE,24,0.0,0.0,98,0.00,,,0.51,VWS V14.01,2013-03-01 00:08:00,
2013-02-28 19:09:00,34.7,34.2,29.09,NNE,24,0.0,0.0,98,0.00,,,0.51,VWS V14.01,2013-03-01 00:09:00,
2013-02-28 19:10:00,34.7,34.2,29.09,NNE,24,0.0,0.0,98,0.00,,,0.51,VWS V14.01,2013-03-01 00:10:00,
2013-02-28 19:11:00,34.2,33.7,29.12,NE,35,0.0,0.0,98,0.00,,FEW110,0.51,VWS V14.01,2013-03-01 00:11:00,
2013-02-28 19:12:00,34.0,33.5,29.12,NE,35,0.0,0.0,98,0.00,,FEW110,0.51,VWS V14.01,2013-03-01 00:12:00,
2013-02-28 19:14:00,34.0,33.5,29.12,NNE,29,0.0,0.0,98,0.00,,FEW110,0.51,VWS V14.01,2013-03-01 00:14:00,
2013-02-28 19:15:00,34.0,33.5,29.12,NNE,25,0.0,0.0,98,0.00,,FEW110,0.51,VWS V14.01,2013-03-01 00:15:00,
2013-02-28 19:16:00,34.0,33.5,29.12,NE,45,5.4,5.4,98,0.00,,FEW110,0.51,VWS V14.01,2013-03-01 00:16:00,
2013-02-28 19:17:00,34.0,33.5,29.12,NE,45,0.0,2.7,98,0.00,,FEW110,0.51,VWS V14.01,2013-03-01 00:17:00,
2013-02-28 19:18:00,34.0,33.5,29.12,NE,45,0.0,0.0,98,0.00,,FEW110,0.51,VWS V14.01,2013-03-01 00:18:00,
2013-02-28 19:19:00,34.0,33.5,29.12,NE,44,0.0,0.0,98,0.00,,FEW110,0.51,VWS V14.01,2013-03-01 00:19:00,
2013-02-28 19:20:00,34.0,33.5,29.12,NE,45,0.0,0.0,98,0.00,,FEW110,0.51,VWS V14.01,2013-03-01 00:20:00,
2013-02-28 19:21:00,34.0,33.5,29.12,North,6,0.0,0.0,98,0.00,,FEW110,0.51,VWS V14.01,2013-03-01 00:21:00,
2013-02-28 19:22:00,34.0,33.5,29.12,NE,39,0.0,0.0,98,0.00,,FEW110,0.51,VWS V14.01,2013-03-01 00:22:00,
2013-02-28 19:23:00,33.8,33.3,29.12,NE,39,0.0,0.0,98,0.00,,FEW110,0.51,VWS V14.01,2013-03-01 00:23:00,
2013-02-28 19:24:00,33.8,33.3,29.12,NE,39,0.0,0.0,98,0.00,,FEW110,0.51,VWS V14.01,2013-03-01 00:24:00,
2013-02-28 19:25:00,33.8,33.3,29.12,NE,39,0.0,0.0,98,0.00,,FEW110,0.51,VWS V14.01,2013-03-01 00:25:00,
2013-02-28 19:26:00,33.8,33.3,29.12,NE,39,0.0,0.0,98,0.00,,FEW110,0.51,VWS V14.01,2013-03-01 00:26:00,
2013-02-28 19:27:00,33.8,33.3,29.12,NNE,21,4.5,4.5,98,0.00,,FEW110,0.51,VWS V14.01,2013-03-01 00:27:00,
2013-02-28 19:28:00,33.8,33.3,29.12,NNE,21,0.0,2.2,98,0.00,,FEW110,0.51,VWS V14.01,2013-03-01 00:28:00,
2013-02-28 19:29:00,33.8,33.3,29.12,NNE,21,0.0,0.0,98,0.00,,FEW110,0.51,VWS V14.01,2013-03-01 00:29:00,
2013-02-28 19:30:00,33.8,33.3,29.12,North,3,0.0,0.0,98,0.00,,FEW110,0.51,VWS V14.01,2013-03-01 00:30:00,
2013-02-28 19:31:00,33.8,33.3,29.12,North,3,0.0,0.0,98,0.00,,FEW110,0.51,VWS V14.01,2013-03-01 00:31:00,
2013-02-28 19:32:00,33.8,33.3,29.12,North,3,0.0,0.0,98,0.00,,FEW110,0.51,VWS V14.01,2013-03-01 00:32:00,
2013-02-28 19:33:00,33.8,33.3,29.12,NNE,31,5.4,5.4,98,0.00,,FEW110,0.51,VWS V14.01,2013-03-01 00:33:00,
2013-02-28 19:34:00,33.8,33.3,29.12,NNE,19,0.0,3.1,98,0.00,,FEW110,0.51,VWS V14.01,2013-03-01 00:34:00,
2013-02-28 19:35:00,33.8,33.3,29.12,NNE,19,0.0,0.0,98,0.00,,FEW110,0.51,VWS V14.01,2013-03-01 00:35:00,
2013-02-28 19:36:00,34.5,34.0,29.09,NE,34,0.0,0.0,98,0.00,,,0.51,VWS V14.01,2013-03-01 00:36:00,
2013-02-28 19:37:00,33.8,33.3,29.12,NNE,19,0.0,0.0,98,0.00,,FEW110,0.51,VWS V14.01,2013-03-01 00:37:00,
2013-02-28 19:38:00,33.8,33.3,29.12,NNE,19,0.0,0.0,98,0.00,,FEW110,0.51,VWS V14.01,2013-03-01 00:38:00,
2013-02-28 19:39:00,33.8,33.3,29.12,NNE,19,0.0,0.0,98,0.00,,FEW110,0.51,VWS V14.01,2013-03-01 00:39:00,
2013-02-28 19:40:00,33.8,33.3,29.12,NNE,19,0.0,0.0,98,0.00,,FEW110,0.51,VWS V14.01,2013-03-01 00:40:00,
2013-02-28 19:41:00,34.5,34.0,29.09,NNE,26,0.0,0.0,98,0.00,,,0.51,VWS V14.01,2013-03-01 00:41:00,
2013-02-28 19:42:00,33.8,33.3,29.12,NNE,17,0.0,0.0,98,0.00,,FEW110,0.51,VWS V14.01,2013-03-01 00:42:00,
2013-02-28 19:43:00,33.8,33.3,29.12,NNE,21,0.0,0.0,98,0.00,,FEW110,0.51,VWS V14.01,2013-03-01 00:43:00,
2013-02-28 19:44:00,33.8,33.3,29.12,NNE,21,0.0,0.0,98,0.00,,FEW110,0.51,VWS V14.01,2013-03-01 00:44:00,
2013-02-28 19:45:00,33.8,33.3,29.12,NNE,21,0.0,0.0,98,0.00,,FEW110,0.51,VWS V14.01,2013-03-01 00:45:00,
2013-02-28 19:46:00,34.5,34.0,29.09,NNE,23,0.0,0.0,98,0.00,,,0.51,VWS V14.01,2013-03-01 00:46:00,
2013-02-28 19:47:00,33.8,33.3,29.12,NNE,19,0.0,0.0,98,0.00,,FEW110,0.51,VWS V14.01,2013-03-01 00:47:00,
2013-02-28 19:48:00,33.8,33.3,29.12,NE,44,0.0,0.0,98,0.00,,FEW110,0.51,VWS V14.01,2013-03-01 00:48:00,
2013-02-28 19:49:00,33.6,33.1,29.12,NNE,16,0.0,0.0,98,0.00,,FEW110,0.51,VWS V14.01,2013-03-01 00:49:00,
2013-02-28 19:50:00,33.6,33.1,29.12,NNE,16,0.0,0.0,98,0.00,,FEW110,0.51,VWS V14.01,2013-03-01 00:50:00,
2013-02-28 19:51:00,34.3,33.8,29.12,NNE,23,0.0,0.0,98,0.00,,,0.51,VWS V14.01,2013-03-01 00:51:00,
2013-02-28 19:52:00,33.6,33.1,29.12,NE,34,0.0,0.0,98,0.00,,FEW110,0.51,VWS V14.01,2013-03-01 00:52:00,
2013-02-28 19:53:00,33.6,33.1,29.12,NE,34,0.0,0.0,98,0.00,,FEW110,0.51,VWS V14.01,2013-03-01 00:53:00,
2013-02-28 19:54:00,33.6,33.1,29.12,NE,34,0.0,0.0,98,0.00,,FEW110,0.51,VWS V14.01,2013-03-01 00:54:00,
2013-02-28 19:55:00,33.6,33.1,29.12,NE,34,0.0,0.0,98,0.00,,FEW110,0.51,VWS V14.01,2013-03-01 00:55:00,
2013-02-28 19:56:00,34.3,33.8,29.12,NNE,33,0.0,0.0,98,0.00,,,0.51,VWS V14.01,2013-03-01 00:56:00,
2013-02-28 19:57:00,33.6,33.1,29.12,NE,34,0.0,0.0,98,0.00,,FEW110,0.51,VWS V14.01,2013-03-01 00:57:00,
2013-02-28 19:58:00,33.6,33.1,29.12,NE,34,0.0,0.0,98,0.00,,FEW110,0.51,VWS V14.01,2013-03-01 00:58:00,
2013-02-28 19:59:00,33.6,33.1,29.12,NE,34,0.0,0.0,98,0.00,,FEW110,0.51,VWS V14.01,2013-03-01 00:59:00,
2013-02-28 20:00:00,33.6,33.1,29.12,NE,34,0.0,0.0,98,0.00,,FEW110,0.51,VWS V14.01,2013-03-01 01:00:00,
2013-02-28 20:01:00,33.6,33.1,29.12,NE,34,0.0,0.0,98,0.00,,FEW110,0.51,VWS V14.01,2013-03-01 01:01:00,
2013-02-28 20:02:00,34.3,33.8,29.12,North,357,0.0,0.0,98,0.00,,,0.51,VWS V14.01,2013-03-01 01:02:00,
2013-02-28 20:03:00,33.6,33.1,29.12,NE,34,0.0,0.0,98,0.00,,FEW110,0.51,VWS V14.01,2013-03-01 01:03:00,
2013-02-28 20:04:00,33.6,33.1,29.12,NNE,33,0.0,0.0,98,0.00,,FEW110,0.51,VWS V14.01,2013-03-01 01:04:00,
2013-02-28 20:05:00,33.6,33.1,29.12,NE,38,0.0,2.7,98,0.00,,FEW110,0.51,VWS V14.01,2013-03-01 01:05:00,
2013-02-28 20:06:00,33.6,33.1,29.12,North,357,0.0,0.0,98,0.00,,FEW110,0.51,VWS V14.01,2013-03-01 01:06:00,
2013-02-28 20:07:00,34.2,33.7,29.12,NE,41,0.0,2.2,98,0.00,,,0.51,VWS V14.01,2013-03-01 01:07:00,
2013-02-28 20:08:00,33.6,33.1,29.12,North,357,0.0,0.0,98,0.00,,FEW110,0.51,VWS V14.01,2013-03-01 01:08:00,
2013-02-28 20:09:00,33.6,33.1,29.12,NNE,24,0.0,0.0,98,0.00,,FEW110,0.51,VWS V14.01,2013-03-01 01:09:00,
2013-02-28 20:10:00,33.6,33.1,29.12,NNE,24,0.0,0.0,98,0.00,,FEW110,0.51,VWS V14.01,2013-03-01 01:10:00,
2013-02-28 20:11:00,33.4,32.9,29.12,NNE,24,0.0,0.0,98,0.00,,FEW110,0.51,VWS V14.01,2013-03-01 01:11:00,
2013-02-28 20:12:00,34.0,33.5,29.12,NE,35,0.0,0.0,98,0.00,,,0.51,VWS V14.01,2013-03-01 01:12:00,
2013-02-28 20:13:00,33.4,32.9,29.12,NNE,24,0.0,0.0,98,0.00,,FEW110,0.51,VWS V14.01,2013-03-01 01:13:00,
2013-02-28 20:14:00,33.4,32.9,29.12,NNE,24,0.0,0.0,98,0.00,,FEW110,0.51,VWS V14.01,2013-03-01 01:14:00,
2013-02-28 20:15:00,33.4,32.9,29.12,WNW,299,0.0,0.0,98,0.00,,FEW110,0.51,VWS V14.01,2013-03-01 01:15:00,
2013-02-28 20:16:00,33.4,32.9,29.12,NNE,30,0.0,0.0,98,0.00,,FEW110,0.51,VWS V14.01,2013-03-01 01:16:00,
2013-02-28 20:17:00,34.0,33.5,29.12,NE,45,0.0,2.7,98,0.00,,,0.51,VWS V14.01,2013-03-01 01:17:00,
2013-02-28 20:18:00,33.4,32.9,29.09,NNE,22,0.0,0.0,98,0.00,,FEW110,0.51,VWS V14.01,2013-03-01 01:18:00,
2013-02-28 20:19:00,33.4,32.9,29.09,NNE,22,0.0,0.0,98,0.00,,FEW110,0.51,VWS V14.01,2013-03-01 01:19:00,
2013-02-28 20:20:00,33.4,32.9,29.09,NNE,22,0.0,0.0,98,0.00,,FEW110,0.51,VWS V14.01,2013-03-01 01:20:00,
2013-02-28 20:21:00,33.4,32.9,29.09,NNE,22,0.0,0.0,98,0.00,,FEW110,0.51,VWS V14.01,2013-03-01 01:21:00,
2013-02-28 20:22:00,34.0,33.5,29.12,NE,39,0.0,0.0,98,0.00,,,0.51,VWS V14.01,2013-03-01 01:22:00,
2013-02-28 20:23:00,33.3,32.8,29.09,NNE,22,0.0,0.0,98,0.00,,FEW110,0.51,VWS V14.01,2013-03-01 01:23:00,
2013-02-28 20:24:00,33.3,32.8,29.09,North,353,0.0,2.2,98,0.00,,FEW110,0.51,VWS V14.01,2013-03-01 01:24:00,
2013-02-28 20:25:00,33.3,32.8,29.09,North,353,8.9,8.9,98,0.00,,FEW110,0.51,VWS V14.01,2013-03-01 01:25:00,
2013-02-28 20:26:00,33.3,32.8,29.09,NNE,31,0.0,4.5,98,0.00,,FEW110,0.51,VWS V14.01,2013-03-01 01:26:00,
2013-02-28 20:27:00,33.8,33.3,29.12,NNE,21,0.0,2.2,98,0.00,,,0.51,VWS V14.01,2013-03-01 01:27:00,
2013-02-28 20:28:00,33.3,32.8,29.09,NNE,31,0.0,0.0,98,0.00,,FEW110,0.51,VWS V14.01,2013-03-01 01:28:00,
2013-02-28 20:29:00,33.3,32.8,29.09,NW,305,8.1,8.1,98,0.00,,FEW110,0.51,VWS V14.01,2013-03-01 01:29:00,
2013-02-28 20:30:00,33.3,32.8,29.09,NNE,27,0.0,4.0,98,0.00,,FEW110,0.51,VWS V14.01,2013-03-01 01:30:00,
2013-02-28 20:31:00,33.3,32.8,29.09,NNE,27,0.0,0.0,98,0.00,,FEW110,0.51,VWS V14.01,2013-03-01 01:31:00,
2013-02-28 20:32:00,33.8,33.3,29.12,North,3,0.0,0.0,98,0.00,,,0.51,VWS V14.01,2013-03-01 01:32:00,
2013-02-28 20:33:00,33.3,32.8,29.09,West,278,0.0,0.0,98,0.00,,FEW110,0.51,VWS V14.01,2013-03-01 01:33:00,
2013-02-28 20:34:00,33.3,32.8,29.09,NNE,26,0.0,0.0,98,0.00,,FEW110,0.51,VWS V14.01,2013-03-01 01:34:00,
2013-02-28 20:35:00,33.1,32.6,29.09,NE,38,0.0,4.0,98,0.00,,FEW110,0.51,VWS V14.01,2013-03-01 01:35:00,
2013-02-28 20:36:00,33.1,32.6,29.09,NNW,341,0.0,0.0,98,0.00,,FEW110,0.51,VWS V14.01,2013-03-01 01:36:00,
2013-02-28 20:37:00,33.8,33.3,29.12,NNE,19,0.0,0.0,98,0.00,,,0.51,VWS V14.01,2013-03-01 01:37:00,
2013-02-28 20:38:00,33.1,32.6,29.09,NNW,342,0.0,0.0,98,0.00,,FEW110,0.51,VWS V14.01,2013-03-01 01:38:00,
2013-02-28 20:39:00,33.1,32.6,29.09,NE,49,0.0,0.0,98,0.00,,FEW110,0.51,VWS V14.01,2013-03-01 01:39:00,
2013-02-28 20:40:00,33.1,32.6,29.09,NE,38,0.0,0.0,98,0.00,,FEW110,0.51,VWS V14.01,2013-03-01 01:40:00,
2013-02-28 20:41:00,33.1,32.6,29.09,NE,38,0.0,0.0,98,0.00,,FEW110,0.51,VWS V14.01,2013-03-01 01:41:00,
2013-02-28 20:42:00,33.8,33.3,29.12,NE,44,0.0,0.0,98,0.00,,,0.51,VWS V14.01,2013-03-01 01:42:00,
2013-02-28 20:43:00,33.1,32.6,29.09,NW,320,0.0,0.0,98,0.00,,FEW110,0.51,VWS V14.01,2013-03-01 01:43:00,
2013-02-28 20:44:00,33.1,32.6,29.09,North,353,0.0,3.6,98,0.00,,FEW110,0.51,VWS V14.01,2013-03-01 01:44:00,
2013-02-28 20:45:00,33.1,32.6,29.09,North,353,0.0,0.0,98,0.00,,FEW110,0.51,VWS V14.01,2013-03-01 01:45:00,
2013-02-28 20:46:00,33.1,32.6,29.09,North,353,0.0,0.0,98,0.00,,FEW110,0.51,VWS V14.01,2013-03-01 01:46:00,
2013-02-28 20:47:00,33.8,33.3,29.12,NNE,19,0.0,0.0,98,0.00,,,0.51,VWS V14.01,2013-03-01 01:47:00,
2013-02-28 20:48:00,33.1,32.6,29.09,NNE,31,0.0,0.0,98,0.00,,FEW110,0.51,VWS V14.01,2013-03-01 01:48:00,
2013-02-28 20:49:00,33.1,32.6,29.09,NNE,31,0.0,0.0,98,0.00,,FEW110,0.51,VWS V14.01,2013-03-01 01:49:00,
2013-02-28 20:50:00,33.1,32.6,29.09,NNE,22,0.0,0.0,98,0.00,,FEW110,0.51,VWS V14.01,2013-03-01 01:50:00,
2013-02-28 20:51:00,33.1,32.6,29.09,NNE,16,0.0,0.0,98,0.00,,FEW110,0.51,VWS V14.01,2013-03-01 01:51:00,
2013-02-28 20:52:00,33.1,32.6,29.09,NNE,16,0.0,0.0,98,0.00,,FEW110,0.51,VWS V14.01,2013-03-01 01:52:00,
2013-02-28 20:53:00,33.6,33.1,29.12,NE,34,0.0,0.0,98,0.00,,,0.51,VWS V14.01,2013-03-01 01:53:00,
2013-02-28 20:54:00,33.1,32.6,29.09,NE,45,0.0,0.0,98,0.00,,FEW110,0.51,VWS V14.01,2013-03-01 01:54:00,
2013-02-28 20:55:00,33.1,32.6,29.09,NNW,342,0.0,0.0,98,0.00,,FEW110,0.51,VWS V14.01,2013-03-01 01:55:00,
2013-02-28 20:56:00,33.1,32.6,29.09,North,357,0.0,0.0,98,0.00,,FEW110,0.51,VWS V14.01,2013-03-01 01:56:00,
2013-02-28 20:57:00,33.1,32.6,29.09,NNE,16,0.0,0.0,98,0.00,,FEW110,0.51,VWS V14.01,2013-03-01 01:57:00,
2013-02-28 20:58:00,33.6,33.1,29.12,NE,34,0.0,0.0,98,0.00,,,0.51,VWS V14.01,2013-03-01 01:58:00,
2013-02-28 20:59:00,33.1,32.6,29.09,North,9,0.0,0.0,98,0.00,,FEW110,0.51,VWS V14.01,2013-03-01 01:59:00,
2013-02-28 21:00:00,33.1,32.6,29.09,NE,40,0.0,0.0,98,0.00,,FEW110,0.51,VWS V14.01,2013-03-01 02:00:00,
2013-02-28 21:01:00,33.1,32.6,29.09,NE,44,0.0,0.0,98,0.00,,FEW110,0.51,VWS V14.01,2013-03-01 02:01:00,
2013-02-28 21:02:00,33.1,32.6,29.09,NNW,327,0.0,0.0,98,0.00,,FEW110,0.51,VWS V14.01,2013-03-01 02:02:00,
2013-02-28 21:03:00,33.6,33.1,29.12,NE,34,0.0,0.0,98,0.00,,OVC009,0.51,VWS V14.01,2013-03-01 02:03:00,
2013-02-28 21:04:00,33.1,32.6,29.09,NNE,29,0.0,0.0,98,0.00,,FEW110,0.51,VWS V14.01,2013-03-01 02:04:00,
2013-02-28 21:05:00,33.1,32.6,29.09,NNE,29,0.0,0.0,98,0.00,,FEW110,0.51,VWS V14.01,2013-03-01 02:05:00,
2013-02-28 21:06:00,33.1,32.6,29.09,NNE,29,0.0,0.0,98,0.00,,FEW110,0.51,VWS V14.01,2013-03-01 02:06:00,
2013-02-28 21:07:00,33.1,32.6,29.09,NNE,29,0.0,0.0,98,0.00,,FEW110,0.51,VWS V14.01,2013-03-01 02:07:00,
2013-02-28 21:08:00,33.6,33.1,29.12,North,357,0.0,0.0,98,0.00,,OVC009,0.51,VWS V14.01,2013-03-01 02:08:00,
2013-02-28 21:09:00,33.1,32.6,29.09,NNW,329,0.0,0.0,98,0.00,,FEW110,0.51,VWS V14.01,2013-03-01 02:09:00,
2013-02-28 21:10:00,33.1,32.6,29.09,North,9,7.2,7.2,98,0.00,,FEW110,0.51,VWS V14.01,2013-03-01 02:10:00,
2013-02-28 21:11:00,33.1,32.6,29.09,NE,37,5.4,5.4,98,0.00,,FEW110,0.51,VWS V14.01,2013-03-01 02:11:00,
2013-02-28 21:12:00,32.9,32.4,29.09,NE,42,4.5,4.5,98,0.00,,FEW110,0.51,VWS V14.01,2013-03-01 02:12:00,
2013-02-28 21:13:00,33.4,32.9,29.12,NNE,24,0.0,0.0,98,0.00,,OVC009,0.51,VWS V14.01,2013-03-01 02:13:00,
2013-02-28 21:14:00,32.9,32.4,29.09,NE,42,0.0,0.0,98,0.00,,FEW110,0.51,VWS V14.01,2013-03-01 02:14:00,
2013-02-28 21:15:00,32.9,32.4,29.09,NE,42,0.0,0.0,98,0.00,,FEW110,0.51,VWS V14.01,2013-03-01 02:15:00,
2013-02-28 21:16:00,32.9,32.4,29.09,NE,43,0.0,0.0,98,0.00,,FEW110,0.51,VWS V14.01,2013-03-01 02:16:00,
2013-02-28 21:17:00,32.9,32.4,29.09,NE,43,0.0,0.0,98,0.00,,FEW110,0.51,VWS V14.01,2013-03-01 02:17:00,
2013-02-28 21:18:00,33.4,32.9,29.09,NNE,22,0.0,0.0,98,0.00,,OVC009,0.51,VWS V14.01,2013-03-01 02:18:00,
2013-02-28 21:19:00,32.9,32.4,29.09,NE,43,0.0,0.0,98,0.00,,FEW110,0.51,VWS V14.01,2013-03-01 02:19:00,
2013-02-28 21:20:00,32.9,32.4,29.09,NE,43,0.0,0.0,98,0.00,,FEW110,0.51,VWS V14.01,2013-03-01 02:20:00,
2013-02-28 21:21:00,32.9,32.4,29.09,NE,43,0.0,0.0,98,0.00,,FEW110,0.51,VWS V14.01,2013-03-01 02:21:00,
2013-02-28 21:22:00,32.9,32.4,29.09,NE,43,0.0,0.0,98,0.00,,FEW110,0.51,VWS V14.01,2013-03-01 02:22:00,
2013-02-28 21:23:00,33.3,32.8,29.09,NNE,24,4.5,4.5,98,0.00,,OVC009,0.51,VWS V14.01,2013-03-01 02:23:00,
2013-02-28 21:24:00,32.9,32.4,29.09,NE,43,0.0,0.0,98,0.00,,FEW110,0.51,VWS V14.01,2013-03-01 02:24:00,
2013-02-28 21:25:00,32.9,32.4,29.09,NE,43,0.0,0.0,98,0.00,,FEW110,0.51,VWS V14.01,2013-03-01 02:25:00,
2013-02-28 21:26:00,32.9,32.4,29.09,NNW,339,0.0,0.0,98,0.00,,FEW110,0.51,VWS V14.01,2013-03-01 02:26:00,
2013-02-28 21:27:00,32.9,32.4,29.09,NNE,15,0.0,0.0,98,0.00,,FEW110,0.51,VWS V14.01,2013-03-01 02:27:00,
2013-02-28 21:28:00,33.3,32.8,29.09,NNE,31,0.0,0.0,98,0.00,,OVC009,0.51,VWS V14.01,2013-03-01 02:28:00,
2013-02-28 21:29:00,32.9,32.4,29.09,NNE,15,0.0,0.0,98,0.00,,FEW110,0.51,VWS V14.01,2013-03-01 02:29:00,
2013-02-28 21:30:00,32.9,32.4,29.09,NNE,15,0.0,0.0,98,0.00,,FEW110,0.51,VWS V14.01,2013-03-01 02:30:00,
2013-02-28 21:31:00,32.9,32.4,29.09,NE,37,0.0,2.2,98,0.00,,FEW110,0.51,VWS V14.01,2013-03-01 02:31:00,
2013-02-28 21:32:00,32.9,32.4,29.09,NE,37,0.0,0.0,98,0.00,,FEW110,0.51,VWS V14.01,2013-03-01 02:32:00,
2013-02-28 21:33:00,33.3,32.8,29.09,NNE,27,0.0,0.0,98,0.00,,OVC009,0.51,VWS V14.01,2013-03-01 02:33:00,
2013-02-28 21:34:00,32.9,32.4,29.09,NE,36,0.0,0.0,98,0.00,,FEW110,0.51,VWS V14.01,2013-03-01 02:34:00,
2013-02-28 21:35:00,32.9,32.4,29.09,NE,36,0.0,0.0,98,0.00,,FEW110,0.51,VWS V14.01,2013-03-01 02:35:00,
2013-02-28 21:36:00,32.9,32.4,29.09,NE,36,0.0,0.0,98,0.00,,FEW110,0.51,VWS V14.01,2013-03-01 02:36:00,
2013-02-28 21:37:00,32.9,32.4,29.09,NE,36,0.0,0.0,98,0.00,,FEW110,0.51,VWS V14.01,2013-03-01 02:37:00,
2013-02-28 21:38:00,32.9,32.4,29.09,NE,36,0.0,0.0,98,0.00,,FEW110,0.51,VWS V14.01,2013-03-01 02:38:00,
2013-02-28 21:39:00,33.1,32.6,29.09,NNW,343,0.0,0.0,98,0.00,,OVC009,0.51,VWS V14.01,2013-03-01 02:39:00,
2013-02-28 21:40:00,32.9,32.4,29.09,NE,36,0.0,0.0,98,0.00,,FEW110,0.51,VWS V14.01,2013-03-01 02:40:00,
2013-02-28 21:41:00,32.9,32.4,29.09,NE,36,0.0,0.0,98,0.00,,FEW110,0.51,VWS V14.01,2013-03-01 02:41:00,
2013-02-28 21:42:00,32.9,32.4,29.09,NE,36,0.0,0.0,98,0.00,,FEW110,0.51,VWS V14.01,2013-03-01 02:42:00,
2013-02-28 21:43:00,32.9,32.4,29.09,NE,36,0.0,0.0,98,0.00,,FEW110,0.51,VWS V14.01,2013-03-01 02:43:00,
2013-02-28 21:44:00,33.1,32.6,29.09,North,353,0.0,3.6,98,0.00,,OVC009,0.51,VWS V14.01,2013-03-01 02:44:00,
2013-02-28 21:45:00,32.9,32.4,29.09,NE,36,0.0,0.0,98,0.00,,FEW110,0.51,VWS V14.01,2013-03-01 02:45:00,
2013-02-28 21:46:00,32.9,32.4,29.09,NE,36,0.0,0.0,98,0.00,,FEW110,0.51,VWS V14.01,2013-03-01 02:46:00,
2013-02-28 21:47:00,32.9,32.4,29.09,NE,36,0.0,0.0,98,0.00,,FEW110,0.51,VWS V14.01,2013-03-01 02:47:00,
2013-02-28 21:48:00,32.9,32.4,29.09,NE,36,0.0,0.0,98,0.00,,FEW110,0.51,VWS V14.01,2013-03-01 02:48:00,
2013-02-28 21:49:00,33.1,32.6,29.09,NNE,31,0.0,0.0,98,0.00,,OVC009,0.51,VWS V14.01,2013-03-01 02:49:00,
2013-02-28 21:50:00,32.9,32.4,29.09,NE,36,0.0,0.0,98,0.00,,FEW110,0.51,VWS V14.01,2013-03-01 02:50:00,
2013-02-28 21:51:00,32.9,32.4,29.09,NE,36,0.0,0.0,98,0.00,,FEW110,0.51,VWS V14.01,2013-03-01 02:51:00,
2013-02-28 21:52:00,32.9,32.4,29.09,NE,36,0.0,0.0,98,0.00,,FEW110,0.51,VWS V14.01,2013-03-01 02:52:00,
2013-02-28 21:53:00,32.9,32.4,29.09,NE,36,0.0,0.0,98,0.00,,FEW110,0.51,VWS V14.01,2013-03-01 02:53:00,
2013-02-28 21:54:00,33.1,32.6,29.09,NE,45,0.0,0.0,98,0.00,,OVC009,0.51,VWS V14.01,2013-03-01 02:54:00,
2013-02-28 21:55:00,32.7,32.2,29.09,NE,36,0.0,0.0,98,0.00,,FEW110,0.51,VWS V14.01,2013-03-01 02:55:00,
2013-02-28 21:56:00,32.7,32.2,29.09,NE,36,0.0,0.0,98,0.00,,FEW110,0.51,VWS V14.01,2013-03-01 02:56:00,
2013-02-28 21:57:00,32.7,32.2,29.09,NE,36,0.0,0.0,98,0.00,,FEW110,0.51,VWS V14.01,2013-03-01 02:57:00,
2013-02-28 21:58:00,32.7,32.2,29.09,NE,36,0.0,0.0,98,0.00,,FEW110,0.51,VWS V14.01,2013-03-01 02:58:00,
2013-02-28 21:59:00,33.1,32.6,29.09,North,9,0.0,0.0,98,0.00,,OVC009,0.51,VWS V14.01,2013-03-01 02:59:00,
2013-02-28 22:00:00,32.7,32.2,29.09,NE,36,0.0,0.0,98,0.00,,FEW110,0.51,VWS V14.01,2013-03-01 03:00:00,
2013-02-28 22:01:00,32.7,32.2,29.09,NE,36,0.0,0.0,98,0.00,,FEW110,0.51,VWS V14.01,2013-03-01 03:01:00,
2013-02-28 22:02:00,32.7,32.2,29.09,NE,36,0.0,0.0,98,0.00,,FEW110,0.51,VWS V14.01,2013-03-01 03:02:00,
2013-02-28 22:03:00,32.7,32.2,29.09,NE,36,0.0,0.0,98,0.00,,FEW110,0.51,VWS V14.01,2013-03-01 03:03:00,
2013-02-28 22:04:00,33.1,32.6,29.09,NNE,29,0.0,0.0,98,0.00,,OVC009,0.51,VWS V14.01,2013-03-01 03:04:00,
2013-02-28 22:05:00,32.7,32.2,29.09,NE,36,0.0,0.0,98,0.00,,FEW110,0.51,VWS V14.01,2013-03-01 03:05:00,
2013-02-28 22:06:00,32.7,32.2,29.09,NE,36,0.0,0.0,98,0.00,,FEW110,0.51,VWS V14.01,2013-03-01 03:06:00,
2013-02-28 22:07:00,32.7,32.2,29.09,NE,36,0.0,0.0,98,0.00,,FEW110,0.51,VWS V14.01,2013-03-01 03:07:00,
2013-02-28 22:08:00,32.7,32.2,29.09,NE,36,0.0,0.0,98,0.00,,FEW110,0.51,VWS V14.01,2013-03-01 03:08:00,
2013-02-28 22:09:00,33.1,32.6,29.09,NNW,329,0.0,0.0,98,0.00,,OVC009,0.51,VWS V14.01,2013-03-01 03:09:00,
2013-02-28 22:10:00,32.7,32.2,29.09,NE,36,0.0,0.0,98,0.00,,FEW110,0.51,VWS V14.01,2013-03-01 03:10:00,
2013-02-28 22:11:00,32.7,32.2,29.09,NE,36,0.0,0.0,98,0.00,,FEW110,0.51,VWS V14.01,2013-03-01 03:11:00,
2013-02-28 22:12:00,32.7,32.2,29.09,NE,36,0.0,0.0,98,0.00,,FEW110,0.51,VWS V14.01,2013-03-01 03:12:00,
2013-02-28 22:13:00,32.7,32.2,29.09,NE,36,0.0,0.0,98,0.00,,FEW110,0.51,VWS V14.01,2013-03-01 03:13:00,
2013-02-28 22:14:00,32.9,32.4,29.09,NE,42,0.0,0.0,98,0.00,,OVC007,0.51,VWS V14.01,2013-03-01 03:14:00,
2013-02-28 22:15:00,32.7,32.2,29.09,NE,36,0.0,0.0,98,0.00,,FEW110,0.51,VWS V14.01,2013-03-01 03:15:00,
2013-02-28 22:16:00,32.7,32.2,29.09,NE,36,0.0,0.0,98,0.00,,FEW110,0.51,VWS V14.01,2013-03-01 03:16:00,
2013-02-28 22:17:00,32.7,32.2,29.09,NE,36,0.0,0.0,98,0.00,,FEW110,0.51,VWS V14.01,2013-03-01 03:17:00,
2013-02-28 22:18:00,32.7,32.2,29.09,NE,36,0.0,0.0,98,0.00,,FEW110,0.51,VWS V14.01,2013-03-01 03:18:00,
2013-02-28 22:19:00,32.9,32.4,29.09,NE,43,0.0,0.0,98,0.00,,OVC007,0.51,VWS V14.01,2013-03-01 03:19:00,
2013-02-28 22:20:00,32.7,32.2,29.09,NE,36,0.0,0.0,98,0.00,,FEW110,0.51,VWS V14.01,2013-03-01 03:20:00,
2013-02-28 22:21:00,32.7,32.2,29.09,NE,36,0.0,0.0,98,0.00,,FEW110,0.51,VWS V14.01,2013-03-01 03:21:00,
2013-02-28 22:22:00,32.7,32.2,29.09,NE,36,0.0,0.0,98,0.00,,FEW110,0.51,VWS V14.01,2013-03-01 03:22:00,
2013-02-28 22:23:00,32.7,32.2,29.09,NE,36,0.0,0.0,98,0.00,,FEW110,0.51,VWS V14.01,2013-03-01 03:23:00,
2013-02-28 22:24:00,32.9,32.4,29.09,NE,43,0.0,0.0,98,0.00,,OVC007,0.51,VWS V14.01,2013-03-01 03:24:00,
2013-02-28 22:25:00,32.7,32.2,29.09,NE,36,0.0,0.0,98,0.00,,FEW110,0.51,VWS V14.01,2013-03-01 03:25:00,
2013-02-28 22:26:00,32.5,32.0,29.09,NE,36,0.0,0.0,98,0.00,,FEW110,0.51,VWS V14.01,2013-03-01 03:26:00,
2013-02-28 22:27:00,32.5,32.0,29.09,NE,36,0.0,0.0,98,0.00,,FEW110,0.51,VWS V14.01,2013-03-01 03:27:00,
2013-02-28 22:28:00,32.5,32.0,29.09,NE,36,0.0,0.0,98,0.00,,FEW110,0.51,VWS V14.01,2013-03-01 03:28:00,
2013-02-28 22:29:00,32.9,32.4,29.09,NNE,15,0.0,0.0,98,0.00,,OVC007,0.51,VWS V14.01,2013-03-01 03:29:00,
2013-02-28 22:30:00,32.5,32.0,29.09,NE,36,0.0,0.0,98,0.00,,FEW110,0.51,VWS V14.01,2013-03-01 03:30:00,
2013-02-28 22:31:00,32.5,32.0,29.09,NE,36,0.0,0.0,98,0.00,,FEW110,0.51,VWS V14.01,2013-03-01 03:31:00,
2013-02-28 22:32:00,32.5,32.0,29.09,NE,36,0.0,0.0,98,0.00,,FEW110,0.51,VWS V14.01,2013-03-01 03:32:00,
2013-02-28 22:33:00,32.5,32.0,29.06,NE,36,0.0,0.0,98,0.00,,FEW110,0.51,VWS V14.01,2013-03-01 03:33:00,
2013-02-28 22:34:00,32.5,32.0,29.06,NE,36,0.0,0.0,98,0.00,,FEW110,0.51,VWS V14.01,2013-03-01 03:34:00,
2013-02-28 22:35:00,32.9,32.4,29.09,NE,36,0.0,0.0,98,0.00,,OVC007,0.51,VWS V14.01,2013-03-01 03:35:00,
2013-02-28 22:36:00,32.5,32.0,29.06,NE,36,0.0,0.0,98,0.00,,FEW110,0.51,VWS V14.01,2013-03-01 03:36:00,
2013-02-28 22:37:00,32.5,32.0,29.06,NE,36,0.0,0.0,98,0.00,,FEW110,0.51,VWS V14.01,2013-03-01 03:37:00,
2013-02-28 22:38:00,32.5,32.0,29.06,NE,36,0.0,0.0,98,0.00,,FEW110,0.51,VWS V14.01,2013-03-01 03:38:00,
2013-02-28 22:39:00,32.5,32.0,29.06,NE,36,0.0,0.0,98,0.00,,FEW110,0.51,VWS V14.01,2013-03-01 03:39:00,
2013-02-28 22:40:00,32.9,32.4,29.09,NE,36,0.0,0.0,98,0.00,,OVC007,0.51,VWS V14.01,2013-03-01 03:40:00,
2013-02-28 22:41:00,32.5,32.0,29.06,NE,36,5.4,5.4,98,0.00,,FEW110,0.51,VWS V14.01,2013-03-01 03:41:00,
2013-02-28 22:42:00,32.5,32.0,29.06,NE,36,0.0,2.7,98,0.00,,FEW110,0.51,VWS V14.01,2013-03-01 03:42:00,
2013-02-28 22:43:00,32.4,31.9,29.06,NE,36,0.0,0.0,98,0.00,,FEW110,0.51,VWS V14.01,2013-03-01 03:43:00,
2013-02-28 22:44:00,32.4,31.9,29.06,NE,36,0.0,0.0,98,0.00,,FEW110,0.51,VWS V14.01,2013-03-01 03:44:00,
2013-02-28 22:45:00,32.9,32.4,29.09,NE,36,0.0,0.0,98,0.00,,OVC007,0.51,VWS V14.01,2013-03-01 03:45:00,
2013-02-28 22:46:00,32.4,31.9,29.06,NE,36,0.0,4.0,98,0.00,,FEW110,0.51,VWS V14.01,2013-03-01 03:46:00,
2013-02-28 22:47:00,32.4,31.9,29.06,NE,36,0.0,0.0,98,0.00,,FEW110,0.51,VWS V14.01,2013-03-01 03:47:00,
2013-02-28 22:48:00,32.4,31.9,29.06,NE,36,0.0,0.0,98,0.00,,FEW110,0.51,VWS V14.01,2013-03-01 03:48:00,
2013-02-28 22:49:00,32.4,31.9,29.06,NE,36,0.0,0.0,98,0.00,,FEW110,0.51,VWS V14.01,2013-03-01 03:49:00,
2013-02-28 22:50:00,32.9,32.4,29.09,NE,36,0.0,0.0,98,0.00,,OVC007,0.51,VWS V14.01,2013-03-01 03:50:00,
2013-02-28 22:51:00,32.4,31.9,29.06,NE,36,0.0,0.0,98,0.00,,FEW110,0.51,VWS V14.01,2013-03-01 03:51:00,
2013-02-28 22:52:00,32.4,31.9,29.06,NE,36,0.0,0.0,98,0.00,,FEW110,0.51,VWS V14.01,2013-03-01 03:52:00,
2013-02-28 22:53:00,32.4,31.9,29.06,NE,36,0.0,0.0,98,0.00,,FEW110,0.51,VWS V14.01,2013-03-01 03:53:00,
2013-02-28 22:54:00,32.4,31.9,29.06,NE,36,0.0,0.0,98,0.00,,FEW110,0.51,VWS V14.01,2013-03-01 03:54:00,
2013-02-28 22:55:00,32.7,32.2,29.09,NE,36,0.0,0.0,98,0.00,,OVC007,0.51,VWS V14.01,2013-03-01 03:55:00,
2013-02-28 22:56:00,32.4,31.9,29.06,NE,36,0.0,3.1,98,0.00,,FEW110,0.51,VWS V14.01,2013-03-01 03:56:00,
2013-02-28 22:57:00,32.4,31.9,29.06,NE,36,0.0,0.0,98,0.00,,FEW110,0.51,VWS V14.01,2013-03-01 03:57:00,
2013-02-28 22:58:00,32.4,31.9,29.06,NE,36,0.0,0.0,98,0.00,,FEW110,0.51,VWS V14.01,2013-03-01 03:58:00,
2013-02-28 22:59:00,32.4,31.9,29.06,NE,36,0.0,0.0,98,0.00,,FEW110,0.51,VWS V14.01,2013-03-01 03:59:00,
2013-02-28 23:00:00,32.7,32.2,29.09,NE,36,0.0,0.0,98,0.00,,OVC007,0.51,VWS V14.01,2013-03-01 04:00:00,
2013-02-28 23:01:00,32.4,31.9,29.06,NE,36,0.0,0.0,98,0.00,,FEW110,0.00,VWS V14.01,2013-03-01 04:01:00,
2013-02-28 23:02:00,32.4,31.9,29.06,NE,36,0.0,0.0,98,0.00,,FEW110,0.00,VWS V14.01,2013-03-01 04:02:00,
2013-02-28 23:03:00,32.4,31.9,29.06,NE,36,0.0,0.0,98,0.00,,FEW110,0.00,VWS V14.01,2013-03-01 04:03:00,
2013-02-28 23:04:00,32.4,31.9,29.06,NE,36,0.0,0.0,98,0.00,,FEW110,0.00,VWS V14.01,2013-03-01 04:04:00,
2013-02-28 23:05:00,32.7,32.2,29.09,NE,36,0.0,0.0,98,0.00,,OVC007,0.51,VWS V14.01,2013-03-01 04:05:00,
2013-02-28 23:06:00,32.4,31.9,29.06,NE,36,0.0,0.0,98,0.00,,FEW110,0.00,VWS V14.01,2013-03-01 04:06:00,
2013-02-28 23:07:00,32.4,31.9,29.06,NE,36,0.0,0.0,98,0.00,,FEW110,0.00,VWS V14.01,2013-03-01 04:07:00,
2013-02-28 23:08:00,32.4,31.9,29.06,NE,36,0.0,0.0,98,0.00,,FEW110,0.00,VWS V14.01,2013-03-01 04:08:00,
2013-02-28 23:09:00,32.4,31.9,29.06,NE,36,0.0,0.0,98,0.00,,FEW110,0.00,VWS V14.01,2013-03-01 04:09:00,
2013-02-28 23:10:00,32.7,32.2,29.09,NE,36,0.0,0.0,98,0.00,,OVC007,0.51,VWS V14.01,2013-03-01 04:10:00,
2013-02-28 23:11:00,32.4,31.9,29.06,NE,36,4.5,4.5,98,0.00,,FEW110,0.00,VWS V14.01,2013-03-01 04:11:00,
2013-02-28 23:12:00,32.4,31.9,29.06,NE,36,0.0,2.2,98,0.00,,FEW110,0.00,VWS V14.01,2013-03-01 04:12:00,
2013-02-28 23:13:00,32.4,31.9,29.06,NE,36,0.0,0.0,98,0.00,,FEW110,0.00,VWS V14.01,2013-03-01 04:13:00,
2013-02-28 23:14:00,32.4,31.9,29.06,NE,36,0.0,0.0,98,0.00,,FEW110,0.00,VWS V14.01,2013-03-01 04:14:00,
2013-02-28 23:15:00,32.7,32.2,29.09,NE,36,0.0,0.0,98,0.00,,OVC007,0.51,VWS V14.01,2013-03-01 04:15:00,
2013-02-28 23:16:00,32.4,31.9,29.06,NE,36,0.0,0.0,98,0.00,,FEW110,0.00,VWS V14.01,2013-03-01 04:16:00,
2013-02-28 23:17:00,32.4,31.9,29.06,NE,36,0.0,2.2,98,0.00,,FEW110,0.00,VWS V14.01,2013-03-01 04:17:00,
2013-02-28 23:18:00,32.2,31.7,29.06,NE,36,0.0,0.0,98,0.00,,FEW110,0.00,VWS V14.01,2013-03-01 04:18:00,
2013-02-28 23:19:00,32.2,31.7,29.06,NE,36,0.0,0.0,98,0.00,,FEW110,0.00,VWS V14.01,2013-03-01 04:19:00,
2013-02-28 23:20:00,32.2,31.7,29.06,NE,36,0.0,0.0,98,0.00,,FEW110,0.00,VWS V14.01,2013-03-01 04:20:00,
2013-02-28 23:21:00,32.7,32.2,29.09,NE,36,0.0,0.0,98,0.00,,OVC007,0.51,VWS V14.01,2013-03-01 04:21:00,
2013-02-28 23:22:00,32.2,31.7,29.06,NE,36,0.0,0.0,98,0.00,,FEW110,0.00,VWS V14.01,2013-03-01 04:22:00,
2013-02-28 23:23:00,32.2,31.7,29.06,NE,36,0.0,0.0,98,0.00,,FEW110,0.00,VWS V14.01,2013-03-01 04:23:00,
2013-02-28 23:24:00,32.2,31.7,29.06,NE,36,0.0,0.0,98,0.00,,FEW110,0.00,VWS V14.01,2013-03-01 04:24:00,
2013-02-28 23:25:00,32.2,31.7,29.06,NE,36,0.0,0.0,98,0.00,,FEW110,0.00,VWS V14.01,2013-03-01 04:25:00,
2013-02-28 23:26:00,32.7,32.2,29.09,NE,36,0.0,0.0,98,0.00,,OVC007,0.51,VWS V14.01,2013-03-01 04:26:00,
2013-02-28 23:27:00,32.2,31.7,29.06,NE,36,0.0,0.0,98,0.00,,FEW110,0.00,VWS V14.01,2013-03-01 04:27:00,
2013-02-28 23:28:00,32.2,31.7,29.06,NE,36,0.0,0.0,98,0.00,,FEW110,0.00,VWS V14.01,2013-03-01 04:28:00,
2013-02-28 23:29:00,32.2,31.7,29.06,NE,36,0.0,0.0,98,0.00,,FEW110,0.00,VWS V14.01,2013-03-01 04:29:00,
2013-02-28 23:30:00,32.2,31.7,29.06,NE,36,0.0,0.0,98,0.00,,FEW110,0.00,VWS V14.01,2013-03-01 04:30:00,
2013-02-28 23:31:00,32.5,32.0,29.09,NE,36,0.0,0.0,98,0.00,,OVC007,0.51,VWS V14.01,2013-03-01 04:31:00,
2013-02-28 23:32:00,32.2,31.7,29.06,NE,36,0.0,0.0,98,0.00,,FEW110,0.00,VWS V14.01,2013-03-01 04:32:00,
2013-02-28 23:33:00,32.2,31.7,29.06,NE,36,0.0,0.0,98,0.00,,FEW110,0.00,VWS V14.01,2013-03-01 04:33:00,
2013-02-28 23:34:00,32.2,31.7,29.06,NE,36,0.0,0.0,98,0.00,,FEW110,0.00,VWS V14.01,2013-03-01 04:34:00,
2013-02-28 23:35:00,32.2,31.7,29.06,NE,36,0.0,0.0,98,0.00,,FEW110,0.00,VWS V14.01,2013-03-01 04:35:00,
2013-02-28 23:36:00,32.5,32.0,29.06,NE,36,0.0,0.0,98,0.00,,OVC007,0.51,VWS V14.01,2013-03-01 04:36:00,
2013-02-28 23:37:00,32.2,31.7,29.06,NE,36,0.0,0.0,98,0.00,,FEW110,0.00,VWS V14.01,2013-03-01 04:37:00,
2013-02-28 23:38:00,32.2,31.7,29.06,NE,36,0.0,0.0,98,0.00,,FEW110,0.00,VWS V14.01,2013-03-01 04:38:00,
2013-02-28 23:39:00,32.2,31.7,29.06,NE,36,0.0,0.0,98,0.00,,FEW110,0.00,VWS V14.01,2013-03-01 04:39:00,
2013-02-28 23:40:00,32.2,31.7,29.06,NE,36,0.0,0.0,98,0.00,,FEW110,0.00,VWS V14.01,2013-03-01 04:40:00,
2013-02-28 23:41:00,32.5,32.0,29.06,NE,36,5.4,5.4,98,0.00,,OVC007,0.51,VWS V14.01,2013-03-01 04:41:00,
2013-02-28 23:42:00,32.2,31.7,29.06,NE,36,0.0,0.0,98,0.00,,FEW110,0.00,VWS V14.01,2013-03-01 04:42:00,
2013-02-28 23:43:00,32.2,31.7,29.06,NE,36,0.0,0.0,98,0.00,,FEW110,0.00,VWS V14.01,2013-03-01 04:43:00,
2013-02-28 23:44:00,32.2,31.7,29.06,NE,36,0.0,0.0,98,0.00,,FEW110,0.00,VWS V14.01,2013-03-01 04:44:00,
2013-02-28 23:45:00,32.2,31.7,29.06,NE,36,0.0,0.0,98,0.00,,FEW110,0.00,VWS V14.01,2013-03-01 04:45:00,
2013-02-28 23:46:00,32.4,31.9,29.06,NE,36,0.0,0.0,98,0.00,,OVC007,0.51,VWS V14.01,2013-03-01 04:46:00,
2013-02-28 23:47:00,32.2,31.7,29.06,NE,36,0.0,0.0,98,0.00,,FEW110,0.00,VWS V14.01,2013-03-01 04:47:00,
2013-02-28 23:48:00,32.2,31.7,29.06,NE,36,0.0,0.0,98,0.00,,FEW110,0.00,VWS V14.01,2013-03-01 04:48:00,
2013-02-28 23:49:00,32.2,31.7,29.06,NE,36,0.0,0.0,98,0.00,,FEW110,0.00,VWS V14.01,2013-03-01 04:49:00,
2013-02-28 23:50:00,32.2,31.7,29.06,NE,36,0.0,0.0,98,0.00,,FEW110,0.00,VWS V14.01,2013-03-01 04:50:00,
2013-02-28 23:51:00,32.4,31.9,29.06,NE,36,0.0,0.0,98,0.00,,OVC007,0.51,VWS V14.01,2013-03-01 04:51:00,
2013-02-28 23:52:00,32.2,31.7,29.06,NE,36,0.0,0.0,98,0.00,,FEW110,0.00,VWS V14.01,2013-03-01 04:52:00,
2013-02-28 23:53:00,32.2,31.7,29.06,NE,36,0.0,0.0,98,0.00,,FEW110,0.00,VWS V14.01,2013-03-01 04:53:00,
2013-02-28 23:54:00,32.2,31.7,29.06,NE,36,0.0,0.0,98,0.00,,FEW110,0.00,VWS V14.01,2013-03-01 04:54:00,
2013-02-28 23:55:00,32.2,31.7,29.06,NE,36,0.0,0.0,98,0.00,,FEW110,0.00,VWS V14.01,2013-03-01 04:55:00,
2013-02-28 23:56:00,32.4,31.9,29.06,NE,36,0.0,0.0,98,0.00,,OVC007,0.51,VWS V14.01,2013-03-01 04:56:00,
2013-02-28 23:57:00,32.2,31.7,29.06,NE,36,0.0,0.0,98,0.00,,FEW110,0.00,VWS V14.01,2013-03-01 04:57:00,
2013-02-28 23:58:00,32.2,31.7,29.06,NE,36,0.0,0.0,98,0.00,,FEW110,0.00,VWS V14.01,2013-03-01 04:58:00,
2013-02-28 23:59:00,32.2,31.7,29.06,NE,36,0.0,0.0,98,0.00,,FEW110,0.00,VWS V14.01,2013-03-01 04:59:00,